GFSMA_prec_cloud_003.txt.gz
Cloud_Cover
0 0 0 0 0 12 4 14 0 3 4 4 4 3 4 2 0 0 0 0 0 4 76 100 100 80 24 89 100 100 100 100 100 100 100 100 100 100 100 100 100 100 93
4 4 0 0 0 0 7 2 0 0 0 0 0 1 4 5 5 2 1 0 0 0 8 96 78 100 95 26 91 100 100 100 100 100 100 100 100 100 100 100 100 61 36
0 0 0 0 0 0 11 0 0 0 0 0 0 0 1 5 4 5 2 5 0 0 0 0 90 95 100 100 100 100 100 100 100 100 100 100 100 100 100 100 100 96 74
0 0 0 0 0 5 5 5 4 5 5 1 0 0 0 0 0 2 4 5 5 0 0 0 0 54 100 100 100 100 100 100 100 100 100 100 100 100 100 100 100 100 100
62 50 4 2 1 1 2 2 0 0 0 0 0 0 0 0 0 4 0 0 4 5 1 0 0 0 12 99 100 100 100 100 100 100 100 100 100 100 100 100 100 100 100
3 4 1 0 0 0 1 1 4 5 5 1 0 0 0 0 0 2 2 0 0 2 5 5 1 0 0 2 72 100 100 100 100 100 100 100 100 100 100 100 100 100 100
0 0 0 12 65 16 5 5 1 5 2 0 0 0 0 0 0 0 0 0 0 0 0 4 5 5 0 0 0 81 100 100 100 100 100 100 100 100 100 100 100 100 100
11 26 42 7 5 2 1 2 2 0 5 5 5 5 0 1 0 0 0 0 0 0 0 0 0 5 5 5 1 0 1 81 100 100 100 100 100 100 100 100 100 100 100
27 17 5 2 0 0 0 0 0 0 2 5 5 15 8 5 2 3 4 2 0 0 0 0 0 1 5 5 3 0 0 0 11 100 100 100 100 100 100 100 100 100 100
5 5 5 5 1 0 0 0 0 0 5 13 25 96 7 33 41 28 97 64 50 32 4 0 0 4 4 5 5 5 0 0 0 1 30 100 100 100 100 100 100 100 100
0 1 0 0 0 4 2 0 2 5 4 84 97 100 53 5 13 62 100 100 100 100 90 7 5 5 5 96 34 5 5 1 5 1 0 5 96 100 100 100 100 100 100
5 5 1 5 5 5 5 4 17 23 36 6 21 28 100 96 55 40 74 3 78 100 100 100 82 9 5 5 30 92 7 19 29 5 5 1 5 20 100 100 100 100 100
4 5 5 5 5 5 4 5 13 100 100 98 97 87 100 100 68 89 100 99 74 16 18 32 36 81 52 5 5 3 17 5 60 100 74 7 5 21 4 93 100 100 100
5 5 5 4 5 5 22 41 6 31 73 99 100 98 100 100 100 100 100 100 100 86 29 5 5 3 0 1 5 2 0 0 5 93 46 99 24 5 5 5 96 100 100
2 0 3 5 32 39 100 100 100 99 99 100 100 100 100 100 100 100 100 100 100 84 53 56 6 12 28 16 2 0 0 0 5 9 65 100 100 94 41 5 5 59 100
2 5 21 71 69 87 100 100 100 100 100 100 100 100 90 100 100 100 100 100 100 64 24 84 100 90 86 100 42 0 0 0 4 5 5 99 100 100 26 5 4 39 66
5 77 94 100 100 100 100 100 100 100 100 100 100 100 100 100 100 99 87 94 48 63 69 23 94 7 9 4 2 0 5 1 0 2 5 60 6 84 100 25 5 41 75
78 74 97 100 100 100 100 100 100 100 100 100 100 100 100 100 100 100 99 75 18 10 5 5 5 70 92 23 22 52 12 5 5 4 0 0 4 5 88 100 97 91 100
100 100 99 90 100 100 100 100 100 100 100 100 100 100 100 100 100 100 100 100 100 99 39 42 8 10 53 46 5 5 5 5 12 6 5 0 0 0 0 32 92 99 93
100 99 81 67 85 88 100 100 100 100 100 100 100 100 100 100 100 100 100 100 100 83 11 5 5 5 5 19 59 33 5 27 50 57 63 5 4 0 0 0 0 2 8
100 97 55 77 81 62 89 100 100 100 100 100 100 100 100 100 100 100 100 100 87 100 100 100 100 98 99 100 100 98 100 100 93 36 8 74 5 5 4 1 2 0 91
100 100 100 98 90 82 69 94 98 100 100 100 100 100 99 99 47 28 32 66 49 98 100 100 100 100 100 100 100 100 100 100 98 100 99 70 88 5 5 5 5 0 4
5 5 5 5 12 28 56 91 66 25 43 53 48 48 99 88 58 99 99 100 100 100 100 100 100 100 100 100 100 100 100 100 100 100 100 100 100 100 88 75 4 1 5
5 7 6 9 17 19 5 13 38 98 100 100 100 100 100 100 100 98 100 100 100 100 100 100 100 100 100 100 100 100 100 100 100 100 100 100 100 97 90 95 52 8 5
5 14 16 5 5 5 5 5 5 91 100 98 79 98 99 100 98 99 100 99 100 100 100 72 64 86 62 77 98 100 100 100 100 96 100 100 100 98 89 57 5 5 19
4 5 5 5 5 5 5 5 76 100 100 100 100 100 98 93 92 96 100 100 100 100 99 100 100 100 94 100 97 100 100 100 100 100 97 100 100 100 100 68 6 6 8

GFSMA_prec_cloud_009.txt.gz
Cloud_Cover
0 0 0 0 0 0 0 0 0 0 0 0 0 0 0 0 0 0 2 2 1 4 5 34 6 80 100 100 100 100 100 100 100 100 100 100 100 100 100 100 100 100 100
0 0 0 0 0 4 0 0 0 0 0 0 0 0 0 0 0 0 0 0 1 4 2 29 48 74 55 66 100 100 100 100 100 100 100 100 100 100 100 100 100 100 100
4 10 5 8 18 6 6 5 5 5 5 2 0 0 0 0 0 0 0 0 4 0 5 0 13 13 100 31 98 100 100 100 100 100 100 100 100 100 100 100 100 100 100
5 8 42 38 88 100 89 64 48 63 17 4 2 0 0 0 0 1 0 0 0 4 1 2 0 52 11 87 100 54 99 68 100 100 100 100 100 100 100 100 100 100 100
5 56 99 100 100 73 31 5 6 3 1 4 15 5 21 5 5 5 5 5 2 1 4 0 2 1 4 5 38 100 100 93 58 100 100 100 100 100 100 100 100 100 100
33 34 18 7 6 5 5 5 1 5 28 77 89 96 42 37 35 12 53 38 10 4 0 0 2 0 4 0 3 5 86 100 91 56 100 100 100 100 100 100 100 100 100
5 5 5 5 5 1 3 9 66 55 31 6 6 42 38 39 37 22 5 2 1 8 91 8 5 0 0 0 0 0 1 48 100 84 93 100 100 100 100 100 100 100 100
80 5 5 5 9 40 96 22 5 29 28 5 6 14 70 55 100 51 73 90 25 2 5 5 51 8 0 4 0 0 0 0 6 97 100 86 99 100 100 100 100 100 100
86 60 5 31 53 48 35 37 6 5 5 38 60 29 4 5 6 12 26 100 98 48 6 5 5 5 0 0 0 0 0 0 0 0 81 100 71 50 98 100 100 100 100
99 80 18 5 5 14 5 5 5 59 49 50 96 96 7 5 6 7 2 46 100 58 92 74 83 52 3 0 0 0 0 0 0 0 0 9 92 55 5 42 100 100 100
52 30 5 1 12 89 42 70 100 100 100 97 10 6 5 5 22 100 58 24 100 100 100 100 100 100 86 7 2 0 0 0 0 0 0 0 0 1 34 98 21 100 100
15 35 97 100 100 100 100 100 99 99 89 47 56 56 100 86 40 96 73 18 92 97 99 100 100 100 100 100 88 5 3 0 0 0 0 0 0 0 1 22 100 100 100
100 100 100 100 100 100 92 97 100 100 100 51 96 100 96 49 89 100 100 100 100 87 100 100 100 100 100 100 100 98 7 1 3 1 0 0 0 0 0 1 5 39 100
100 100 6 30 55 96 100 100 99 58 100 96 73 100 100 78 93 100 100 100 95 100 100 100 100 99 94 100 100 100 87 5 4 3 0 0 0 0 0 4 5 5 33
100 80 4 26 100 100 100 100 89 100 88 99 100 100 100 100 100 100 100 100 96 100 98 97 100 100 100 100 100 96 86 100 60 6 1 0 0 5 4 3 5 5 17
10 40 86 100 100 100 100 100 99 97 98 98 100 100 100 100 100 100 100 100 100 100 95 100 98 86 100 100 100 95 100 98 94 93 12 1 3 3 5 5 4 4 5
95 21 33 65 87 88 94 95 97 87 94 99 100 100 100 100 100 100 100 100 100 100 92 87 100 100 100 100 100 99 77 100 94 5 47 79 5 4 5 5 5 5 1
62 49 86 84 94 100 100 100 100 100 100 100 100 100 100 100 100 100 100 100 100 100 64 93 100 100 100 100 100 100 89 100 100 99 51 7 5 1 0 4 46 60 5
97 90 99 76 56 72 80 88 84 93 92 98 92 99 97 100 93 100 100 100 99 98 91 69 75 77 59 100 100 100 100 67 64 100 94 73 61 33 10 0 0 5 5
77 28 5 5 5 6 40 5 58 5 5 5 75 75 91 100 100 95 96 96 100 100 100 55 6 28 23 5 5 16 43 81 48 58 21 40 39 5 11 5 0 0 0
5 5 5 5 5 5 41 5 2 5 5 5 6 28 98 100 87 55 32 88 100 100 100 100 100 100 100 100 100 100 100 100 96 99 92 7 69 93 19 1 0 0 0
5 5 5 49 96 100 96 5 3 5 5 5 81 81 78 100 100 100 92 23 44 100 100 100 100 100 100 100 99 77 72 68 56 6 6 5 98 12 11 58 100 100 34
16 66 99 100 100 100 94 5 5 5 20 24 96 100 100 100 100 100 100 100 100 83 85 95 100 93 99 97 100 98 98 100 96 100 77 91 79 76 82 27 63 86 100
100 100 100 100 100 100 99 30 5 46 100 100 100 100 100 99 100 100 100 100 100 100 100 95 99 98 100 100 100 100 100 100 100 100 100 81 93 35 92 90 33 5 51
100 100 94 88 97 98 100 93 43 100 100 100 100 100 100 97 58 24 100 100 100 100 100 95 59 15 12 17 67 100 100 100 100 100 100 100 90 98 100 94 62 24 5
100 79 32 98 100 100 100 100 80 100 100 100 100 100 99 100 98 100 100 100 100 100 100 83 98 99 98 66 76 85 70 100 100 91 60 100 100 100 98 99 45 6 9

GFSMA_prec_cloud_012.txt.gz
Cloud_Cover
0 0 0 0 0 0 0 0 0 0 1 0 0 0 0 3 0 0 0 0 0 0 4 6 5 62 100 100 100 100 100 100 100 100 100 100 100 100 100 100 100 100 100
0 0 0 0 0 0 0 4 3 2 0 0 0 0 0 0 0 0 0 0 0 0 0 1 5 5 49 100 100 100 100 100 100 100 100 100 100 100 100 100 100 100 100
0 5 0 0 2 5 5 5 5 5 4 0 2 0 0 0 0 0 0 0 5 3 0 0 0 5 5 98 100 100 100 100 100 100 100 100 100 100 100 100 100 100 100
5 5 5 5 5 3 11 36 33 5 9 5 4 0 0 0 3 3 2 1 0 3 0 0 0 0 5 5 91 100 100 100 100 100 100 100 100 100 100 100 100 100 100
5 5 5 5 5 5 5 4 6 5 3 0 0 5 5 5 5 5 5 5 12 1 3 0 0 0 0 5 14 68 100 100 100 100 100 100 100 100 100 100 100 100 100
5 5 5 5 27 5 4 0 4 0 2 5 5 5 5 16 7 5 5 4 4 5 1 4 4 0 0 1 5 5 11 100 100 100 100 100 100 100 100 100 100 100 100
65 97 22 10 65 5 5 2 0 1 5 5 5 36 99 98 31 12 5 5 5 5 40 38 4 2 2 0 0 0 5 28 100 100 100 100 100 100 100 100 100 100 100
10 58 58 51 60 85 51 0 5 0 3 3 3 20 48 47 74 65 46 16 23 34 12 19 39 8 5 5 2 0 0 5 5 75 100 100 100 100 100 100 100 100 100
100 96 66 2 0 0 1 3 6 0 23 100 100 100 99 79 73 92 98 100 100 100 100 100 100 95 8 5 5 4 0 0 0 0 40 100 100 100 100 100 100 100 100
20 45 79 81 44 7 5 5 5 5 5 6 32 30 5 5 22 16 84 98 61 29 50 92 100 100 91 67 10 5 5 1 4 0 0 1 93 100 100 100 100 100 100
100 100 86 42 33 41 76 61 91 100 100 81 14 10 5 1 2 5 5 2 2 3 1 100 100 70 100 100 100 100 100 5 5 5 0 0 0 66 100 47 100 100 100
100 100 100 100 100 100 100 100 89 100 79 94 100 100 52 46 100 100 91 16 49 2 0 2 99 78 100 69 100 100 100 55 5 5 5 0 0 0 1 94 8 97 100
100 100 100 100 76 43 12 88 97 100 100 98 69 93 69 42 37 100 100 94 75 51 10 2 33 100 100 100 100 100 100 100 27 5 12 2 0 1 0 3 10 10 17
100 100 100 98 41 37 35 41 100 100 75 99 35 17 6 5 85 7 53 65 97 5 5 5 5 100 100 100 100 100 100 100 100 100 100 5 0 0 5 3 0 1 5
82 97 100 100 48 5 88 100 100 100 96 88 100 99 31 65 85 92 93 92 100 90 89 100 12 54 94 100 100 100 100 100 100 89 38 5 4 0 0 0 5 0 0
38 20 5 10 36 50 50 70 69 90 95 90 99 100 100 100 99 67 99 100 93 100 67 100 99 23 66 100 100 100 100 100 100 78 100 5 4 4 5 2 1 4 0
0 72 76 7 35 5 16 78 97 100 100 100 100 99 92 100 100 100 94 90 100 91 91 100 100 100 91 100 100 100 100 100 100 79 92 99 90 100 46 10 6 4 5
5 5 25 73 70 91 45 8 5 6 26 29 100 60 72 94 100 100 100 100 100 98 37 5 70 100 100 95 98 100 100 100 67 56 71 100 13 5 93 55 5 15 5
11 5 5 5 5 5 5 5 5 25 5 5 5 21 4 98 5 8 24 93 98 97 96 82 40 55 86 100 50 9 67 97 99 70 83 98 84 29 10 89 5 17 5
5 5 32 38 5 5 5 9 16 5 5 1 0 0 0 20 100 100 71 86 40 46 78 5 5 5 8 59 5 15 5 5 6 69 13 5 94 98 100 85 5 45 61
5 5 5 5 5 35 71 17 3 0 0 0 0 0 0 0 7 83 76 98 74 8 9 52 36 69 27 98 41 92 99 100 98 96 89 5 22 100 93 78 34 5 5
61 11 56 99 6 6 6 5 5 5 5 5 5 2 5 5 6 59 100 84 94 33 46 81 34 44 99 100 100 71 29 59 42 100 12 5 5 2 0 6 94 97 34
27 95 100 99 29 5 5 5 5 62 59 4 5 5 5 30 92 100 98 58 77 84 96 96 99 31 100 100 100 100 100 94 62 52 7 5 5 3 5 44 62 100 56
94 100 100 92 24 5 5 5 5 5 5 5 32 6 5 5 71 100 100 48 13 30 95 100 56 10 90 73 72 54 58 33 7 5 40 59 5 5 5 5 5 5 5
59 100 12 85 10 5 5 96 78 75 6 5 26 98 98 96 15 66 86 12 5 5 44 94 100 100 100 100 100 98 90 87 45 41 59 91 9 19 46 5 5 5 5
94 44 5 5 4 5 97 100 75 100 76 17 97 65 77 100 100 97 100 100 100 86 99 5 48 55 80 31 83 93 100 100 59 30 99 100 85 96 64 5 5 5 5

GFSMA_prec_cloud_015.txt.gz
Cloud_Cover
0 0 0 0 0 0 0 0 0 0 0 0 0 0 0 0 0 0 0 0 0 2 3 44 72 100 100 100 100 100 100 100 100 100 100 100 100 100 100 100 100 100 100
5 4 0 0 0 0 0 0 0 0 0 0 0 0 0 0 0 0 0 0 0 0 0 2 11 18 11 5 100 100 100 100 100 100 100 100 100 100 100 100 100 100 100
5 5 5 0 0 0 0 0 0 0 0 0 0 0 0 0 0 0 0 0 0 0 0 0 0 4 6 31 5 99 100 100 100 100 100 100 100 100 100 100 100 100 100
5 4 5 3 0 0 1 1 1 0 0 0 0 2 0 0 1 5 2 5 7 4 0 0 0 0 4 5 74 15 87 100 100 100 100 100 100 100 100 100 100 100 100
4 5 5 5 5 11 5 5 5 5 3 5 5 5 7 5 5 5 5 5 5 3 0 3 0 0 0 1 4 6 10 94 100 100 100 100 100 100 100 100 100 100 100
5 71 86 40 61 24 69 34 3 4 1 4 5 10 93 84 13 5 5 5 45 12 5 5 4 0 0 2 3 2 3 14 100 100 100 100 100 100 100 100 100 100 100
11 78 6 5 5 4 0 0 1 5 5 5 5 5 16 45 6 7 17 5 7 12 6 100 74 55 5 5 5 5 3 0 5 91 100 100 100 100 100 100 100 100 100
37 5 1 0 0 0 2 5 4 4 5 5 5 5 5 5 6 5 5 24 8 27 88 32 88 100 93 100 18 31 11 17 0 4 80 100 100 100 100 100 100 100 100
92 4 4 3 0 0 0 0 4 3 2 4 4 1 17 32 3 92 73 63 98 92 98 99 98 79 72 96 100 85 82 5 10 4 0 48 100 100 100 100 100 100 100
50 34 9 5 5 3 5 5 5 5 5 5 29 61 56 71 100 11 91 100 100 100 100 100 100 100 100 100 99 92 98 95 98 66 4 0 39 100 100 100 100 100 100
52 41 7 40 93 100 100 97 100 98 68 73 100 100 100 100 94 5 5 15 43 25 5 3 3 22 17 98 100 100 100 100 100 100 98 5 0 3 95 100 100 100 100
100 100 99 75 14 5 5 5 5 4 5 37 84 100 100 100 99 100 34 5 37 5 0 0 0 2 8 50 93 100 100 100 100 100 100 70 13 4 1 51 100 100 100
38 12 6 5 3 0 1 6 23 99 94 100 100 98 41 70 100 94 100 92 14 19 4 0 0 4 5 5 23 96 100 100 100 100 100 91 100 90 5 2 5 58 100
6 5 4 3 4 5 7 11 33 76 100 41 32 100 54 5 91 100 100 100 96 100 94 18 5 48 11 21 67 100 100 100 100 100 100 100 100 83 24 48 2 1 5
4 5 3 3 5 5 5 9 59 42 28 86 100 100 100 100 100 100 99 100 100 93 5 5 9 14 99 83 100 98 76 100 100 100 76 100 99 83 98 95 87 43 9
0 0 0 0 5 5 5 5 14 38 88 100 100 100 100 100 100 100 100 100 98 100 73 5 89 100 100 100 100 100 100 100 100 100 100 100 100 100 100 100 80 5 45
0 0 0 1 5 5 68 59 60 5 3 5 4 11 17 71 89 93 100 100 100 100 96 5 5 5 81 100 100 100 95 100 100 100 100 100 100 100 100 100 72 5 5
18 43 6 5 0 0 5 0 5 5 5 5 5 19 80 37 40 27 22 90 86 100 92 5 44 100 56 100 100 100 100 100 100 100 100 100 100 100 100 100 100 84 74
100 97 70 68 3 0 1 5 16 90 6 5 5 5 2 1 0 0 59 34 5 18 8 5 5 91 91 43 63 59 5 26 100 100 100 100 100 100 100 100 100 100 91
100 100 63 82 3 5 5 5 13 5 4 0 0 2 0 0 0 0 5 53 20 5 5 18 48 44 100 100 84 39 5 2 100 100 100 100 100 74 7 5 24 100 100
100 37 84 100 1 5 4 5 5 5 0 0 5 5 1 4 61 27 84 96 44 94 62 72 8 5 93 100 94 74 5 5 50 100 100 100 98 17 5 5 5 65 100
100 99 100 39 13 2 5 87 64 5 3 3 2 0 0 5 54 79 89 100 100 100 88 88 6 27 67 99 21 34 6 6 18 98 100 100 16 5 5 6 99 5 21
95 96 98 59 5 59 55 99 31 5 5 5 5 5 5 5 5 6 79 97 93 100 100 100 99 30 56 99 8 21 18 60 37 56 19 62 83 73 8 5 5 5 13
100 95 95 5 69 91 23 5 5 6 7 53 76 64 6 5 86 90 61 58 5 5 52 100 95 5 33 100 57 57 49 87 99 99 99 20 39 5 5 5 4 0 37
100 100 5 5 5 5 5 5 6 6 5 31 45 43 46 18 26 100 100 92 85 42 77 49 75 100 100 84 88 100 100 96 100 93 76 21 95 80 18 5 5 5 5
99 8 5 5 5 5 5 55 73 98 100 64 98 100 100 94 100 100 97 56 84 21 24 6 9 31 5 5 8 66 10 15 97 89 38 71 19 5 5 22 71 80 32

GFSMA_prec_cloud_018.txt.gz
Cloud_Cover
4 0 0 0 0 0 0 0 0 0 0 0 0 0 0 0 0 0 0 0 0 0 5 53 96 100 65 30 100 100 100 100 100 83 100 100 100 100 100 100 100 100 100
3 0 1 0 0 0 0 0 0 0 0 0 0 0 1 0 0 0 0 0 0 0 0 2 14 72 79 90 11 93 100 100 100 100 96 100 100 100 100 100 100 100 100
5 5 2 4 5 5 4 1 4 4 0 0 1 5 5 5 4 2 0 0 0 0 0 0 0 0 5 5 5 9 40 100 100 100 100 100 100 100 100 100 100 100 100
5 4 1 5 4 5 5 5 5 0 0 0 2 5 5 5 5 5 5 5 1 0 0 0 0 0 0 0 2 5 73 16 100 100 100 100 100 100 100 100 100 100 100
5 5 5 5 6 11 5 4 0 0 0 2 5 5 5 6 18 12 33 53 57 7 33 5 2 0 1 1 0 0 0 5 8 100 100 100 100 100 100 100 100 100 100
93 82 95 81 68 5 2 0 0 0 4 5 5 5 5 9 23 51 77 33 38 66 46 52 17 21 6 56 76 30 4 0 5 9 100 100 100 100 100 100 100 100 100
53 22 59 26 5 5 0 0 0 0 0 1 5 5 68 100 100 96 92 92 94 9 20 46 100 88 15 5 5 86 78 18 5 4 5 100 100 100 100 100 100 100 100
95 18 62 15 5 2 0 0 0 0 0 1 1 0 4 28 30 84 79 32 82 96 98 26 5 27 89 42 19 61 64 100 51 5 2 5 82 100 100 100 100 100 100
79 29 1 4 5 5 1 0 2 4 0 1 3 11 29 14 40 71 46 8 5 5 6 25 5 5 12 67 100 66 6 96 100 53 23 3 2 19 100 100 100 100 100
18 5 5 5 5 5 5 3 0 2 5 28 4 6 68 95 100 70 7 5 5 5 0 0 1 4 5 26 88 100 98 52 17 89 35 5 5 0 7 100 100 100 100
100 100 98 30 5 5 2 0 0 0 5 5 9 5 19 89 74 91 53 50 4 0 0 0 0 0 2 92 89 77 99 100 99 98 76 96 6 5 0 5 67 100 100
96 46 31 15 5 5 2 2 3 24 24 69 64 54 29 30 5 82 81 49 61 35 4 0 0 1 8 15 5 12 94 96 100 84 100 100 88 58 5 2 4 78 100
89 95 74 40 1 0 0 0 1 5 5 45 86 57 83 74 83 87 100 100 100 100 52 5 5 4 5 5 6 5 18 100 92 100 100 100 100 97 9 5 2 5 88
1 5 5 0 0 0 0 0 0 0 4 5 5 68 83 99 100 100 100 100 100 87 90 6 5 60 9 5 5 5 5 6 100 97 100 100 78 100 98 91 5 5 2
0 4 2 5 9 5 0 0 3 0 0 4 5 2 60 98 100 100 100 100 100 100 93 96 10 71 65 41 8 24 98 12 87 100 100 100 100 100 100 100 100 22 5
8 86 87 79 98 79 48 29 69 60 2 0 1 5 5 5 14 66 65 64 98 100 94 91 34 76 90 100 76 79 94 84 29 100 100 100 100 100 100 100 100 84 94
99 100 100 100 100 100 77 63 100 5 0 4 5 31 54 70 90 90 60 61 52 52 91 11 100 71 75 100 98 38 100 5 100 100 100 100 100 97 100 100 100 100 62
41 100 100 94 24 100 83 99 86 0 5 90 98 44 42 10 5 5 0 0 3 37 17 14 54 8 100 100 100 100 45 5 100 100 100 100 100 100 100 100 100 100 100
100 93 100 100 100 78 98 74 0 1 5 5 3 2 0 0 0 0 0 1 0 0 28 98 17 5 5 39 79 56 80 5 100 100 100 100 100 100 100 100 100 100 100
100 100 95 100 100 9 25 0 5 5 5 5 5 3 0 0 0 5 5 46 89 89 5 5 48 51 5 3 62 56 66 5 36 100 100 100 100 100 100 100 100 100 100
51 100 100 100 100 67 1 66 79 5 5 4 4 4 2 2 5 5 99 98 100 70 70 97 92 99 29 2 3 42 50 35 5 8 98 100 100 100 100 100 100 100 68
100 100 100 100 100 31 77 82 5 5 5 5 5 5 5 5 5 5 5 22 87 100 100 100 99 100 29 5 5 5 5 50 10 5 5 97 71 100 100 100 100 100 100
100 100 100 100 71 16 14 5 5 9 43 5 5 5 5 5 5 5 5 51 86 77 93 100 94 68 16 5 5 5 5 5 8 81 5 7 19 92 74 100 100 100 100
100 100 98 36 55 5 5 9 51 5 5 5 5 5 5 59 100 84 84 99 90 100 100 36 36 5 5 5 5 5 14 86 78 88 42 63 64 15 53 89 36 100 100
10 86 84 77 5 5 5 6 35 9 5 5 5 68 96 82 100 100 96 96 87 99 100 99 88 100 83 98 99 100 99 100 96 96 85 65 22 6 5 8 91 54 5
95 100 89 34 5 5 1 5 67 92 36 79 43 97 100 100 100 100 100 100 99 100 76 42 6 5 12 59 93 65 31 37 37 74 100 62 99 6 7 6 54 13 8

GFSMA_prec_cloud_021.txt.gz
Cloud_Cover
76 27 11 16 8 73 1 4 5 4 0 0 0 0 0 0 0 0 0 0 1 1 0 0 0 0 10 100 59 2 4 87 100 100 100 100 100 100 100 100 100 100 100
60 62 38 8 5 3 0 4 2 0 0 0 0 0 0 0 0 0 0 4 5 5 5 2 3 0 4 20 100 82 8 61 7 100 100 100 100 100 100 100 100 100 100
86 1 25 10 2 0 0 0 0 0 0 0 0 0 0 0 0 0 0 0 1 5 5 5 5 0 2 4 5 88 99 17 4 5 100 100 100 100 100 73 100 100 100
13 5 1 5 4 5 5 1 1 0 0 0 0 0 0 0 0 0 0 0 0 2 5 5 5 5 4 0 2 5 6 96 16 0 0 92 15 100 100 100 100 100 100
9 5 5 5 34 9 6 5 4 0 0 0 0 0 0 0 0 1 0 3 2 1 0 3 5 5 4 5 2 2 5 5 8 8 3 6 100 99 100 100 100 100 100
92 97 93 41 5 5 5 5 0 0 0 0 0 4 5 5 5 5 4 5 5 5 5 5 5 4 4 1 5 5 3 5 3 5 12 4 7 100 100 100 100 100 100
100 93 5 5 11 5 5 0 0 0 0 0 0 3 5 5 5 5 5 19 14 5 5 5 5 5 5 5 5 2 5 5 5 1 1 5 5 3 100 100 100 100 100
86 82 35 5 3 0 2 2 0 0 0 0 0 5 5 5 5 5 5 5 7 46 29 5 17 59 100 84 17 10 5 5 5 5 2 1 4 5 4 100 100 100 100
2 1 5 8 20 5 5 5 0 0 0 0 0 2 12 7 5 5 2 2 4 3 5 5 5 60 93 73 86 94 87 5 5 5 5 0 1 0 3 30 100 100 100
19 24 5 100 76 26 5 5 5 0 0 0 1 0 4 5 54 33 8 1 0 0 0 0 0 0 0 32 11 48 51 100 43 52 12 5 5 5 0 3 68 100 100
76 76 100 98 81 67 3 0 0 5 5 6 16 25 6 72 31 98 97 82 42 21 1 5 4 0 3 6 6 0 0 1 24 8 10 5 25 5 4 0 5 68 100
99 79 25 4 2 0 0 2 9 36 4 5 5 7 16 53 63 96 100 100 100 100 94 5 5 5 16 5 5 2 0 0 3 97 50 94 80 48 12 5 2 1 61
5 5 5 3 1 0 1 3 5 7 42 67 41 3 5 5 5 68 100 100 100 98 84 98 49 88 74 23 5 5 4 0 5 88 100 100 100 100 100 100 15 5 0
4 5 5 5 5 86 90 63 99 100 98 89 4 0 0 0 5 9 86 100 99 100 83 59 100 100 89 98 84 30 5 5 5 5 39 100 100 100 99 100 95 10 5
5 7 13 29 94 66 68 100 62 92 83 3 96 12 0 0 4 5 5 56 100 98 64 25 66 100 100 100 56 18 59 5 5 5 5 100 100 100 54 7 67 100 84
54 100 100 92 100 91 100 100 100 95 49 98 89 5 0 4 5 5 7 12 68 100 62 5 23 100 98 100 100 18 5 5 5 5 5 97 100 100 100 100 100 100 100
100 88 54 91 100 100 100 100 100 100 100 100 94 5 5 4 5 3 2 2 5 5 5 5 5 11 91 100 99 71 22 5 28 10 5 100 100 100 100 100 100 100 100
5 5 5 56 100 100 100 100 79 100 92 35 5 5 5 5 5 5 2 1 5 5 5 5 5 19 47 6 95 100 52 5 14 12 80 56 100 100 100 100 100 100 100
0 5 95 49 98 99 100 93 60 3 7 66 8 64 5 5 5 3 4 5 5 20 87 99 46 5 20 30 5 3 43 5 5 36 85 73 100 100 100 100 100 100 100
15 100 13 12 98 99 99 100 88 27 61 5 31 5 5 5 5 8 6 5 32 88 100 100 77 62 18 19 5 4 3 3 2 5 5 5 51 100 100 100 100 100 100
100 32 63 100 22 99 100 100 47 6 5 5 5 5 5 15 73 87 68 42 82 87 72 100 99 100 100 89 75 10 5 5 4 5 5 89 72 100 100 100 100 99 100
40 100 96 87 100 100 100 61 5 5 5 5 60 40 5 5 5 13 60 100 99 100 100 100 90 100 100 99 59 5 5 5 5 5 5 32 72 100 100 100 100 100 100
92 77 36 81 94 97 5 10 6 5 6 13 58 50 9 7 25 43 73 100 100 99 100 100 100 100 99 95 100 58 5 5 5 5 5 16 23 100 100 100 96 100 100
51 6 35 99 65 5 5 5 14 5 5 5 5 5 43 64 56 97 100 100 100 100 100 100 100 100 70 5 12 9 79 58 53 6 7 95 66 38 100 100 100 86 99
68 82 52 9 46 27 3 5 8 7 5 5 5 5 98 100 96 100 100 100 100 100 100 81 78 96 99 100 100 98 93 100 99 16 63 73 70 6 38 65 69 100 100
98 10 90 98 24 5 2 5 47 32 26 86 9 5 70 100 100 100 100 100 100 100 96 99 88 6 5 5 7 71 62 100 96 23 26 99 96 5 6 98 7 5 84

GFSMA_prec_cloud_024.txt.gz
Cloud_Cover
75 43 8 23 91 20 23 12 5 0 0 0 0 0 0 0 0 0 0 0 0 0 0 0 0 0 0 0 4 1 8 96 98 100 100 100 100 100 100 100 100 100 100
5 8 58 56 20 11 5 6 0 0 2 0 0 0 0 0 0 0 0 0 0 0 0 0 0 0 2 4 0 5 1 12 5 54 94 100 100 100 100 100 100 100 100
37 5 5 5 5 5 8 5 5 5 5 4 0 0 0 0 0 0 0 0 0 0 0 0 0 0 0 1 5 0 5 14 96 5 13 100 95 93 99 100 100 100 100
6 5 5 37 20 100 88 26 5 5 5 0 0 0 0 0 0 0 0 0 0 0 0 0 0 0 1 3 0 5 1 5 37 36 6 4 30 98 84 100 100 100 100
66 100 82 100 88 76 17 5 5 5 2 0 0 0 0 2 5 5 5 5 1 0 0 0 1 5 1 0 4 2 4 5 2 19 35 5 3 5 34 100 100 100 100
100 29 79 40 5 5 5 5 5 1 0 0 0 0 1 4 5 5 5 5 10 8 13 4 1 1 1 1 0 2 5 42 5 0 1 14 5 6 2 38 100 100 100
5 3 5 5 5 5 2 1 5 3 0 0 0 0 0 0 4 5 5 5 5 5 5 5 5 5 5 5 5 0 0 20 93 60 10 0 4 5 5 5 5 88 100
3 13 77 30 5 3 5 5 12 5 5 3 0 2 5 5 5 4 5 5 5 5 5 5 4 5 2 10 58 39 35 49 4 56 14 1 0 0 4 0 1 4 74
5 5 5 5 36 5 5 4 0 0 0 0 0 1 1 4 12 3 0 1 1 0 0 0 0 0 0 0 40 28 92 99 48 4 28 13 1 0 0 0 0 0 0
5 12 59 24 5 3 0 0 0 0 0 4 5 26 37 90 73 32 22 5 7 5 2 2 5 5 4 1 0 0 1 3 13 83 18 19 39 2 4 5 4 0 0
98 85 8 5 4 0 0 0 2 5 1 3 1 2 5 5 5 68 6 6 6 22 47 2 5 6 27 9 5 0 0 0 6 46 54 14 59 99 27 24 76 3 5
5 4 2 5 3 3 4 5 5 5 5 5 3 5 7 60 21 65 88 70 89 90 81 99 5 66 69 90 50 5 1 0 0 0 19 46 46 100 100 98 98 4 5
5 2 4 5 5 5 7 32 5 27 18 5 48 74 100 78 6 28 29 16 31 4 5 47 92 97 100 92 94 99 52 5 1 0 0 4 80 60 100 100 99 74 26
5 5 5 5 60 96 5 5 5 48 98 98 98 6 12 10 1 5 54 96 27 5 4 5 77 95 76 97 95 92 85 5 5 1 0 0 70 100 58 100 100 100 84
7 5 26 77 89 54 17 87 77 100 38 32 97 10 1 4 5 5 5 5 6 5 2 0 3 9 88 92 100 99 99 42 5 5 3 0 0 11 86 66 100 86 100
5 5 29 4 8 65 95 93 98 100 87 7 5 5 0 5 5 5 5 5 5 5 42 3 0 1 1 4 78 96 93 46 5 5 0 3 1 1 21 100 100 100 100
0 0 2 71 89 88 100 99 70 85 89 14 25 0 5 5 5 5 5 4 4 4 5 4 5 1 0 0 6 51 71 88 5 5 5 3 5 0 4 39 100 100 94
0 0 5 100 100 98 23 98 22 59 86 87 72 5 5 5 5 3 5 5 5 5 9 84 5 5 5 0 88 64 1 16 80 5 4 5 5 5 5 17 100 100 100
5 5 73 75 100 6 80 32 87 78 99 18 5 5 5 5 5 5 5 5 5 5 13 100 62 24 5 5 16 95 12 0 0 0 5 1 2 22 68 90 100 100 100
2 4 72 100 100 100 100 100 96 80 5 5 5 5 5 5 5 8 46 77 79 32 80 97 76 27 96 5 95 92 65 5 2 0 0 1 1 5 100 98 100 100 100
6 98 54 94 95 100 100 88 16 5 5 5 5 25 43 52 98 100 100 100 100 100 100 100 96 87 80 99 100 100 100 77 5 0 0 0 3 44 38 100 100 100 100
100 100 100 99 57 17 6 46 5 5 5 5 6 5 5 5 17 100 76 100 100 100 100 100 89 99 45 84 100 100 100 98 67 5 5 4 4 76 98 66 100 100 100
98 75 89 5 5 6 14 5 6 5 5 5 5 5 22 71 30 50 48 93 100 100 100 98 100 100 97 100 100 100 100 100 10 5 5 5 5 5 97 100 100 100 100
83 16 38 45 34 5 5 5 5 5 5 5 5 8 71 80 47 99 98 100 100 100 100 100 100 90 70 100 100 100 75 99 59 52 46 91 32 5 5 93 100 100 100
98 99 99 7 5 26 5 5 5 5 5 5 5 5 99 100 74 100 100 100 100 100 100 100 100 100 84 100 100 100 99 100 78 74 18 83 15 5 5 5 19 100 100
53 9 81 48 51 5 3 5 44 36 30 46 14 33 24 100 100 100 100 100 100 100 100 100 100 98 83 86 66 29 5 100 100 100 21 36 5 5 5 7 22 5 55

GFSMA_prec_cloud_027.txt.gz
Cloud_Cover
55 47 5 5 5 5 5 4 5 5 5 0 0 0 0 0 0 0 0 0 0 0 0 0 0 0 0 0 0 0 0 0 0 5 61 100 100 100 100 100 100 100 100
5 5 5 5 5 5 5 4 2 5 0 0 0 0 0 0 0 0 0 0 2 0 0 0 0 0 0 0 0 7 0 0 0 0 46 70 100 100 100 100 100 100 100
49 19 6 46 92 22 5 82 5 6 0 0 0 0 0 0 0 0 0 0 0 0 0 0 0 0 0 0 0 0 8 17 0 0 0 79 100 100 100 100 100 100 100
100 99 100 89 89 48 100 17 4 1 5 5 5 7 6 5 4 0 0 0 0 0 0 1 0 0 0 0 0 0 0 4 33 5 0 1 5 83 100 100 100 100 100
100 77 35 50 26 3 3 5 14 26 56 65 6 5 65 7 5 0 0 0 0 1 0 5 5 5 2 0 0 0 0 0 29 100 76 0 3 13 58 100 100 100 100
82 5 3 0 3 5 6 74 84 70 11 5 4 4 2 3 0 0 0 0 0 5 5 5 5 5 5 5 0 0 0 0 0 72 100 95 30 10 98 92 100 100 100
0 0 4 5 5 4 2 1 3 1 1 2 0 0 0 0 0 1 5 5 15 21 12 5 5 5 5 6 5 0 0 0 0 0 8 100 98 11 0 50 34 84 100
0 0 2 1 5 5 5 4 0 0 0 0 0 0 0 0 5 4 4 5 5 5 4 5 5 5 5 5 0 0 0 0 46 0 0 1 42 53 0 0 8 20 5
2 37 65 11 5 4 4 4 5 5 1 2 1 3 2 1 5 0 1 3 5 5 4 3 5 5 5 5 4 1 1 0 0 0 0 0 10 60 20 7 0 1 5
4 5 5 5 5 5 5 3 0 0 3 0 2 5 5 5 5 5 64 80 50 5 5 5 5 16 46 56 6 4 0 0 0 0 0 1 13 100 99 14 5 0 0
28 10 5 5 3 0 0 5 5 5 5 2 5 5 5 5 76 99 82 68 30 58 46 71 12 10 22 75 5 5 5 5 0 0 0 15 100 100 100 65 7 0 0
0 0 0 0 0 5 5 5 5 44 5 5 4 5 2 5 5 44 65 62 5 5 5 5 14 29 16 58 94 10 5 5 5 4 0 0 33 100 100 100 97 87 28
0 0 4 5 7 6 83 5 5 5 5 5 5 5 1 1 1 2 5 66 82 5 4 5 4 5 23 19 10 100 99 70 5 5 4 0 1 90 80 87 100 100 100
8 44 30 24 5 58 3 5 5 6 62 56 51 77 7 2 0 0 5 40 62 24 5 5 0 0 5 5 5 27 97 100 100 70 5 5 0 0 95 83 100 100 100
76 7 5 5 0 0 9 96 5 37 50 75 5 3 3 3 0 5 5 75 98 72 5 2 0 1 5 5 5 4 4 97 100 100 78 99 11 0 0 49 82 75 78
5 5 4 3 5 5 79 94 27 75 25 30 5 5 5 5 5 5 34 89 85 58 5 5 4 5 5 5 5 4 1 4 42 61 92 100 100 5 0 1 32 44 5
5 5 5 5 3 5 41 14 21 13 63 48 5 5 5 5 23 98 100 96 95 96 93 5 73 50 10 44 26 7 5 5 5 9 5 23 100 95 5 0 0 4 98
3 5 5 5 5 78 25 44 5 52 99 15 5 5 5 67 87 100 100 100 100 100 100 100 90 100 100 100 100 100 98 93 99 18 0 5 5 86 72 5 0 2 48
5 5 10 46 52 55 99 83 94 99 66 59 5 5 5 72 60 66 100 100 100 100 100 100 100 100 100 100 100 100 100 100 100 5 1 0 3 1 5 5 5 4 5
31 35 28 92 8 98 87 100 100 66 22 5 5 5 5 11 25 92 100 100 100 100 100 100 100 100 100 100 100 100 100 100 100 100 22 0 0 0 0 4 7 11 5
16 44 98 100 98 100 54 37 5 5 5 4 5 3 5 8 69 99 100 100 100 100 100 100 100 100 100 100 100 100 100 100 87 100 90 21 5 3 5 5 4 92 5
27 66 43 76 95 69 64 5 5 5 5 3 0 5 5 6 96 100 100 98 96 100 100 100 100 100 100 100 100 100 100 100 99 100 100 94 43 5 13 76 77 17 63
5 5 71 6 62 18 5 5 5 5 5 4 5 10 42 100 100 100 100 99 99 100 100 100 100 100 100 100 100 100 100 100 100 100 100 99 98 15 5 15 100 100 100
5 5 16 35 5 5 5 5 5 5 5 5 9 84 100 100 100 100 100 100 100 100 100 100 100 100 100 100 100 100 100 100 100 100 99 99 99 99 75 5 90 79 100
5 5 5 5 14 5 5 5 5 5 24 35 93 100 100 100 100 100 100 100 100 100 100 97 71 67 100 95 100 100 100 100 100 100 100 100 100 100 100 56 5 100 96
5 5 5 7 27 5 4 5 5 90 100 94 100 40 86 100 100 100 100 100 100 100 100 95 100 99 100 100 100 99 100 100 100 100 100 100 100 100 100 8 3 0 94

GFSMA_prec_cloud_030.txt.gz
Cloud_Cover
36 67 10 52 100 91 12 7 40 5 5 2 0 0 0 0 0 0 0 0 0 0 0 0 0 0 0 0 0 0 0 0 0 0 0 4 88 100 100 100 100 100 100
100 100 100 100 66 5 46 100 71 41 22 2 0 0 0 0 0 0 0 0 0 0 0 5 2 0 0 0 0 0 0 0 1 0 1 0 0 96 100 100 100 100 100
100 100 100 100 100 100 100 100 85 5 3 0 2 0 3 1 0 0 0 0 0 0 0 0 1 5 2 0 0 0 0 0 0 34 6 0 2 4 94 100 100 100 100
100 100 100 100 100 98 100 100 100 19 0 2 5 5 6 5 5 4 0 0 0 0 0 0 0 3 5 5 0 0 0 0 0 0 23 34 13 0 10 97 100 100 100
100 100 100 100 100 100 100 100 21 0 0 0 5 24 85 75 12 5 2 2 0 0 0 0 0 0 0 0 0 2 1 0 0 0 3 22 58 59 7 54 100 100 100
100 100 100 100 100 100 76 14 0 0 0 0 4 5 4 3 1 4 1 1 2 5 4 2 2 4 4 0 0 0 0 0 0 0 0 2 44 85 99 13 91 100 100
100 100 98 24 1 0 2 2 0 0 0 3 3 0 1 4 25 32 87 86 87 90 82 40 5 5 2 4 5 5 0 0 0 4 0 0 0 21 87 19 7 66 100
78 0 0 2 0 0 1 3 6 10 5 5 5 5 4 3 2 93 28 5 5 10 5 5 5 5 9 5 5 5 5 25 0 0 0 4 0 0 7 70 23 1 25
0 1 0 0 4 16 44 20 12 5 5 5 5 5 7 3 5 4 72 76 82 5 12 5 5 6 16 58 64 48 67 5 0 0 1 3 5 2 4 99 92 55 6
4 0 1 1 1 1 0 0 4 5 5 5 5 6 77 82 94 71 95 97 99 5 4 3 30 5 5 82 100 100 69 5 1 5 0 5 5 6 93 100 70 48 44
5 4 0 0 0 0 0 4 5 6 5 6 5 16 98 100 100 100 98 100 26 64 76 39 5 5 47 27 84 100 100 74 6 5 26 14 4 2 100 100 100 96 60
5 3 0 0 2 5 3 30 71 76 100 93 96 100 100 100 100 100 100 80 10 3 50 65 58 52 6 5 64 60 17 6 36 84 5 5 2 0 19 100 100 68 100
5 4 3 5 5 5 6 57 82 36 81 86 95 100 100 100 100 100 100 100 97 5 6 78 86 92 84 22 5 18 86 4 5 6 71 5 5 4 0 21 100 100 100
4 5 5 5 5 24 85 84 91 34 99 88 95 100 100 100 100 100 100 100 91 63 26 54 34 7 5 57 83 2 6 17 5 5 5 67 30 19 5 0 10 100 100
21 5 5 5 5 5 36 89 46 70 84 100 100 100 100 100 100 100 100 100 100 88 14 26 21 81 82 99 100 77 48 19 5 5 2 6 5 60 100 9 1 2 73
5 5 5 6 5 5 46 34 88 95 87 100 100 100 100 100 100 100 100 100 100 100 85 65 98 100 100 100 100 100 99 24 4 0 1 1 57 68 43 98 13 0 0
5 5 5 5 5 13 90 99 85 82 100 100 100 100 100 100 100 100 100 100 100 100 99 9 100 100 100 100 100 100 99 100 100 61 12 12 2 41 40 100 100 9 0
10 5 5 5 38 100 98 92 86 100 99 100 100 100 100 99 100 99 100 100 100 100 100 100 100 100 100 100 100 100 100 100 100 100 100 100 5 0 5 83 100 100 5
8 32 85 75 98 100 52 96 92 99 100 96 100 96 73 21 5 5 25 96 100 100 100 100 100 100 100 100 100 100 95 100 100 100 47 10 6 0 0 8 100 100 72
34 6 28 13 10 80 98 89 86 80 100 99 79 8 5 5 5 5 26 100 100 100 100 100 100 100 100 100 100 100 100 98 100 100 100 96 85 17 0 2 44 100 100
44 10 69 73 41 84 73 85 89 100 78 35 5 4 4 4 5 55 95 98 100 100 100 100 100 100 100 100 100 100 100 100 100 100 100 100 100 96 89 16 3 25 62
61 84 80 86 85 82 5 5 5 5 5 5 5 0 5 5 93 74 100 96 88 100 100 100 100 100 100 100 100 100 100 100 100 100 100 100 100 100 100 100 99 5 5
93 91 100 99 91 99 5 5 5 5 5 5 5 5 5 44 100 100 100 100 100 100 100 100 100 100 100 100 100 100 100 100 100 100 100 100 100 100 100 100 20 5 67
100 100 100 93 91 75 5 5 3 4 6 5 9 16 74 68 99 72 100 100 100 100 100 100 100 100 100 100 100 100 100 100 100 100 100 100 100 100 98 85 54 2 5
100 98 100 94 85 99 5 5 0 6 89 82 74 88 52 5 78 88 100 100 100 100 100 100 96 100 36 9 70 88 100 100 100 100 100 100 100 100 61 100 100 25 5
71 73 90 70 31 34 6 5 5 24 95 97 83 96 73 5 6 100 98 100 100 100 100 100 100 100 100 100 75 99 100 100 100 100 100 100 100 100 92 80 100 96 6

GFSMA_prec_cloud_033.txt.gz
Cloud_Cover
100 100 100 78 69 88 41 6 56 95 100 98 76 100 60 38 4 0 0 0 0 1 0 0 0 0 0 0 0 0 0 0 0 7 2 0 0 84 100 100 100 100 100
100 100 100 86 88 100 100 100 84 100 100 87 93 49 25 98 5 5 5 0 0 0 0 0 0 0 0 0 0 0 0 0 0 0 5 5 10 5 100 100 100 100 100
100 100 100 100 100 100 100 100 100 100 100 100 100 100 100 42 5 48 86 7 0 0 0 0 0 0 0 0 0 0 0 0 0 0 0 1 3 31 91 100 100 100 100
100 100 100 100 100 100 100 100 91 99 96 100 100 99 5 0 3 7 4 5 19 3 0 3 0 0 0 0 0 0 0 0 0 0 0 0 0 9 60 100 100 100 100
100 100 89 71 88 58 47 100 86 63 98 46 2 26 5 5 5 2 0 10 14 17 10 1 5 2 0 0 0 0 0 3 1 4 0 0 11 2 3 82 100 100 100
100 100 100 100 85 94 99 79 56 6 2 0 0 0 0 0 0 5 7 38 84 68 74 77 46 36 15 1 0 1 5 4 5 28 8 59 2 12 4 0 57 100 100
100 100 100 100 100 100 100 100 7 0 0 0 0 0 0 0 3 5 5 99 75 59 23 93 61 76 79 98 90 46 5 1 100 69 70 5 5 1 0 0 0 17 100
2 5 5 4 25 3 0 0 2 3 0 3 3 5 5 5 5 4 39 50 71 65 93 82 58 97 98 87 99 100 84 30 5 1 4 5 5 5 2 0 0 0 100
5 5 5 5 5 0 0 4 5 4 5 5 6 5 5 2 14 5 3 24 61 38 28 40 15 76 98 13 36 83 33 5 5 3 47 95 26 18 5 2 3 50 100
15 20 5 2 0 3 1 5 5 5 5 9 12 42 30 35 84 5 72 12 49 67 32 10 32 50 31 11 93 27 15 5 5 4 2 98 100 100 99 7 95 50 100
7 5 4 4 2 5 5 5 8 54 5 27 62 58 31 7 8 97 100 99 30 56 77 65 52 5 24 24 12 21 100 78 5 5 5 5 53 100 100 54 71 54 98
38 16 5 4 5 5 5 5 62 5 96 20 97 96 82 89 90 68 100 100 76 7 75 46 6 33 17 21 31 86 5 10 4 32 18 5 5 5 28 4 2 64 100
42 77 5 5 5 5 5 5 20 11 38 35 82 98 100 75 100 100 100 99 86 5 12 93 36 44 56 88 31 7 6 5 53 51 35 5 5 5 5 5 2 3 48
100 6 5 5 5 5 5 5 62 93 54 15 96 82 90 45 98 98 100 51 7 8 62 94 97 27 82 94 59 9 11 5 5 87 61 66 5 2 1 5 5 5 0
5 5 5 5 5 5 5 5 38 78 96 98 100 75 74 35 93 99 100 100 100 6 8 98 56 90 100 73 62 40 6 34 5 5 5 4 5 5 0 0 4 5 5
7 5 5 5 5 5 5 5 53 21 66 67 64 89 53 97 94 100 100 84 100 35 5 98 93 100 93 93 96 75 58 13 15 5 5 5 1 1 0 0 4 5 64
5 5 5 5 5 5 5 5 5 21 36 78 100 45 91 100 79 95 96 95 100 100 73 1 23 97 100 92 83 81 87 74 29 96 19 27 78 7 36 1 0 5 85
5 5 5 5 5 7 5 55 95 100 78 83 98 81 100 100 97 21 48 16 5 5 78 93 11 100 100 100 89 100 100 100 69 100 100 66 39 100 70 5 0 2 51
5 5 5 5 6 16 74 83 99 84 92 95 96 59 98 25 9 14 27 5 10 64 100 85 40 91 97 100 99 100 97 98 100 99 98 100 23 72 96 4 0 0 60
9 8 5 39 47 83 96 100 100 100 96 88 97 49 21 40 25 6 5 23 81 100 100 100 90 100 100 87 100 97 95 68 100 99 100 85 100 86 83 89 0 0 14
92 5 66 70 99 100 100 100 74 98 67 15 15 5 40 10 0 3 5 92 100 100 100 100 100 99 98 99 94 99 100 100 90 89 98 97 96 89 87 77 33 4 2
56 100 97 99 100 94 39 21 24 5 5 5 5 5 43 31 86 23 80 95 67 100 100 100 100 100 100 100 100 100 100 100 92 100 100 90 100 100 100 100 100 100 100
100 100 100 100 100 100 80 99 80 5 5 18 53 59 36 38 100 72 59 63 100 98 81 76 93 100 100 100 98 97 100 100 100 100 98 98 100 100 100 100 100 5 28
100 100 100 100 100 95 100 38 5 3 5 62 92 86 79 85 93 5 5 95 99 99 100 91 100 98 97 100 100 96 82 53 76 83 93 78 100 100 100 62 10 1 0
100 100 100 100 100 100 54 5 5 5 22 75 95 86 68 67 34 0 5 51 61 92 100 97 27 39 5 16 37 90 99 100 100 97 100 96 91 100 96 64 5 2 5
100 100 100 100 99 98 5 5 5 5 62 92 93 79 100 5 5 5 5 54 84 94 30 61 90 99 100 100 99 100 100 100 100 95 100 97 100 100 100 58 63 10 5

GFSMA_prec_cloud_036.txt.gz
Cloud_Cover
100 100 100 79 96 79 46 5 10 55 86 100 100 100 100 100 100 100 66 2 94 5 5 5 0 0 0 0 0 0 0 0 0 0 0 25 20 32 70 100 100 100 100
100 100 100 99 95 100 71 63 100 100 80 100 100 100 97 100 0 12 0 4 4 1 0 5 4 3 0 0 0 0 0 0 0 0 0 0 3 28 73 31 100 100 100
100 100 100 92 90 100 100 100 100 100 100 100 98 8 3 1 5 17 78 2 0 4 5 5 5 5 0 0 0 2 2 0 0 0 0 0 0 11 52 100 99 100 100
70 88 87 100 100 100 100 100 100 87 18 87 100 100 99 89 14 0 0 0 0 3 2 3 5 3 3 0 2 5 5 5 8 2 1 0 1 5 37 92 100 100 100
100 100 100 100 98 81 100 100 100 100 100 100 2 3 7 12 0 0 0 0 4 19 41 7 34 5 5 4 3 5 5 32 5 42 100 64 1 0 2 7 19 100 100
93 94 100 98 58 71 84 97 50 32 19 0 0 0 0 0 2 3 3 44 7 75 100 80 6 5 5 5 5 13 94 85 68 100 100 78 14 5 2 0 0 3 82
0 0 0 0 0 0 0 0 0 0 0 0 0 0 0 2 5 0 0 1 5 61 100 77 5 5 5 2 5 9 80 52 5 4 86 27 73 55 5 2 0 0 0
5 5 0 3 1 5 3 0 0 0 0 0 0 0 1 2 0 0 0 0 5 69 94 92 13 24 5 5 0 0 87 19 37 5 5 5 100 100 98 24 3 0 0
5 0 4 5 5 5 4 0 0 0 3 0 0 0 0 0 2 0 1 0 1 2 3 0 5 45 22 3 0 1 11 72 5 5 5 5 6 100 100 100 47 2 5
2 5 5 5 5 5 0 0 0 2 0 3 4 5 0 4 5 5 2 0 1 5 5 5 2 0 0 0 0 5 4 2 4 0 5 69 28 99 94 95 100 100 100
5 5 3 5 5 5 2 3 2 21 78 34 5 5 3 3 33 12 0 0 0 0 0 5 4 5 5 0 5 5 5 89 7 5 0 0 5 95 100 100 100 100 100
74 6 5 5 5 0 0 1 3 6 5 4 5 5 10 64 100 88 40 3 5 0 0 0 0 0 5 24 5 95 100 67 90 55 4 0 3 84 99 100 100 100 100
89 5 5 29 4 0 0 2 5 5 5 10 5 5 84 11 100 100 92 5 5 0 0 0 0 0 1 5 5 11 29 1 0 0 0 0 1 4 85 99 97 99 84
37 5 41 8 5 5 5 5 5 5 81 71 75 12 77 100 100 49 67 71 11 2 1 0 0 0 0 5 18 10 2 4 5 1 0 0 0 2 5 62 12 14 9
86 5 5 12 40 5 5 5 5 5 36 32 55 70 100 100 99 78 61 92 100 29 5 5 3 5 46 62 5 4 5 4 0 0 0 0 0 0 5 5 5 5 5
15 10 60 100 78 45 7 5 5 13 5 8 5 60 79 100 59 5 76 70 99 100 68 3 5 28 9 2 0 0 5 0 0 0 1 1 2 3 5 5 5 5 5
69 39 99 100 100 100 51 20 78 5 5 31 90 100 100 80 68 70 15 80 53 21 5 0 0 0 5 3 0 0 0 0 0 5 28 5 57 68 5 12 73 5 5
94 100 100 100 100 98 79 100 64 62 74 100 100 36 45 82 81 65 7 0 0 0 0 3 5 5 5 2 5 5 9 4 4 5 5 5 9 96 60 22 100 93 6
100 100 100 69 98 100 100 88 32 9 93 100 80 5 27 41 5 0 3 5 0 2 5 5 5 5 5 5 6 55 9 5 10 5 26 38 64 81 100 100 100 100 10
100 100 93 97 100 100 88 87 88 100 100 60 100 99 52 2 4 5 4 0 1 5 5 5 5 5 5 22 75 13 39 5 5 5 5 5 54 17 98 90 61 20 5
100 100 100 100 83 83 88 100 100 100 51 98 60 5 5 5 5 4 4 4 5 5 5 5 5 8 5 5 5 50 46 91 5 5 20 5 19 94 48 95 93 31 90
100 100 98 71 100 87 100 100 100 42 99 5 0 5 5 5 56 56 5 5 5 27 5 6 10 76 44 99 82 55 5 5 31 7 38 1 47 5 70 100 100 100 100
100 100 100 100 100 99 100 100 100 96 22 60 5 5 5 8 5 5 4 0 0 4 73 100 100 100 95 98 36 5 5 5 5 4 5 1 40 5 100 100 100 100 6
100 100 100 100 100 99 100 100 100 53 97 0 5 5 5 14 5 1 0 0 0 5 5 39 92 62 31 5 5 63 8 26 5 62 98 44 5 5 14 68 100 20 66
100 100 100 100 100 100 100 100 95 100 5 4 5 5 30 6 5 5 5 3 5 4 4 15 5 5 5 59 91 98 75 98 83 32 98 98 65 16 61 17 84 6 8
100 100 100 100 100 100 100 100 55 7 5 5 5 5 5 5 5 5 4 5 5 5 4 1 5 5 11 89 99 97 86 92 96 60 100 100 90 66 87 100 87 98 19

GFSMA_prec_cloud_039.txt.gz
Cloud_Cover
100 100 100 100 100 100 100 100 95 78 100 100 100 100 80 100 100 100 100 41 4 47 10 5 5 5 0 0 0 0 0 0 0 0 0 0 0 21 100 100 100 100 100
100 100 100 100 100 85 100 100 38 63 98 93 95 100 100 100 100 100 54 44 100 99 2 5 39 1 0 0 0 0 3 0 0 0 0 0 0 0 20 100 100 100 100
100 100 100 100 100 100 100 100 97 80 95 8 42 5 5 96 80 48 73 10 4 0 3 5 0 0 0 0 0 1 5 5 5 3 3 11 3 69 4 15 95 100 100
88 98 100 94 36 10 26 4 37 4 2 4 18 56 8 2 2 0 0 0 0 0 0 3 5 5 5 5 0 0 5 22 98 100 96 97 100 3 0 0 0 99 100
79 65 63 5 5 4 0 1 0 0 0 0 0 0 0 0 0 0 0 0 1 5 12 35 43 69 21 5 5 4 5 5 100 55 100 100 100 23 1 1 0 37 100
95 100 17 5 5 1 0 0 0 0 0 0 0 0 0 0 0 0 0 0 5 5 5 33 87 70 57 56 5 5 1 12 100 100 100 89 75 26 97 5 1 2 18
100 88 5 0 0 0 0 0 0 0 0 0 0 0 0 0 0 0 0 0 0 5 46 88 99 83 81 89 18 5 3 0 2 66 100 91 5 4 100 100 82 5 4
5 5 5 0 0 0 0 1 0 0 0 0 0 0 0 0 0 0 0 0 0 0 3 5 78 99 88 47 5 0 0 0 0 1 3 6 2 4 14 100 96 99 14
2 5 5 0 0 0 0 5 0 0 0 0 0 0 0 0 4 5 5 5 2 0 0 0 0 4 5 0 0 0 0 0 0 0 5 5 5 81 98 100 99 20 94
4 5 4 4 5 0 0 3 0 0 0 0 0 5 5 5 5 5 5 5 4 0 0 0 0 0 3 0 0 0 0 0 3 2 5 4 19 100 96 100 100 100 88
3 5 24 91 75 5 2 3 5 5 1 5 4 26 26 5 0 5 5 2 3 5 4 0 0 0 0 0 0 0 4 5 5 5 5 5 36 94 100 100 100 100 97
75 66 22 17 11 7 0 0 0 0 0 1 0 4 4 5 14 66 24 5 5 4 0 0 0 0 0 0 0 0 0 0 0 2 3 5 5 5 5 70 100 100 96
58 70 92 90 94 39 4 4 4 6 5 4 5 58 88 91 91 23 15 71 50 1 0 0 0 0 2 2 0 0 1 2 1 0 0 0 5 5 5 27 100 100 100
100 60 100 100 85 84 45 34 54 80 74 8 5 43 94 35 86 60 100 100 50 5 5 4 0 0 5 5 5 5 5 4 0 0 0 0 2 5 5 5 74 100 100
100 100 99 100 100 47 71 98 75 80 84 100 99 34 98 79 100 85 98 100 100 91 7 4 5 5 4 2 2 1 0 0 0 0 2 5 0 4 5 7 98 97 100
100 100 100 79 100 48 100 96 100 99 100 96 36 6 80 71 91 100 100 100 100 85 7 5 3 2 0 0 0 0 0 0 0 0 0 0 0 5 5 5 33 69 97
100 100 100 100 90 88 100 36 98 91 86 42 81 97 96 97 100 100 95 27 23 27 5 0 0 0 0 0 0 0 0 0 1 1 0 0 1 1 3 5 5 5 5
100 100 97 97 98 70 100 72 81 100 100 100 100 79 75 97 91 99 66 88 0 0 0 0 0 0 0 0 0 0 0 1 5 5 5 6 40 97 100 99 100 100 100
100 100 99 100 97 40 100 87 90 100 100 100 100 100 100 100 100 100 75 0 0 0 0 3 1 0 0 0 0 0 1 2 5 3 5 5 0 0 7 93 5 83 100
94 86 100 100 91 99 100 100 100 100 100 100 100 100 99 100 100 23 0 0 0 0 3 5 5 4 5 2 5 5 25 5 2 0 2 2 5 5 3 5 7 63 99
79 98 95 100 100 100 100 100 100 100 98 95 99 100 100 55 14 5 0 0 0 5 5 5 5 5 5 5 97 94 14 4 5 0 0 5 0 0 1 5 5 8 99
100 100 100 100 100 69 100 100 100 96 39 99 100 83 15 7 0 1 5 5 5 5 5 5 64 20 7 99 84 5 5 5 61 0 5 4 2 1 0 0 5 87 100
100 100 100 100 100 100 100 100 100 100 100 100 100 76 7 16 33 5 5 5 0 0 0 4 5 78 100 97 54 5 5 28 92 31 82 45 5 5 1 0 45 100 100
100 100 100 100 100 100 100 100 100 100 100 100 100 34 75 7 5 5 5 2 0 0 0 3 83 23 18 45 89 98 80 97 48 5 80 95 5 5 5 5 11 100 100
100 100 100 100 100 100 100 100 100 100 100 100 24 43 3 5 5 5 5 5 4 0 0 3 0 5 5 11 85 100 100 88 78 7 29 100 9 5 5 5 22 24 100
100 100 100 100 100 100 100 100 100 100 73 98 93 3 5 5 5 5 5 5 7 1 2 2 0 3 5 5 23 69 97 98 100 77 99 100 47 96 25 19 86 91 100

GFSMA_prec_cloud_042.txt.gz
Cloud_Cover
100 100 93 100 100 88 100 100 100 100 100 100 100 53 10 4 3 2 2 2 9 2 0 2 11 70 89 98 82 2 2 0 0 0 0 0 0 78 100 75 83 100 100
100 100 100 98 100 100 100 100 100 100 100 81 37 12 1 0 0 0 0 0 0 0 0 0 2 1 0 0 0 0 0 3 0 0 0 2 0 0 1 13 6 10 100
100 100 100 100 100 100 100 100 100 26 12 13 4 5 0 0 0 0 0 0 0 0 0 0 4 4 5 5 3 2 2 5 1 5 5 5 4 1 5 8 0 0 100
100 100 100 100 100 100 100 93 76 6 18 5 4 0 0 0 0 0 0 0 0 0 0 5 5 5 27 61 87 48 7 5 4 8 34 33 7 37 4 0 2 0 67
100 100 100 100 100 100 100 100 17 5 3 1 0 0 0 0 0 0 0 0 0 1 5 5 5 5 5 94 98 78 30 5 5 5 10 20 88 100 75 1 0 53 12
100 100 100 100 84 66 41 6 5 0 0 0 0 0 0 0 0 0 0 0 0 1 4 5 8 7 5 5 5 5 5 5 9 6 2 26 100 33 2 2 4 87 100
100 100 94 100 71 5 4 2 0 0 0 0 0 0 0 0 0 0 0 0 0 0 0 4 10 22 54 77 5 5 5 3 2 0 1 4 5 5 2 0 1 66 100
65 32 21 31 5 5 0 2 0 0 2 0 0 0 0 4 5 5 5 5 5 1 2 0 0 0 0 0 0 0 0 0 0 0 5 5 11 98 25 9 30 25 100
44 90 24 1 4 6 49 76 14 5 5 0 0 0 0 0 4 5 5 5 5 5 5 5 0 0 0 0 0 0 0 0 0 0 0 3 9 87 100 100 100 24 90
12 0 5 5 5 66 10 59 97 60 81 8 3 0 0 3 5 5 5 5 5 5 4 0 0 0 0 0 0 0 0 0 0 0 0 4 5 63 98 100 100 100 100
1 5 5 5 16 70 91 100 100 98 95 59 6 0 1 5 5 5 5 5 5 4 2 5 5 5 3 0 0 0 0 0 0 0 0 5 5 51 100 100 100 100 100
5 5 5 7 98 15 88 75 46 82 85 18 5 5 5 5 5 6 23 5 5 3 5 5 5 62 44 2 0 0 0 0 0 0 0 5 5 5 62 100 100 100 100
11 100 100 100 72 93 97 90 26 6 12 41 5 5 5 5 5 47 30 15 70 71 80 100 100 47 4 0 0 0 0 0 0 0 5 5 3 5 5 44 100 100 100
100 100 100 100 100 100 99 100 99 56 55 51 5 5 5 5 5 6 66 93 99 14 15 9 1 5 5 4 0 5 4 1 0 0 0 0 5 5 19 80 100 100 100
100 100 100 100 100 92 100 100 88 59 5 6 72 53 83 92 65 79 87 98 100 91 5 5 5 5 5 2 0 0 0 0 0 0 0 0 5 23 100 100 100 100 100
100 87 100 100 100 99 100 80 92 12 85 59 12 36 26 67 85 100 100 100 100 94 14 5 4 0 0 0 0 0 0 0 0 0 0 5 4 5 23 79 56 85 99
100 100 100 94 84 67 44 94 86 88 65 46 97 100 82 93 100 100 100 100 100 100 50 5 0 0 0 0 0 0 0 0 0 0 4 5 5 3 5 5 5 5 5
100 100 100 95 95 99 100 98 99 68 100 100 100 99 100 100 100 100 100 100 100 96 8 0 0 0 0 0 0 2 0 0 0 0 5 5 1 5 5 6 48 14 5
54 69 46 92 88 95 100 100 100 84 90 97 99 100 100 100 100 100 100 100 100 24 2 3 2 0 0 0 0 1 5 5 0 0 0 0 0 0 5 4 5 1 4
71 73 99 84 89 95 100 100 100 95 100 100 100 100 100 100 100 100 100 100 31 2 0 5 3 4 5 4 5 5 36 5 0 0 0 0 3 3 1 0 0 0 4
89 100 96 100 100 100 100 100 100 100 100 100 100 100 100 100 100 100 100 66 14 3 5 5 5 5 5 5 24 5 33 5 2 1 5 5 5 0 0 1 0 0 2
100 100 100 100 100 100 100 100 100 100 100 100 100 100 100 100 100 100 74 5 5 5 5 5 5 5 5 96 5 5 6 45 86 5 88 5 36 5 5 5 5 1 5
100 100 100 100 100 100 100 100 100 100 100 100 100 100 100 100 5 5 5 5 5 4 0 5 7 5 41 4 29 63 81 97 98 23 18 76 5 5 5 5 4 1 5
100 100 99 100 100 100 100 100 100 100 100 100 100 99 94 6 1 5 5 5 5 5 0 0 5 4 2 67 96 100 100 98 41 5 5 92 70 5 5 5 4 45 5
81 23 46 81 100 100 100 100 100 100 100 99 26 97 94 5 0 5 5 5 33 11 2 0 4 5 5 5 30 98 72 94 89 79 100 71 93 51 5 5 5 7 48
16 98 100 99 83 34 5 5 86 14 44 82 69 20 5 1 5 5 5 5 100 43 5 1 0 0 0 3 4 19 94 100 100 58 99 82 15 100 54 6 29 5 5

GFSMA_prec_cloud_045.txt.gz
Cloud_Cover
100 100 99 100 100 100 100 90 100 10 14 17 92 100 33 5 1 2 0 4 0 0 0 3 0 25 0 0 0 0 0 0 0 0 0 0 0 0 0 0 0 2 0
100 100 100 34 95 61 26 76 100 100 100 100 100 99 76 5 5 4 0 0 0 0 8 0 0 9 6 25 7 5 5 4 3 1 0 0 0 0 0 0 0 0 0
100 100 100 100 100 63 100 97 100 100 100 100 100 64 36 12 5 0 0 0 0 0 0 0 0 5 5 5 5 5 5 4 3 5 4 12 5 2 5 0 2 2 0
100 100 100 100 100 100 100 100 100 100 94 100 19 6 5 2 0 0 0 0 0 0 0 4 5 5 5 5 5 5 5 5 5 13 24 5 5 5 5 5 0 2 78
100 100 100 100 100 100 100 100 100 89 27 23 43 5 0 0 0 0 0 0 0 0 0 2 5 5 5 5 5 5 5 5 5 43 28 3 2 5 5 2 1 0 2
100 100 100 100 100 100 100 66 36 52 18 28 4 0 0 0 0 0 0 0 0 0 0 0 1 0 4 5 5 5 2 4 5 5 5 5 5 5 5 0 0 0 0
100 100 100 100 100 16 97 100 100 85 5 0 5 5 5 29 3 1 0 0 0 0 0 0 0 0 0 0 0 0 0 0 2 5 5 5 5 5 5 0 0 0 5
99 99 74 42 46 100 100 100 34 2 5 5 5 80 86 91 99 85 5 5 5 1 2 0 0 0 0 0 0 0 0 0 0 0 0 1 5 5 5 94 10 11 5
96 72 99 97 100 55 14 3 4 7 5 5 96 45 5 5 5 5 5 5 5 5 5 5 2 2 5 0 0 0 0 0 0 0 3 5 5 5 6 8 98 73 67
100 100 61 12 5 5 5 23 5 6 5 54 100 100 96 49 5 4 5 5 5 5 5 5 5 5 2 0 0 1 0 0 0 0 0 5 5 5 13 11 9 93 96
5 5 5 5 15 58 55 81 99 100 81 100 95 100 100 34 5 5 5 5 5 14 5 5 5 5 5 5 5 5 5 5 0 0 0 1 5 5 5 78 48 81 100
4 5 40 88 97 58 100 100 29 31 96 92 99 76 98 57 7 5 5 5 5 5 5 77 91 96 89 5 51 23 5 5 2 0 0 5 5 5 5 55 67 58 78
10 35 90 98 96 86 100 99 41 99 84 62 78 68 68 99 99 62 51 5 43 78 61 29 22 97 100 89 100 64 5 5 5 3 0 0 5 3 5 5 5 5 55
87 99 80 78 100 100 99 100 100 98 78 93 25 93 99 100 93 81 36 98 100 100 70 82 100 94 100 100 92 5 1 0 0 0 0 5 5 5 5 31 60 97 99
100 100 100 95 100 98 100 100 100 68 73 84 99 100 100 100 100 100 100 100 100 99 95 86 78 100 52 60 16 1 0 0 1 5 5 5 25 78 94 100 100 100 100
100 81 92 100 100 100 100 100 97 99 92 99 98 100 100 100 100 100 100 100 100 100 100 92 70 74 97 8 5 1 0 0 0 0 5 5 6 64 98 100 100 100 100
90 93 100 100 100 100 92 94 100 99 100 100 100 100 100 100 100 100 100 100 100 100 100 93 92 98 22 2 0 0 0 0 1 0 5 5 5 6 5 5 5 11 12
96 30 98 97 99 100 99 100 89 100 100 86 92 100 100 100 99 100 100 100 98 100 99 96 100 7 0 0 0 5 0 0 0 1 5 4 0 5 5 5 5 5 5
98 100 100 100 100 100 100 100 100 86 83 81 72 87 100 100 100 100 100 100 100 100 100 82 3 0 4 0 0 2 5 1 3 3 0 0 2 3 5 5 5 5 5
100 84 82 93 100 100 98 100 100 100 100 81 77 99 100 100 100 100 100 100 71 36 0 5 5 1 2 1 5 5 5 5 5 0 0 5 5 5 5 5 5 5 5
100 100 100 100 100 100 100 89 70 76 98 82 79 84 97 99 45 11 5 1 1 4 5 5 5 2 5 4 5 5 5 5 5 4 4 5 5 5 5 5 5 5 5
100 100 100 100 100 100 100 91 10 5 5 5 18 20 5 6 100 93 14 1 5 5 5 5 5 5 5 5 5 13 29 98 99 9 65 6 5 5 5 5 5 5 5
100 100 94 92 28 80 63 28 5 5 5 5 5 49 98 52 99 100 96 8 5 5 5 5 5 5 5 5 26 88 94 100 99 47 12 49 8 5 5 5 5 5 5
100 100 98 5 19 5 5 5 4 5 5 5 87 72 90 42 96 90 59 5 5 5 5 4 4 5 5 5 38 88 99 73 46 5 5 92 5 5 5 5 5 5 5
100 91 29 12 5 56 98 6 0 5 5 39 14 5 21 90 16 19 5 5 5 42 5 5 5 5 5 4 4 5 5 92 95 90 34 98 8 5 5 5 8 47 6
92 98 5 27 100 58 43 1 2 5 5 5 95 66 83 94 43 5 5 5 11 72 5 5 5 5 5 5 5 4 5 97 100 74 100 11 56 42 38 5 9 89 86

GFSMA_prec_cloud_048.txt.gz
Cloud_Cover
100 100 100 100 100 100 100 100 100 94 13 53 27 12 99 15 100 13 5 5 11 5 2 5 18 61 28 26 14 0 1 0 0 0 0 0 1 0 0 0 0 0 0
100 100 100 97 68 100 81 95 98 100 62 100 98 26 13 84 7 5 5 9 16 0 0 0 0 12 6 11 3 0 1 5 5 0 5 5 0 0 1 5 2 0 2
100 100 100 100 100 100 100 99 71 76 7 65 7 71 17 10 100 94 5 6 0 0 0 0 0 0 5 3 2 4 5 5 5 5 4 5 5 5 5 5 1 1 1
100 100 100 100 100 100 100 19 52 100 100 100 98 99 11 27 54 5 5 0 0 0 0 0 2 3 5 5 4 5 5 4 0 3 5 5 1 2 1 5 0 1 0
100 100 100 100 100 100 100 100 100 100 100 90 45 7 33 25 2 0 0 0 0 0 0 0 0 0 0 0 0 0 0 2 4 5 5 5 5 5 5 2 1 0 0
100 100 100 98 49 94 95 100 98 25 88 25 8 5 5 0 0 0 5 1 0 0 0 0 0 0 0 0 0 0 0 5 5 5 5 5 5 5 5 5 4 0 0
100 100 100 100 100 100 100 96 100 74 7 42 7 0 0 0 0 4 5 5 5 4 0 0 0 0 0 0 0 0 0 0 0 0 0 1 5 5 5 5 5 10 0
100 100 100 100 100 88 65 31 6 6 5 5 1 5 2 0 1 5 59 67 79 14 1 0 3 1 1 4 1 0 0 0 0 0 0 4 4 5 5 5 5 5 89
99 100 90 99 67 85 58 7 5 0 5 5 20 18 5 5 13 59 8 33 33 57 42 5 5 5 5 5 5 3 0 2 0 0 3 5 5 5 5 5 5 9 4
100 100 99 96 26 18 5 5 5 60 96 76 69 25 48 35 6 5 5 5 5 5 5 5 5 5 5 5 5 5 5 26 53 21 5 5 5 5 5 5 5 5 5
100 100 44 4 2 5 16 10 100 88 99 100 26 43 77 66 72 46 8 5 5 7 57 73 79 45 49 28 52 75 57 100 90 62 5 5 5 5 6 7 5 12 5
47 5 18 36 50 97 80 70 100 100 100 66 100 91 97 5 5 84 19 5 5 6 27 100 91 100 99 92 100 98 82 81 89 93 5 5 3 5 5 16 18 5 5
13 10 45 96 68 100 100 100 84 98 94 84 60 100 7 5 52 76 33 6 47 79 98 84 99 100 100 99 100 100 92 5 44 100 67 42 1 5 5 5 5 5 5
76 99 96 100 100 100 36 100 100 90 82 100 34 5 5 13 17 77 68 60 99 59 8 10 57 100 100 100 100 99 97 100 99 95 3 4 5 5 5 13 87 99 78
96 100 98 99 28 24 100 100 100 100 93 48 5 5 6 68 81 44 43 80 73 100 14 5 88 100 100 100 100 100 100 100 63 5 5 5 6 12 67 100 100 100 100
86 77 64 31 99 100 100 100 100 77 91 70 83 43 34 6 5 5 5 23 69 100 70 100 100 100 100 100 100 93 75 15 0 0 5 5 5 20 62 77 92 73 93
95 100 84 100 100 100 100 100 68 100 89 86 72 9 60 74 5 6 74 83 69 40 21 64 94 21 2 0 0 0 0 0 0 0 5 5 5 5 5 5 5 5 92
100 94 100 100 100 100 99 81 100 100 95 65 12 32 45 5 6 4 0 3 5 0 0 0 0 0 0 0 0 0 0 0 0 0 5 5 5 5 5 19 43 5 6
100 100 100 100 100 100 100 98 97 39 36 78 20 4 5 5 5 13 7 5 5 5 0 0 0 1 0 0 0 0 2 5 2 5 2 5 5 5 5 5 40 26 5
100 100 78 100 100 93 100 100 82 93 98 21 5 5 7 5 11 5 22 63 83 5 4 1 5 3 0 0 4 5 5 1 4 0 1 5 4 5 5 5 5 5 5
100 100 88 100 100 100 100 100 100 77 39 5 5 12 65 52 44 13 92 5 94 99 28 5 5 3 0 0 4 5 5 5 5 4 5 5 5 5 5 5 5 5 5
100 100 100 100 100 100 100 100 100 24 5 5 59 100 75 81 60 100 79 97 100 94 53 5 5 5 4 5 5 5 22 100 95 7 24 5 5 5 5 5 5 5 5
100 100 100 100 100 99 100 73 92 13 11 97 100 95 51 73 86 96 87 100 99 57 5 5 5 5 5 5 5 16 99 100 99 24 34 8 5 5 5 3 5 8 21
100 100 100 100 100 100 100 100 23 70 100 100 92 16 40 74 81 78 83 38 5 5 5 5 5 5 5 5 28 5 9 33 17 14 5 86 5 5 4 0 4 5 5
100 100 100 100 100 100 81 47 100 100 100 83 7 49 12 82 88 87 82 40 5 5 5 5 5 32 5 37 10 5 5 43 72 5 4 97 32 5 5 5 5 49 5
100 100 100 100 100 83 100 100 100 96 6 5 5 80 100 51 91 88 99 99 32 68 6 43 19 38 5 5 5 5 5 44 96 34 3 12 31 89 36 5 5 33 5

GFSMA_prec_cloud_051.txt.gz
Cloud_Cover
100 100 100 100 96 100 100 100 79 93 99 90 76 87 41 24 54 65 73 5 16 9 5 5 14 19 17 2 0 2 0 0 0 0 0 0 0 0 2 3 1 0 0
100 100 100 100 100 100 94 100 99 100 88 61 38 100 97 58 15 5 18 3 5 5 5 5 0 0 6 2 0 0 0 0 0 0 0 0 3 2 5 4 3 1 2
100 100 100 100 98 84 100 100 66 61 73 100 76 99 89 1 5 30 5 5 5 5 4 0 0 0 3 3 0 0 0 0 0 0 2 28 4 1 4 3 5 0 0
100 100 100 100 100 100 100 100 100 100 91 92 11 5 43 11 7 59 84 37 4 0 0 0 0 0 0 0 0 0 0 4 4 5 5 5 2 5 5 5 4 2 0
100 56 100 100 100 100 100 100 76 56 79 33 7 55 42 8 19 5 4 0 0 0 0 0 0 0 0 0 0 0 1 5 5 5 5 5 5 5 5 5 5 4 0
100 100 100 97 100 100 100 68 61 87 98 63 47 43 9 5 5 0 0 0 0 0 0 0 0 0 0 0 0 0 0 5 5 5 5 5 5 5 5 5 5 5 4
100 100 100 100 100 95 100 69 6 20 46 91 47 64 4 3 0 0 0 0 0 3 4 0 0 0 0 0 0 0 0 5 5 5 5 5 5 5 5 5 5 5 5
100 100 93 37 64 100 100 27 38 5 5 11 13 5 14 6 1 5 5 5 1 0 0 1 1 0 0 2 4 0 0 0 0 3 5 5 5 5 5 5 6 7 34
63 96 96 50 99 70 11 9 5 5 23 29 5 9 5 5 8 5 5 2 0 5 5 2 0 0 0 5 5 5 5 5 6 71 70 8 6 25 41 40 55 37 41
100 94 99 100 98 67 14 5 5 37 52 75 96 100 66 87 6 13 5 5 0 0 3 5 5 5 5 5 5 5 5 5 5 2 5 5 5 29 92 100 100 93 89
100 100 97 75 31 5 30 53 65 97 100 98 100 27 8 5 5 5 0 5 4 3 0 5 5 5 5 5 5 5 5 5 5 5 5 8 11 54 85 82 28 5 69
99 92 74 26 74 93 82 96 99 100 100 100 54 5 5 5 5 5 5 4 5 4 34 5 5 5 5 5 5 5 5 5 5 14 5 36 85 99 89 5 6 18 36
87 73 63 100 99 98 100 100 100 100 100 95 75 5 5 5 5 5 2 2 5 7 73 66 5 5 5 15 78 98 60 72 81 100 98 99 99 100 100 100 80 83 66
100 100 95 92 98 96 99 100 100 100 100 71 100 42 5 5 5 5 5 5 5 5 5 65 50 4 1 2 10 27 55 87 80 72 57 20 35 56 31 16 5 65 83
100 100 100 100 100 86 100 100 100 100 100 74 84 43 14 5 5 5 5 5 7 5 4 17 54 5 0 0 0 0 0 0 0 0 0 5 5 5 5 6 72 98 100
100 100 100 100 100 100 100 100 100 100 100 100 100 91 78 32 43 68 5 5 5 5 14 5 33 5 3 0 0 0 0 0 0 0 2 5 5 5 5 40 31 37 42
100 100 100 100 100 100 100 100 100 100 84 94 92 90 85 94 80 5 5 5 5 33 80 5 5 3 0 0 0 0 0 0 0 0 5 5 5 5 5 5 5 18 68
100 100 100 100 100 100 100 100 100 100 100 100 100 98 80 51 34 5 5 5 5 5 5 5 5 4 4 0 4 0 0 0 0 0 0 5 5 11 7 49 71 42 76
100 100 100 99 100 100 100 97 81 100 100 100 56 62 6 5 5 5 5 5 5 5 13 5 5 5 5 5 5 1 0 0 0 0 0 5 5 5 5 5 5 5 5
100 93 92 100 100 100 100 100 100 94 67 100 63 11 7 5 5 5 5 5 5 80 95 5 34 5 5 5 5 0 1 5 5 3 4 5 2 5 5 5 5 5 5
71 99 100 100 100 100 100 100 100 94 100 82 66 7 5 8 14 5 13 5 62 80 73 81 94 64 12 5 5 1 5 7 57 5 17 98 5 16 5 5 5 5 5
100 100 100 100 100 100 100 100 100 100 68 13 5 43 18 14 5 38 100 99 100 100 33 100 99 97 6 5 5 5 5 5 5 5 5 30 5 5 5 5 5 5 5
100 100 100 100 100 100 95 90 74 5 5 5 50 7 15 22 5 46 83 81 30 13 95 81 70 52 87 23 5 19 5 54 59 5 12 70 5 8 70 5 0 3 5
100 100 99 100 99 97 68 26 6 5 5 55 78 20 32 5 5 20 89 88 47 37 5 5 5 5 54 8 5 54 99 97 94 44 5 87 40 68 13 5 0 4 5
98 100 72 32 5 68 20 5 5 8 60 58 53 65 9 5 5 59 76 58 99 81 100 61 5 5 5 5 5 81 100 100 99 63 5 97 94 92 35 27 57 5 5
100 85 5 5 5 5 5 5 57 6 5 47 5 5 5 2 5 66 96 70 100 28 94 5 5 5 5 5 5 7 92 100 100 94 21 83 100 97 89 68 100 100 67

GFSMA_prec_cloud_054.txt.gz
Cloud_Cover
100 100 100 100 100 100 100 100 100 100 100 98 41 88 84 18 32 89 100 78 19 1 8 5 3 0 0 0 0 0 0 0 0 0 0 3 17 3 5 0 0 0 0
100 100 100 100 100 100 100 100 100 100 100 100 98 100 27 20 98 8 7 3 0 2 3 5 7 19 16 0 0 0 0 0 0 0 1 3 9 1 1 3 4 3 1
100 100 100 100 100 100 100 100 100 100 100 9 39 17 97 99 6 22 5 5 1 5 5 1 0 0 0 3 0 0 0 0 0 0 5 1 4 4 5 5 5 5 0
100 100 100 100 100 100 39 100 100 90 5 51 100 100 75 20 31 5 5 5 4 3 2 0 0 0 0 0 0 0 0 1 5 5 6 5 6 5 5 5 5 5 5
100 100 100 94 100 100 99 72 100 70 97 100 100 71 18 5 5 22 4 1 0 0 0 0 0 0 0 0 0 0 0 5 5 5 5 5 5 5 5 5 5 5 5
100 96 100 100 100 90 100 100 100 100 100 31 16 16 5 5 5 5 3 0 0 0 0 0 0 0 0 0 0 0 0 5 5 5 5 5 5 5 5 5 5 5 5
100 100 100 100 100 100 100 100 100 39 33 38 16 5 5 5 2 0 0 0 0 0 0 0 0 0 0 0 0 0 0 2 4 5 5 5 5 5 5 6 56 92 70
100 100 100 100 100 100 99 100 100 7 5 5 8 28 39 7 6 4 0 4 5 1 1 4 3 5 5 1 4 2 4 0 0 4 5 5 5 5 5 9 49 100 99
100 100 100 100 85 43 58 100 82 6 38 5 47 21 48 50 5 5 4 4 5 5 5 2 5 5 5 5 5 11 17 4 5 5 5 5 5 5 5 25 82 84 100
100 100 100 100 99 92 100 99 25 8 5 5 44 97 100 78 5 5 5 5 2 5 5 23 72 74 7 5 5 5 5 5 5 5 5 5 5 82 98 100 100 100 100
100 100 100 100 100 100 90 88 21 5 42 100 100 100 100 24 34 60 5 5 4 68 91 98 54 4 5 5 5 54 5 5 5 5 5 5 5 5 5 5 6 29 51
100 100 100 100 100 100 100 100 65 100 91 98 100 100 100 100 79 38 6 5 5 9 60 26 67 39 16 6 5 2 4 1 1 0 0 0 0 11 91 84 26 5 35
100 100 100 100 100 100 100 100 100 100 98 100 100 100 99 100 100 28 5 5 6 46 34 78 92 98 68 19 5 5 0 0 0 0 0 0 0 5 5 6 27 67 84
100 100 100 100 100 100 100 100 100 100 100 100 100 100 95 17 69 50 82 47 62 58 5 5 47 62 89 88 53 1 0 0 0 0 0 0 0 1 5 5 5 5 50
100 100 100 100 100 100 100 100 100 100 100 100 100 96 74 93 67 25 56 77 5 5 5 5 5 62 92 84 43 5 4 0 0 0 0 0 0 0 5 5 5 79 96
100 100 100 100 100 100 100 100 100 100 100 100 100 93 99 96 71 95 100 98 6 5 5 5 38 63 82 25 16 3 4 0 0 0 0 0 4 5 5 5 10 22 26
100 100 100 100 100 100 100 100 100 100 100 100 100 98 99 95 100 100 97 100 55 64 41 5 88 99 89 93 90 60 5 3 0 0 0 0 3 5 5 5 5 5 38
100 100 100 100 100 100 100 100 100 100 100 100 100 75 100 100 100 100 100 100 98 100 99 75 90 100 100 100 100 98 5 0 0 0 0 0 2 5 5 5 5 26 76
100 100 100 100 100 100 100 100 100 100 100 100 100 100 100 100 100 100 92 100 100 100 100 100 94 100 100 100 100 100 53 4 0 0 0 0 0 1 5 5 5 5 5
100 100 100 100 100 100 100 100 100 100 100 100 100 100 100 100 82 57 81 96 100 100 100 100 100 100 100 100 100 100 89 2 0 0 0 2 3 2 2 3 4 5 5
100 100 100 100 100 100 100 100 100 100 100 100 100 100 91 18 25 46 9 29 98 100 100 100 99 100 100 100 100 100 70 2 1 4 5 5 8 21 85 83 62 29 15
51 100 100 100 100 100 100 100 95 85 32 53 78 44 5 5 11 7 5 5 5 47 97 94 100 100 100 100 100 100 79 5 4 5 5 5 5 12 84 100 100 5 5
70 100 94 100 100 100 100 100 60 6 5 5 5 5 5 5 5 7 7 5 5 5 5 57 96 99 100 100 100 100 19 5 5 15 5 5 25 52 98 100 96 5 4
98 97 100 100 100 100 76 60 5 5 5 5 5 5 5 5 5 15 49 65 71 68 45 74 22 71 100 100 100 95 39 21 61 64 46 5 41 91 100 100 92 5 31
100 100 100 100 87 57 11 26 5 5 5 12 5 5 5 5 5 5 5 5 42 82 100 35 100 97 26 20 96 28 38 94 90 42 58 66 58 78 100 100 100 100 89
100 100 77 38 5 5 5 9 5 5 5 7 5 5 5 5 6 5 5 5 89 30 97 100 81 30 100 54 70 5 38 83 91 93 60 46 81 58 98 100 100 100 100

GFSMA_prec_cloud_057.txt.gz
Cloud_Cover
100 100 100 100 100 97 100 100 100 100 68 84 100 100 100 100 100 100 55 56 25 80 100 22 7 4 0 0 0 0 0 0 0 0 0 0 10 4 0 0 1 0 0
100 100 100 100 100 100 100 100 100 100 100 100 100 100 100 100 57 11 66 67 100 94 13 5 2 3 5 0 0 0 0 0 0 0 1 5 5 4 3 5 5 4 0
100 100 100 100 100 100 100 100 100 100 100 100 19 92 62 83 96 99 100 100 21 5 0 0 0 0 0 0 0 0 0 0 2 5 5 5 5 5 8 16 16 5 4
100 100 100 100 100 100 100 100 100 100 100 100 73 42 8 65 100 82 13 5 6 8 4 0 0 0 0 0 0 0 0 0 5 5 5 5 5 5 6 5 5 5 5
100 100 100 100 100 100 100 100 100 100 98 66 90 93 100 82 96 33 5 5 1 0 0 0 0 0 0 0 0 0 0 1 5 5 5 5 5 5 5 5 5 5 5
100 100 100 100 100 100 100 100 96 100 100 99 100 100 100 62 44 15 5 5 3 0 0 0 0 0 0 0 0 0 0 3 5 5 5 5 5 5 5 5 5 5 5
100 100 100 100 100 100 100 100 100 100 100 98 100 29 60 34 5 5 5 3 1 5 5 5 4 2 4 0 0 5 5 0 2 5 5 5 5 5 5 6 19 37 60
100 100 100 100 100 100 100 100 100 100 100 80 39 28 17 83 70 17 5 3 5 5 4 5 2 5 5 6 5 5 5 4 0 0 5 5 5 65 76 87 96 88 100
100 100 100 100 100 100 100 100 71 83 100 91 12 5 14 87 69 78 6 7 4 5 5 5 5 22 66 29 17 41 5 5 2 0 5 5 5 21 66 96 100 100 100
100 100 100 100 100 100 93 99 100 100 98 94 100 34 74 98 99 52 92 17 5 1 5 5 21 17 30 38 8 16 5 4 4 0 3 4 5 5 5 5 14 9 5
98 95 100 100 100 100 100 100 100 99 100 100 95 100 98 100 87 95 98 100 95 39 69 61 13 51 5 5 6 12 5 5 4 0 0 0 4 1 0 5 5 5 5
100 100 98 98 100 100 100 100 100 100 100 100 100 91 100 100 100 99 98 35 15 51 25 20 16 5 27 34 15 5 5 0 0 0 0 0 0 0 0 5 5 5 5
100 100 90 92 100 100 100 100 100 100 100 97 96 99 100 100 100 100 98 98 58 81 7 43 62 59 59 50 16 5 4 0 0 0 0 0 0 0 2 5 5 5 5
100 100 100 100 100 100 100 100 100 100 100 100 100 100 100 100 92 100 100 100 99 69 48 60 99 35 7 57 63 6 5 5 4 2 0 0 0 0 5 5 5 5 5
100 100 100 100 100 100 100 100 100 100 100 100 100 100 100 99 100 100 100 100 96 43 72 100 100 97 48 42 81 62 6 7 5 0 0 0 0 0 4 5 5 5 5
100 100 100 100 100 100 100 100 100 100 100 100 100 100 100 100 98 100 100 100 98 100 60 100 100 40 58 47 68 11 4 5 5 5 1 0 0 0 4 5 5 5 5
100 100 100 100 100 100 100 100 100 100 100 100 100 100 100 100 100 100 100 88 100 100 90 24 53 29 35 100 59 29 54 25 10 79 3 0 0 0 0 2 5 5 5
100 100 100 100 100 100 100 100 100 100 100 100 100 90 73 99 99 90 100 100 100 66 66 5 5 6 73 55 12 70 24 50 57 98 5 0 0 0 0 0 5 5 5
100 100 100 100 100 100 100 100 100 100 100 100 100 100 100 100 98 93 100 80 65 52 77 98 50 42 76 99 100 96 99 15 65 38 1 0 0 0 0 0 0 0 3
100 100 100 100 100 100 100 100 100 100 100 100 100 100 100 100 71 100 74 56 18 19 5 37 39 5 89 61 100 100 61 100 98 83 4 4 5 4 5 5 5 5 4
100 100 100 100 100 100 100 100 100 100 100 100 100 100 62 66 75 74 58 22 18 5 5 5 5 42 32 84 96 99 69 92 92 77 5 25 51 20 5 5 29 99 39
66 51 94 100 100 100 98 100 100 100 100 72 81 65 26 12 5 45 61 42 5 5 4 5 5 5 35 99 100 90 100 100 95 91 65 9 73 7 65 30 92 14 5
98 100 100 100 100 100 100 100 86 34 53 95 21 35 12 5 5 5 5 5 6 89 77 2 18 5 5 42 100 67 100 100 87 87 89 6 60 17 69 54 68 78 6
100 100 100 100 100 96 48 14 69 100 69 98 55 5 5 5 5 12 93 76 5 8 18 28 6 93 99 95 34 94 100 78 7 5 84 55 75 44 42 5 5 27 14
100 100 100 88 71 80 99 87 31 68 68 5 5 5 5 5 5 5 6 9 5 5 3 33 100 100 100 100 96 100 99 98 5 31 98 90 73 32 63 5 17 96 5
28 30 29 49 21 5 9 10 54 13 5 5 6 36 5 5 5 3 17 63 8 5 5 5 70 100 100 75 68 100 100 100 85 12 100 98 100 89 13 12 64 38 6

GFSMA_prec_cloud_060.txt.gz
Cloud_Cover
100 100 100 100 100 100 100 99 100 30 36 23 69 100 99 100 78 100 100 95 100 100 23 59 19 35 5 1 4 0 0 0 0 0 0 0 3 2 3 2 3 0 1
100 100 100 100 100 100 100 100 68 16 86 100 100 100 100 100 100 100 66 85 74 72 43 78 60 13 19 2 0 0 0 0 0 0 0 1 3 5 5 8 20 16 4
100 100 100 100 100 100 99 100 100 100 100 100 100 100 100 100 100 45 99 99 44 98 100 94 56 5 0 0 0 0 0 0 0 0 2 4 5 5 5 5 5 5 5
100 100 100 100 100 100 100 100 100 100 100 100 100 100 100 100 100 100 57 99 100 100 86 5 4 0 0 0 0 0 0 0 0 0 1 5 5 5 5 5 3 5 5
100 100 100 100 100 100 100 100 100 100 100 100 100 100 89 100 99 100 100 97 19 5 5 5 4 1 0 0 0 0 0 0 0 4 4 5 5 5 5 5 5 5 5
100 100 100 100 100 100 100 100 100 100 100 100 100 100 100 100 100 87 27 5 5 3 1 1 1 0 0 0 0 0 0 0 0 4 5 5 5 5 5 5 5 5 12
100 100 100 100 100 100 100 100 100 100 100 100 100 100 100 100 94 5 5 5 5 5 5 0 5 0 0 0 0 0 2 0 0 0 4 5 5 5 5 80 55 82 78
100 100 100 100 100 100 100 100 100 100 100 100 100 100 76 92 48 28 91 84 32 5 3 2 5 0 2 0 1 5 5 5 2 1 0 3 5 5 5 5 4 66 86
100 100 100 100 100 100 100 100 100 100 100 100 100 100 7 49 31 39 100 100 90 5 5 5 5 3 1 5 5 5 5 5 5 0 0 2 5 5 5 5 5 5 5
100 100 100 100 100 100 100 100 100 100 100 100 100 100 100 100 84 100 93 100 98 85 13 5 5 5 85 5 5 5 3 5 5 0 0 0 5 5 5 5 5 5 5
100 100 100 100 100 100 100 100 100 100 100 100 100 100 100 100 100 92 100 100 94 56 45 5 5 5 5 5 5 2 0 5 5 0 0 0 0 5 5 5 5 5 5
99 100 100 100 100 100 100 100 100 100 100 100 100 100 100 100 100 96 100 98 89 99 100 98 41 5 5 5 5 5 3 9 17 0 0 0 0 5 5 5 5 5 5
100 93 98 90 95 98 100 100 100 100 100 100 100 100 100 100 100 100 100 100 82 92 100 100 100 96 18 5 9 5 5 5 5 0 0 0 0 3 5 4 5 5 5
100 100 100 100 100 100 100 100 100 100 100 100 100 100 100 100 100 100 100 100 25 91 100 100 100 100 86 11 5 5 2 4 3 0 0 0 0 0 0 0 5 5 5
100 100 100 100 95 100 100 100 100 100 100 100 100 100 100 100 100 100 100 100 96 47 55 100 91 73 93 52 9 5 5 5 1 0 0 0 0 0 0 0 1 5 5
100 100 100 100 100 100 100 100 100 100 100 100 100 100 100 100 100 100 100 73 100 82 6 39 5 34 99 46 5 60 48 5 5 3 0 0 0 0 0 0 0 0 5
100 100 100 100 100 100 100 100 100 100 100 100 100 100 100 100 94 58 82 95 88 90 58 20 11 90 10 5 6 77 100 61 5 5 5 4 0 0 0 0 0 0 0
100 100 100 100 100 100 100 100 100 100 100 100 100 100 98 100 98 100 97 81 75 48 59 5 42 5 5 5 5 5 17 88 61 5 5 5 0 0 0 0 0 0 0
100 100 100 100 100 100 100 100 100 100 100 100 100 100 100 100 96 100 100 98 71 39 5 13 6 5 5 98 100 100 57 100 61 12 5 5 5 3 1 0 4 5 1
100 100 100 100 100 100 100 100 100 100 100 100 100 100 100 75 100 96 18 5 5 5 34 89 73 80 96 51 66 100 73 100 67 100 76 4 5 5 2 5 5 2 12
100 100 100 100 100 100 100 100 100 100 100 100 100 95 20 5 5 48 38 33 61 5 27 17 6 5 4 4 22 77 97 100 71 100 27 4 3 3 11 5 5 5 40
100 99 72 23 98 90 100 100 100 100 100 91 11 14 5 6 26 5 5 42 84 99 91 100 73 85 6 99 99 100 100 100 95 100 100 2 4 5 5 5 34 100 9
26 77 100 97 87 90 83 76 53 5 5 8 51 100 99 85 5 5 5 5 53 41 6 88 100 59 20 46 100 100 100 100 100 100 78 4 5 5 25 63 14 5 5
52 73 15 5 5 61 9 6 34 95 62 19 35 83 66 48 39 5 6 37 50 5 5 38 100 28 5 22 91 100 100 100 100 100 80 4 5 5 48 95 87 5 16
28 15 21 31 5 28 71 9 37 96 67 90 100 72 17 11 22 22 15 5 5 5 5 5 8 5 29 100 74 100 100 100 66 22 100 15 5 5 7 100 89 5 98
70 92 12 5 5 5 28 9 5 5 5 6 82 74 42 6 30 10 5 11 72 5 5 5 5 5 4 49 100 100 100 99 5 50 100 97 5 46 28 100 89 25 5

GFSMA_prec_cloud_063.txt.gz
Cloud_Cover
100 99 100 100 100 100 81 100 95 38 68 15 10 72 28 72 81 100 82 100 100 100 100 100 100 100 83 75 50 36 4 2 0 0 0 0 0 0 0 13 16 4 0
100 100 95 100 100 100 100 100 98 90 57 89 65 100 100 100 100 100 100 100 100 100 100 100 100 100 100 100 4 3 5 0 0 0 0 0 0 2 6 5 5 5 5
83 100 95 100 100 100 100 100 72 86 100 100 100 100 99 100 100 100 100 100 100 100 100 100 90 94 5 9 5 5 0 0 0 0 0 4 5 5 5 5 5 5 5
83 100 100 98 100 100 100 100 100 100 100 100 100 100 100 100 100 100 100 100 100 100 100 90 90 18 5 6 8 5 1 0 0 0 0 2 5 5 5 5 5 5 5
100 100 100 100 100 100 100 100 100 100 100 100 100 100 100 100 94 100 100 100 100 100 100 100 62 50 33 94 5 5 2 0 0 0 0 0 2 5 5 5 5 5 3
100 100 100 100 100 100 100 100 100 100 100 100 100 100 100 100 100 100 100 100 100 100 98 96 6 86 100 49 5 4 0 0 0 0 0 0 0 3 5 5 4 48 12
100 100 100 100 100 100 100 100 100 100 100 100 100 100 100 100 100 97 100 100 99 42 5 5 36 10 5 5 5 41 5 1 5 5 0 0 2 5 5 5 8 2 2
100 100 100 100 100 100 100 100 100 100 100 100 100 100 100 100 100 100 99 71 68 100 96 100 78 47 5 6 55 38 5 5 4 2 4 0 0 5 5 5 5 5 5
100 100 100 100 100 100 100 100 100 100 100 100 100 100 100 100 100 100 100 100 96 100 96 89 7 5 67 65 8 82 99 14 5 3 0 0 0 0 5 5 5 5 5
100 98 100 100 100 92 100 100 100 100 100 100 100 100 100 100 100 99 69 92 97 81 69 37 5 62 77 5 5 5 5 5 5 0 0 0 0 0 2 5 5 5 5
100 100 100 100 100 100 100 100 100 100 100 100 100 100 100 100 100 100 100 100 100 100 78 48 49 5 5 5 5 5 5 5 0 0 0 0 0 0 0 5 5 5 5
73 65 65 95 100 100 100 100 100 100 100 100 100 100 100 100 100 100 100 100 100 100 100 52 66 5 61 37 45 36 4 0 0 0 0 3 5 0 0 3 5 5 5
60 83 93 100 100 93 77 62 100 100 100 100 100 100 100 100 100 100 100 100 100 100 100 100 71 31 10 74 64 5 5 0 0 1 5 5 1 0 0 0 1 2 5
86 100 100 100 100 74 27 37 98 100 100 100 100 100 100 100 100 100 100 100 100 97 100 100 100 95 13 6 6 5 0 1 5 5 5 3 2 0 0 0 0 0 0
100 100 100 100 100 100 100 99 100 100 100 100 100 100 100 100 100 100 100 100 100 89 79 87 91 18 5 5 5 5 5 5 5 5 5 5 5 0 0 0 0 0 0
100 100 100 100 100 100 100 100 100 100 100 100 100 100 100 100 100 100 100 98 93 89 81 13 5 5 5 5 5 5 0 0 5 5 5 5 3 0 0 0 0 0 0
100 100 100 100 100 100 100 98 94 100 100 100 100 100 100 100 100 100 98 73 77 100 98 50 5 5 5 5 4 4 5 5 5 5 8 17 3 2 4 1 0 0 0
100 100 100 100 100 100 100 100 100 100 100 100 100 100 100 100 100 96 100 77 100 100 100 98 5 5 5 4 6 94 99 79 36 69 100 100 45 6 8 5 1 0 0
100 100 100 100 100 100 100 100 100 100 100 100 100 100 100 100 97 71 80 99 96 100 86 66 5 5 5 5 37 78 11 72 85 5 74 100 100 100 73 27 4 0 0
100 100 100 100 100 100 100 100 100 100 100 100 100 97 96 88 5 5 9 14 5 5 5 5 7 17 47 35 76 61 29 12 52 55 100 100 100 100 95 5 4 0 0
100 100 100 100 100 100 100 100 100 100 100 100 100 99 25 5 5 5 27 26 5 16 64 8 6 5 5 5 17 5 5 58 100 100 100 100 100 100 99 38 75 0 0
100 100 100 100 100 99 78 83 84 96 100 96 84 19 4 3 4 5 0 0 4 5 5 5 5 83 72 100 100 93 29 100 87 89 100 100 100 100 100 96 27 1 5
100 100 78 33 12 63 49 80 42 38 5 5 5 5 5 5 5 4 0 0 5 5 5 5 5 5 55 89 92 72 41 92 95 100 100 100 100 100 100 20 0 1 5
8 2 4 31 36 28 38 13 22 5 5 14 5 5 5 5 5 5 5 5 5 13 23 5 5 5 5 10 41 82 86 7 47 83 100 100 100 100 24 5 5 14 5
4 5 5 89 89 58 50 5 5 5 6 5 8 17 5 7 8 5 5 5 16 5 5 5 3 5 4 5 5 5 91 100 100 98 100 95 77 5 5 5 5 5 5
5 5 5 5 91 92 5 5 4 6 17 5 5 24 37 27 56 10 58 22 78 16 33 38 34 16 47 99 100 27 40 100 100 100 100 100 94 59 5 5 5 60 24

GFSMA_prec_cloud_069.txt.gz
Cloud_Cover
100 100 99 100 91 100 89 36 5 76 98 78 35 43 49 69 5 5 17 8 10 16 84 5 92 100 45 5 5 11 89 100 100 100 100 100 100 60 52 98 5 5 4
100 100 100 100 100 100 5 38 22 29 100 96 100 99 18 5 66 45 68 92 94 95 100 100 100 83 82 92 100 99 100 100 100 98 99 85 97 78 19 5 5 4 4
100 100 100 100 100 100 98 98 66 66 100 99 88 5 45 98 71 96 100 100 100 100 100 100 100 100 100 100 99 100 100 100 100 99 96 100 90 15 23 4 5 5 5
100 100 100 100 100 100 100 85 78 60 100 100 100 99 87 100 100 100 100 100 100 100 100 100 100 100 100 99 100 100 100 100 100 100 100 49 14 5 10 54 4 2 2
100 100 100 100 100 100 100 100 100 100 100 100 100 100 100 100 97 100 100 100 100 100 100 100 100 100 100 100 100 100 100 100 100 37 6 5 3 5 9 6 5 5 3
100 100 100 100 100 100 100 100 100 100 100 100 100 100 100 100 100 100 100 100 100 100 100 100 100 100 100 100 100 96 66 5 21 6 5 5 3 5 79 73 20 3 3
100 100 100 100 100 100 100 100 100 100 100 100 100 100 100 100 100 100 100 100 100 100 100 100 100 53 94 45 96 50 5 38 97 35 5 17 100 100 100 11 5 0 5
100 100 100 100 100 100 100 100 100 100 100 100 100 100 100 100 100 100 100 100 98 95 83 94 100 80 91 100 100 100 100 100 100 100 100 100 100 90 5 3 0 0 3
100 100 100 100 100 100 100 100 100 100 100 100 100 100 100 100 100 100 100 100 100 100 100 100 81 95 100 100 100 100 100 100 100 100 100 49 5 1 0 0 0 0 0
100 100 100 100 100 100 100 100 100 100 100 100 100 100 100 100 100 100 100 100 100 100 100 100 86 97 99 100 100 100 100 100 35 5 5 3 0 2 0 0 0 0 0
100 100 100 100 100 100 100 100 100 100 100 100 100 100 99 100 63 100 100 100 100 100 100 100 100 100 100 100 100 100 20 100 76 5 5 5 5 5 5 0 0 0 0
100 100 100 100 100 100 100 100 100 100 100 100 88 52 27 99 100 100 100 100 100 100 100 100 100 96 100 100 100 100 100 100 91 77 87 84 65 63 5 2 0 0 0
100 100 100 100 100 100 83 98 84 91 92 7 38 35 86 100 83 100 100 100 100 99 82 66 100 100 87 100 100 100 77 5 10 24 38 100 100 100 78 5 5 1 0
90 100 100 100 100 100 100 100 100 100 98 67 95 65 100 100 100 100 100 80 47 40 100 21 96 32 67 72 46 89 39 5 5 5 13 100 100 100 85 34 5 5 5
93 100 100 100 100 100 100 100 100 100 100 100 100 100 100 100 100 100 100 87 98 100 100 90 35 77 5 36 34 5 5 5 5 5 5 34 16 3 3 5 48 100 100
100 100 100 100 100 100 100 100 100 100 100 100 100 100 100 100 100 100 100 100 46 36 99 46 83 44 64 5 5 5 5 14 5 5 5 5 5 3 5 87 98 100 100
100 100 100 100 100 100 100 100 100 100 100 100 100 100 100 100 100 100 98 100 100 100 100 96 94 99 65 5 5 40 27 6 5 5 5 5 5 5 44 100 100 60 66
100 100 100 100 100 100 100 100 100 100 100 100 100 100 100 100 100 100 100 89 100 100 100 100 19 5 5 24 7 5 6 14 5 5 5 5 6 97 48 100 85 20 82
100 100 100 100 100 100 100 100 100 100 100 100 100 100 100 100 100 100 77 100 100 77 97 19 5 5 5 5 29 31 47 58 5 22 5 39 98 100 8 7 47 6 72
100 100 100 100 100 100 100 100 100 100 100 100 100 100 100 100 100 100 98 100 6 5 5 5 5 5 5 5 5 5 32 17 48 84 23 95 86 5 5 22 94 82 100
100 100 100 100 100 100 100 100 100 100 100 100 100 100 100 100 100 100 98 64 5 5 5 13 5 5 5 5 6 8 6 5 54 78 90 100 30 4 4 3 5 80 100
100 100 100 100 100 100 100 100 100 100 100 100 100 100 100 100 100 99 15 5 5 5 7 76 5 5 5 5 5 7 5 6 28 77 99 7 8 5 9 74 5 27 99
100 100 100 100 100 100 100 100 100 100 100 100 100 100 100 100 9 5 5 6 100 64 67 32 6 78 35 5 8 34 90 100 100 100 100 84 5 5 6 13 7 56 100
100 100 100 100 100 100 100 100 100 100 100 100 100 100 77 5 7 5 14 100 100 100 100 100 100 100 97 97 100 100 100 100 100 100 100 80 7 48 84 77 78 100 100
100 100 100 100 100 100 100 100 100 100 100 100 54 9 61 26 44 24 100 100 100 100 100 100 100 100 100 100 100 100 100 100 100 100 100 33 5 5 36 63 100 83 99
100 100 100 100 100 100 100 100 100 100 32 4 1 14 99 87 100 98 100 97 100 100 100 100 100 100 100 100 100 99 100 100 100 100 100 70 7 69 100 63 100 100 100

GFSMA_prec_cloud_072.txt.gz
Cloud_Cover
100 100 100 100 100 100 100 100 100 99 91 88 75 23 89 99 99 100 100 100 100 100 100 100 100 100 100 100 100 100 100 100 100 100 100 100 100 100 99 5 11 5 66
100 100 100 100 100 100 100 100 86 77 92 55 68 74 60 72 99 100 100 100 100 100 100 100 100 100 100 100 100 100 100 100 100 100 100 100 100 36 5 5 5 5 5
100 100 100 100 100 100 100 100 100 100 99 86 100 98 81 97 100 100 100 100 100 100 100 100 100 100 100 100 100 100 100 100 100 75 62 5 5 5 5 5 5 0 0
100 100 100 100 100 100 100 100 100 100 100 96 85 72 87 94 100 85 100 100 100 100 100 100 100 100 100 100 100 100 43 40 6 12 85 24 5 4 1 3 4 1 1
100 100 100 100 100 100 100 100 100 98 100 99 100 100 100 100 99 95 100 100 100 100 100 100 100 100 100 100 100 89 6 6 79 36 26 5 7 29 24 5 74 100 90
100 100 100 100 100 100 100 100 100 100 100 100 100 100 100 100 100 100 100 100 100 100 100 100 100 100 95 38 89 97 98 100 77 99 100 100 94 5 72 80 6 0 0
100 100 100 100 100 100 100 100 100 100 100 100 100 100 100 100 100 100 100 100 100 100 100 100 100 100 100 98 85 100 97 28 100 100 100 100 100 12 0 0 0 0 0
100 100 100 100 100 100 100 99 100 100 100 100 100 100 100 100 100 100 100 100 100 100 100 100 100 100 100 100 100 66 18 70 100 100 81 5 0 0 1 4 3 0 0
100 100 100 100 100 100 100 100 100 100 100 100 100 100 100 100 100 100 100 100 100 100 100 92 100 100 100 81 91 100 100 95 94 46 25 15 11 6 5 2 0 0 0
100 100 100 100 100 100 100 100 100 100 100 100 100 100 100 100 100 100 100 99 100 100 100 100 100 100 100 100 100 100 82 100 57 100 42 100 59 34 5 5 2 3 0
100 100 100 100 100 100 100 100 100 100 100 100 100 100 100 100 100 100 100 100 64 100 100 100 99 100 100 100 100 100 100 87 94 100 64 100 100 53 85 97 71 6 5
100 100 100 100 100 100 100 100 100 100 100 100 100 100 100 95 100 89 95 100 84 100 100 100 100 100 100 100 100 100 50 78 100 100 100 100 92 98 62 83 86 97 92
100 100 100 100 100 100 100 100 55 96 58 90 100 87 66 96 100 100 100 99 100 100 100 100 100 85 72 100 100 100 100 100 100 100 99 53 5 29 30 19 5 33 79
100 100 100 100 100 100 98 21 36 30 76 97 100 100 100 100 100 98 100 100 100 100 100 100 100 100 84 97 80 10 87 84 70 13 93 98 12 5 5 5 24 5 2
39 5 5 6 21 86 72 71 100 100 100 100 100 98 100 100 100 100 100 100 100 100 100 100 100 27 26 84 82 5 5 12 91 65 76 59 5 5 5 5 5 5 5
82 88 94 26 88 50 100 100 96 100 100 91 100 100 100 100 100 100 100 100 100 100 100 100 100 81 96 40 5 5 38 49 94 25 47 5 5 5 5 38 22 11 5
100 100 100 100 100 100 100 100 100 100 100 100 100 100 100 100 100 100 100 100 100 100 100 100 64 48 29 10 64 99 58 79 98 6 7 5 5 5 87 100 100 36 11
99 100 100 100 100 100 100 100 100 100 100 100 100 100 100 100 100 100 100 100 100 100 100 43 100 100 100 7 6 96 79 41 7 59 79 100 100 92 90 100 100 20 100
100 97 100 100 100 100 99 100 100 100 100 100 100 100 100 100 100 100 100 98 100 100 100 100 100 92 8 88 100 96 99 100 100 100 100 98 95 30 97 100 13 12 100
100 100 100 100 100 100 100 100 100 100 100 100 100 100 100 100 100 100 100 100 100 99 98 72 76 12 87 100 100 95 99 100 100 98 78 100 62 68 91 5 5 37 100
100 100 100 100 100 100 100 100 100 100 100 100 100 100 100 100 100 100 100 100 100 100 96 100 26 21 18 100 100 100 100 62 100 100 99 15 8 11 5 12 7 74 93
100 100 100 100 100 100 100 100 100 100 100 100 100 100 100 100 100 100 100 100 100 64 80 56 82 100 96 100 100 85 78 100 18 86 42 100 5 12 5 12 36 100 5
100 100 100 100 100 100 100 100 100 100 100 100 100 100 100 100 100 100 100 100 7 68 43 90 100 100 100 92 93 89 67 84 92 69 80 95 15 5 5 26 100 26 5
100 100 100 100 100 100 100 100 100 100 100 100 100 100 100 100 100 100 100 97 72 66 93 100 100 100 100 100 34 26 84 96 87 81 82 99 5 42 90 100 79 5 10
100 100 100 100 100 100 100 100 100 100 100 100 100 100 100 100 100 100 89 68 100 100 100 100 100 98 93 80 49 75 98 98 77 84 98 84 93 88 100 83 5 7 94
100 100 100 100 100 100 100 100 100 100 100 100 100 100 100 100 99 100 100 100 100 100 100 100 100 100 100 97 99 83 80 100 100 74 77 88 99 100 49 5 6 7 70

GFSMA_prec_cloud_075.txt.gz
Cloud_Cover
100 100 100 100 100 100 66 74 93 70 100 79 92 84 100 97 90 74 68 100 99 100 100 100 100 100 100 100 100 100 100 100 100 100 100 100 70 73 99 65 3 0 0
100 100 100 100 100 100 98 100 100 78 98 98 100 99 88 85 68 89 40 97 100 100 100 100 100 100 100 100 100 100 100 100 100 98 100 75 82 5 5 5 3 2 2
100 100 100 100 100 100 99 100 97 79 82 78 100 100 96 100 100 100 100 100 100 100 100 100 100 100 100 100 100 100 100 100 80 100 9 5 6 60 5 11 5 5 6
100 100 100 100 100 100 100 100 100 100 100 100 95 98 99 100 100 98 100 100 100 100 100 100 100 100 100 100 100 100 100 100 100 14 25 21 95 13 5 10 85 99 87
100 100 100 100 100 100 100 100 100 100 100 100 100 93 100 100 100 100 100 100 100 100 100 100 100 100 90 99 100 100 100 50 48 22 100 99 7 4 41 75 98 8 4
100 100 100 100 100 100 100 100 100 100 100 100 100 100 88 100 100 100 100 100 100 100 100 100 100 96 99 100 100 97 28 5 88 57 80 5 5 14 13 5 1 0 0
100 100 100 100 100 100 100 100 100 100 100 100 100 100 100 100 100 100 100 100 100 100 100 100 100 100 100 82 100 100 40 98 100 19 5 5 5 5 5 5 2 4 5
100 100 100 100 100 100 100 100 100 100 100 100 100 100 100 100 100 100 100 100 100 100 100 100 100 94 87 100 99 100 75 79 100 65 68 42 5 5 5 5 55 68 98
100 100 100 100 100 100 100 100 100 100 100 100 100 100 100 100 100 100 100 100 100 100 100 99 100 100 100 91 100 100 100 100 54 40 92 86 100 100 99 100 89 36 72
100 100 100 100 100 100 100 100 100 100 100 100 100 100 100 100 100 100 100 100 100 100 100 100 100 100 100 56 100 100 96 100 97 100 78 8 72 100 100 100 100 100 98
100 100 100 100 100 100 100 100 100 100 100 100 100 100 100 100 100 100 100 98 52 80 100 100 99 100 100 92 100 100 100 100 51 100 5 41 100 100 100 99 80 100 98
100 100 100 100 100 100 100 100 100 100 100 100 100 100 100 100 100 96 91 98 87 100 63 100 100 100 100 100 100 100 100 100 100 22 100 83 17 70 89 55 31 82 100
100 100 100 100 100 100 100 100 100 100 100 100 100 99 100 100 100 100 100 100 94 100 100 88 100 100 100 100 100 100 74 70 91 14 5 5 5 5 27 13 29 34 10
100 100 100 100 100 100 100 100 100 100 100 100 100 84 98 94 100 100 100 100 100 100 84 100 100 100 100 100 99 100 30 61 12 5 6 84 92 99 98 99 98 100 83
100 100 100 100 100 100 100 100 97 85 94 99 100 93 81 100 100 100 100 100 100 100 100 100 100 100 100 5 37 68 81 5 5 9 54 100 100 100 100 100 100 100 100
66 58 88 90 95 54 10 8 29 50 94 100 91 100 100 100 100 100 100 100 100 100 100 100 100 100 56 100 18 16 13 5 90 100 100 100 100 100 100 100 100 100 100
100 48 55 100 98 100 99 100 100 100 99 100 100 100 100 100 100 100 100 100 100 100 100 100 100 100 95 88 21 74 94 100 100 100 100 100 100 100 100 100 100 100 100
58 79 9 84 100 67 93 100 100 100 100 100 100 100 100 100 100 100 100 100 100 100 100 100 100 100 100 64 42 61 100 100 100 100 100 100 100 100 100 100 100 100 100
99 43 94 93 100 100 94 100 100 100 100 100 100 100 100 100 100 100 100 100 100 100 100 100 100 100 100 75 96 100 100 100 100 100 100 100 100 100 100 100 95 40 15
100 100 100 96 98 98 82 100 100 100 100 100 100 100 100 100 100 100 100 100 100 100 100 100 100 100 99 72 100 100 100 100 100 100 100 100 99 100 100 94 43 23 12
71 26 32 100 100 100 100 100 100 100 100 100 100 100 100 100 100 100 90 100 100 83 100 100 100 100 97 100 100 100 100 100 100 100 100 100 100 96 97 66 5 5 54
87 100 100 49 100 100 100 100 100 100 100 100 100 100 100 100 100 100 100 96 100 100 100 100 100 100 97 100 100 94 100 99 100 99 100 100 100 100 78 100 59 5 5
100 98 94 100 100 100 100 100 100 100 100 100 100 100 100 100 100 100 100 100 100 100 100 100 100 95 100 100 95 97 87 76 90 98 42 43 75 100 100 64 5 5 5
100 100 100 100 100 100 100 100 100 100 100 100 100 100 100 100 100 100 100 100 100 100 100 100 100 94 87 98 98 63 84 27 69 100 100 87 100 100 59 10 5 1 5
100 100 100 100 100 100 100 100 100 100 100 100 100 100 100 100 100 100 100 100 100 100 100 99 100 100 100 93 84 97 20 68 94 100 100 67 33 11 17 92 70 5 5
100 100 100 100 100 100 100 100 100 100 100 100 100 100 100 100 100 100 100 100 100 99 86 100 100 96 93 98 89 79 84 42 97 83 100 19 10 30 65 9 34 60 18

GFSMA_prec_cloud_078.txt.gz
Cloud_Cover
100 100 100 100 100 100 100 81 98 98 94 50 40 83 32 48 99 100 79 38 52 100 99 100 100 100 98 100 100 100 100 100 100 100 100 100 100 100 99 58 6 1 2
100 100 100 100 100 100 100 92 100 50 100 82 70 62 8 27 95 83 20 92 100 100 82 100 100 100 100 100 100 100 100 100 100 100 100 100 100 51 91 5 5 5 5
100 100 100 100 100 100 100 100 71 96 95 99 93 100 38 100 100 23 73 100 100 100 100 100 100 100 100 100 100 100 100 100 100 100 100 100 100 89 8 5 64 17 1
100 100 100 100 100 100 100 100 100 100 100 100 100 100 100 36 14 70 91 78 69 100 100 100 100 100 100 100 100 100 100 100 100 100 100 78 16 87 75 28 5 5 5
100 100 100 100 100 100 100 100 100 100 100 100 100 100 95 46 7 56 82 100 100 100 100 100 100 100 100 100 100 100 100 100 100 99 30 9 5 5 17 25 6 2 0
100 100 100 100 100 100 100 100 100 100 100 100 100 100 82 100 95 78 97 100 100 100 100 100 100 100 100 100 100 100 100 100 90 89 5 5 8 5 5 5 5 5 4
100 100 100 100 100 100 100 100 100 100 100 99 100 100 100 100 100 100 100 100 100 100 100 100 100 100 100 100 100 100 100 94 24 67 86 84 5 5 5 5 5 5 5
100 100 100 100 100 100 90 100 92 80 95 98 100 100 100 100 100 100 100 100 100 100 100 100 100 100 100 100 100 95 100 100 74 63 99 100 98 27 13 51 30 82 38
100 100 100 100 100 100 100 100 100 100 100 100 100 100 100 100 100 100 100 100 100 100 100 100 100 100 100 100 100 98 100 100 100 100 100 78 81 100 97 100 100 100 93
100 100 100 100 100 100 100 100 100 100 100 100 100 100 100 100 100 100 100 100 100 100 100 100 100 100 100 68 100 100 91 100 100 100 100 5 73 34 13 100 100 100 86
100 100 100 100 100 100 100 100 100 100 100 100 100 100 100 100 100 100 100 100 100 100 100 100 100 61 100 100 100 100 100 100 100 100 55 72 20 5 30 30 39 100 55
100 100 100 100 100 100 100 100 100 100 100 100 100 100 100 100 100 100 100 100 100 100 100 100 100 100 100 93 80 100 100 100 100 82 23 5 5 5 5 5 5 38 25
100 100 100 100 100 100 100 100 100 100 100 100 100 100 100 100 100 100 100 100 100 100 84 98 100 48 100 71 100 100 100 100 100 95 90 29 5 5 5 28 100 100 100
100 100 100 100 100 100 100 100 100 100 99 100 100 100 100 100 100 100 100 100 100 100 100 100 100 100 100 100 100 100 100 100 99 8 5 5 5 45 65 100 100 100 100
100 100 100 100 100 100 100 92 73 7 56 80 100 100 100 100 100 100 94 100 100 100 100 99 99 100 100 100 100 100 100 99 36 5 5 7 100 100 100 100 100 100 100
100 100 100 100 100 100 100 100 93 62 84 98 42 100 98 100 99 100 100 100 100 100 100 96 100 100 100 100 100 100 78 5 5 13 39 100 100 100 100 100 100 100 100
100 100 100 100 100 62 50 38 30 22 56 100 100 100 84 84 100 100 100 100 100 100 100 100 100 100 100 100 89 97 92 55 23 86 100 100 100 100 100 100 100 100 23
100 100 83 49 8 35 95 6 72 85 100 100 100 97 90 100 100 100 100 100 100 100 100 100 100 100 100 59 92 100 94 72 49 100 100 100 100 100 100 100 92 85 100
88 67 44 63 5 8 88 70 94 90 97 91 76 77 100 100 100 100 100 100 100 100 100 100 99 98 100 100 100 100 100 97 97 100 100 100 100 100 98 84 69 22 51
28 23 78 86 100 100 100 100 100 100 100 100 100 100 100 100 100 100 100 100 100 100 100 100 100 99 100 99 90 100 99 92 100 100 100 100 99 100 96 94 62 61 100
28 6 19 53 79 100 100 100 100 100 100 94 100 100 100 100 100 100 100 100 100 100 100 100 100 100 100 100 100 100 100 98 100 100 100 84 92 77 65 97 92 100 76
31 5 27 44 100 100 100 96 100 100 100 100 100 100 100 100 100 100 100 100 100 100 100 100 100 100 100 100 100 80 100 100 100 100 81 80 91 100 40 74 100 100 31
12 11 35 27 86 79 100 100 100 60 100 100 100 100 100 100 100 100 100 100 100 100 100 100 100 100 100 100 100 100 100 100 90 100 56 29 86 72 91 96 98 98 24
15 31 36 67 100 100 100 100 100 100 100 100 100 100 100 100 100 100 100 100 100 100 100 100 100 100 100 100 100 92 99 100 100 100 100 14 91 82 76 100 99 35 15
92 96 100 47 100 100 100 100 100 100 100 100 100 100 100 100 100 100 100 100 100 100 100 100 100 100 100 100 87 99 100 100 99 99 100 100 99 48 49 96 66 91 100
100 100 100 100 100 100 100 100 100 100 100 100 100 100 100 100 100 100 100 100 100 100 100 100 100 100 98 100 100 100 100 100 100 100 100 100 100 98 73 99 100 100 92

GFSMA_prec_cloud_081.txt.gz
Cloud_Cover
100 100 100 100 100 100 100 100 100 100 100 100 33 75 28 60 100 96 98 100 100 95 100 100 49 99 100 96 100 98 99 100 100 100 100 100 100 95 100 100 100 100 100
100 100 100 100 100 100 100 100 100 92 98 65 100 98 95 31 51 61 95 81 6 100 100 100 99 100 76 100 100 100 100 100 100 100 100 100 100 100 100 100 100 45 19
100 100 100 100 100 100 99 100 99 100 100 59 100 100 86 85 100 99 100 47 100 100 59 99 74 98 100 100 100 100 100 100 100 100 100 100 100 100 100 100 29 5 4
100 100 100 100 100 100 100 100 100 100 100 100 100 82 100 100 88 65 70 37 35 59 84 100 100 100 100 100 100 100 100 100 100 100 100 100 100 66 32 5 2 5 4
100 100 100 100 100 100 100 100 100 100 100 100 99 92 100 100 92 100 94 58 70 57 85 99 100 100 100 100 100 100 100 100 100 100 100 100 100 94 40 5 5 5 78
100 100 100 100 100 100 100 100 100 100 100 100 100 100 100 100 98 100 98 100 100 94 86 100 100 100 100 100 100 100 100 100 100 100 100 100 62 5 5 6 5 5 4
100 100 100 100 100 100 100 100 100 100 100 100 100 100 100 100 100 100 100 100 100 100 100 100 100 100 100 100 100 100 100 100 100 100 100 94 18 5 5 6 100 5 4
100 100 100 100 100 100 100 100 100 100 100 100 100 100 100 100 100 100 100 100 100 100 100 100 100 100 100 100 100 100 100 100 100 97 100 84 11 18 11 77 21 17 33
100 100 100 100 100 100 100 100 100 100 100 100 100 100 100 100 100 100 100 100 100 100 100 100 100 100 100 100 100 100 100 100 100 100 98 80 100 100 100 100 100 100 100
100 100 100 100 100 100 100 100 100 100 100 100 100 100 100 100 100 100 100 100 100 100 100 100 100 100 100 100 100 100 100 100 97 35 54 100 100 100 100 100 33 27 23
100 100 100 100 100 100 100 100 100 100 100 100 100 100 100 100 100 100 100 100 100 100 100 100 100 100 100 100 100 100 95 92 83 89 98 100 100 100 96 5 13 5 5
100 100 100 100 100 100 100 100 100 100 100 100 100 100 100 100 100 100 100 100 100 100 100 100 100 100 98 86 38 84 74 80 99 75 100 100 100 26 5 5 5 13 92
100 100 100 100 100 100 100 100 100 100 100 100 100 100 100 100 100 100 100 100 100 100 100 100 100 99 71 37 84 44 100 100 100 100 100 100 47 5 7 5 45 100 100
100 100 100 100 100 100 100 100 100 100 100 100 100 100 100 100 100 100 100 100 100 100 77 95 98 92 99 84 29 7 99 100 100 100 100 8 5 5 6 5 8 28 16
100 100 100 100 100 100 100 100 100 100 100 100 100 100 100 100 100 100 100 90 90 100 86 53 50 100 95 28 72 100 100 100 100 76 5 5 5 5 5 6 9 39 94
91 100 100 100 100 100 100 100 100 100 100 100 100 100 100 100 99 65 53 100 100 97 100 100 100 94 96 82 100 100 100 100 60 5 7 5 13 5 10 96 49 74 5
100 100 80 75 65 99 100 100 100 100 100 86 81 81 49 99 97 100 100 100 99 100 100 100 100 100 100 81 100 100 100 36 5 14 75 100 45 99 100 92 90 53 12
100 100 100 100 100 100 84 6 5 5 5 20 88 91 92 65 74 98 93 100 100 100 100 100 100 100 100 100 100 100 97 44 74 100 100 100 100 100 100 100 70 11 26
38 88 100 100 100 100 100 99 5 21 5 5 10 6 70 100 87 81 100 100 100 100 100 100 100 100 100 100 99 89 87 99 100 100 100 100 31 71 99 100 100 100 56
4 7 25 66 37 46 58 54 40 42 78 95 55 52 68 98 100 100 100 98 98 100 100 100 100 100 100 100 100 100 100 100 100 100 100 98 99 100 100 99 100 100 93
1 4 5 5 5 6 61 53 27 72 85 96 43 89 100 100 100 100 100 100 100 100 100 100 100 100 100 100 100 98 100 100 100 100 99 97 81 98 100 100 100 100 100
80 4 2 4 5 3 5 5 74 95 33 100 79 92 100 100 100 99 100 100 100 100 100 100 100 100 100 100 100 100 100 100 100 100 100 100 100 83 100 89 90 100 100
45 94 100 99 50 8 5 75 38 100 100 100 100 79 100 100 100 100 100 100 100 100 100 100 100 100 100 100 100 100 100 100 100 100 91 92 100 98 100 100 100 100 100
100 100 27 94 100 100 10 5 93 32 98 94 95 100 100 100 100 100 100 100 100 100 100 100 100 100 100 100 100 100 100 100 100 100 100 100 100 100 94 83 100 100 100
93 80 100 100 95 67 100 100 100 94 98 100 100 100 100 100 100 100 100 100 100 100 100 100 100 100 100 100 100 100 100 100 100 100 100 100 100 100 99 100 100 100 100
89 100 100 100 100 100 100 100 100 100 100 100 100 100 100 100 100 100 100 100 100 100 100 100 100 100 100 100 100 100 100 100 100 100 100 100 100 100 100 100 100 100 100

GFSMA_prec_cloud_084.txt.gz
Cloud_Cover
100 100 100 100 100 100 100 91 100 100 100 100 100 100 100 87 83 72 90 66 17 100 100 100 96 89 58 100 100 75 100 100 100 75 97 100 100 100 100 92 100 100 100
100 100 100 100 100 100 100 100 100 100 100 100 100 100 100 100 97 100 85 96 95 94 100 96 100 100 100 100 100 100 100 100 93 100 100 100 100 100 100 100 100 100 100
100 100 100 100 100 100 100 100 100 100 100 100 100 100 100 100 100 100 98 84 100 95 89 100 27 92 99 100 89 100 100 100 100 100 100 100 100 100 100 100 100 100 100
100 100 100 100 100 100 84 100 100 100 100 100 100 69 100 100 100 91 95 100 100 100 93 99 89 99 100 100 100 100 100 100 100 100 100 100 100 100 100 100 100 100 91
100 100 100 100 100 100 100 100 100 100 100 100 100 100 100 100 100 74 96 86 100 78 89 100 100 100 100 100 100 100 100 100 100 100 100 100 100 100 100 100 100 100 5
100 100 100 100 100 100 100 100 100 100 100 100 100 100 100 100 98 94 100 100 100 99 90 97 100 100 100 100 100 100 100 100 100 100 100 100 100 100 100 100 60 8 86
100 100 100 100 100 100 100 100 100 100 100 100 100 100 100 100 100 100 100 100 74 98 100 100 100 100 100 100 100 100 100 100 100 100 100 100 100 100 100 100 100 27 91
100 100 100 100 100 100 100 95 100 100 100 100 100 100 100 100 100 100 100 100 100 100 100 100 100 100 100 100 100 100 100 100 100 100 100 100 100 92 55 62 15 15 89
100 100 100 100 100 100 100 100 100 100 100 100 100 100 100 100 100 100 100 100 100 100 100 100 100 100 100 100 100 100 100 100 100 100 100 100 100 92 100 11 42 98 96
100 100 100 100 100 100 100 100 100 100 100 100 100 100 100 100 100 100 100 100 100 100 100 100 100 100 100 100 100 100 100 100 100 100 100 100 48 39 100 100 100 60 20
100 100 100 100 100 100 100 100 100 100 100 100 100 100 100 100 100 100 83 99 100 100 100 100 100 100 100 100 100 100 100 100 98 64 100 94 100 100 100 100 39 42 6
100 100 100 100 100 100 100 100 100 100 100 100 100 100 100 100 100 100 100 100 100 100 100 100 100 100 100 100 100 100 100 25 5 5 20 100 80 82 93 56 50 24 5
100 100 100 100 100 100 100 100 100 100 100 100 100 100 100 100 100 100 100 100 100 100 100 100 100 100 100 100 100 56 63 58 41 38 49 92 64 100 100 14 3 5 5
100 100 100 100 100 100 100 100 100 100 100 100 100 100 100 100 100 100 100 100 100 100 100 100 100 100 100 100 94 20 38 94 100 100 100 39 100 100 29 5 5 5 5
100 100 100 100 100 100 100 100 100 100 100 100 100 100 100 100 100 100 100 100 100 100 100 100 100 90 96 98 87 78 43 100 100 70 46 100 92 30 5 5 6 6 5
100 100 100 100 100 100 100 100 100 100 100 100 100 100 100 100 100 100 100 100 100 100 100 100 100 80 37 76 100 88 10 60 13 50 100 100 45 5 52 27 100 35 5
34 98 100 100 100 100 100 100 100 100 100 100 100 100 100 100 100 100 100 100 100 98 99 88 91 97 89 100 98 81 20 29 90 100 87 6 5 84 100 100 100 95 47
3 21 80 88 77 100 100 100 100 100 100 100 100 100 100 100 100 100 100 100 99 24 98 100 100 100 100 100 100 100 95 31 68 98 33 100 100 100 100 100 100 100 100
3 14 79 82 100 63 13 52 92 100 97 94 72 90 84 90 38 98 97 84 100 100 100 100 100 100 100 100 100 100 100 98 100 100 100 100 100 100 100 100 100 100 100
16 23 18 3 9 26 79 99 67 15 27 18 35 17 85 74 32 100 100 92 93 100 100 100 100 100 77 69 100 82 99 100 100 100 100 100 100 100 100 100 100 89 82
64 14 24 6 5 11 5 5 5 6 5 5 100 87 68 92 80 98 96 100 100 100 100 100 100 100 100 100 100 100 100 100 100 100 98 100 97 100 100 100 100 97 96
100 33 28 22 35 10 5 5 5 5 5 5 6 34 93 78 67 100 100 100 100 100 100 100 100 100 100 100 100 100 100 100 100 100 100 100 98 69 100 100 100 100 100
92 66 23 100 100 100 100 100 97 85 97 82 68 50 97 100 100 100 100 100 100 100 100 100 100 100 100 100 100 100 100 100 100 100 100 100 100 100 100 100 100 100 100
52 76 80 88 77 95 96 100 100 100 96 21 46 64 59 88 96 100 100 100 100 100 100 100 100 100 100 100 100 100 100 100 100 100 100 100 100 100 100 100 100 100 100
57 100 100 100 54 77 95 98 52 75 99 100 100 100 94 100 100 100 100 100 100 100 100 100 100 100 100 100 100 100 100 100 100 100 100 100 100 87 100 100 100 100 100
100 100 100 100 100 100 100 99 99 100 100 100 100 100 100 100 100 100 100 100 100 100 100 100 100 100 100 100 100 100 100 100 100 100 100 100 100 100 100 100 100 100 100

GFSMA_prec_cloud_087.txt.gz
Cloud_Cover
100 100 100 100 100 100 83 90 70 93 94 100 100 100 100 100 100 100 100 100 99 66 96 100 100 100 96 80 87 96 98 100 59 85 100 100 100 99 100 84 95 100 100
100 100 100 100 100 100 90 100 100 100 87 100 99 100 100 100 100 100 100 100 100 97 57 100 100 100 100 100 87 98 95 100 98 85 100 100 100 92 100 100 100 100 100
100 100 100 100 100 100 93 79 99 61 100 100 99 100 100 100 100 100 92 100 100 86 97 100 100 100 100 64 88 50 94 100 100 99 100 100 100 100 100 100 100 100 12
100 100 100 100 100 100 100 90 90 96 100 100 100 100 100 100 100 100 100 100 100 95 100 100 100 100 99 63 100 97 99 95 100 100 100 100 100 100 100 100 100 100 100
100 100 100 100 100 100 100 100 98 100 100 100 100 100 100 100 100 100 100 100 100 100 100 100 100 96 92 100 43 64 99 100 100 100 100 100 100 100 98 92 100 100 100
100 100 100 100 100 100 100 100 100 99 100 100 100 100 100 100 100 100 100 100 100 100 100 100 100 99 100 100 90 84 99 100 100 100 100 100 100 100 100 100 100 100 100
100 100 100 100 100 100 100 100 100 100 100 100 100 100 100 100 100 100 100 100 100 100 100 100 100 100 100 100 100 100 100 100 100 100 100 100 100 100 100 100 100 100 5
100 100 100 100 100 100 100 100 100 97 100 100 100 100 100 99 100 100 100 100 100 100 100 100 100 100 100 100 100 100 100 100 100 100 100 100 100 100 100 100 88 7 5
100 100 100 100 100 100 100 100 100 99 100 99 100 100 100 100 100 100 100 100 100 100 99 86 99 100 100 100 100 100 100 100 100 100 100 100 100 95 100 89 80 100 14
100 100 100 100 100 100 100 100 100 100 100 100 100 100 100 100 100 100 100 100 100 100 100 100 100 100 100 100 100 100 100 100 100 100 100 100 100 60 100 100 53 100 96
100 100 100 100 100 100 100 100 100 100 100 100 100 100 100 100 100 100 100 100 100 100 100 100 100 100 100 100 99 100 100 100 100 100 100 100 100 100 93 70 100 100 100
100 100 100 100 100 100 100 100 100 100 100 100 100 100 100 100 100 100 100 100 100 100 100 100 100 97 100 100 100 100 100 100 100 100 100 99 8 5 100 43 84 99 68
100 100 100 100 100 100 100 100 100 100 100 100 100 100 100 100 100 100 100 98 100 96 100 100 100 100 100 100 100 100 100 100 100 100 96 5 72 90 34 9 66 34 91
100 100 100 100 100 100 100 100 100 100 100 100 100 100 100 100 100 100 100 99 71 99 100 100 100 100 100 100 100 100 100 100 100 100 99 93 100 99 61 10 92 96 10
100 100 100 100 97 100 100 100 100 100 100 100 100 100 100 99 100 100 100 100 100 100 100 100 100 100 100 100 100 100 100 100 97 100 100 98 43 7 9 5 5 5 6
100 100 100 100 100 100 100 100 100 100 100 100 100 100 100 100 100 100 100 100 100 100 100 100 100 100 100 100 100 100 100 100 100 100 100 100 85 52 36 20 60 5 86
83 100 100 100 100 100 100 100 100 100 100 100 100 100 100 100 100 100 100 100 100 100 100 100 100 100 100 100 88 100 100 100 100 100 100 100 100 100 100 72 100 100 100
1 8 70 100 100 100 100 100 100 100 100 100 100 100 100 100 100 100 100 100 100 100 100 100 100 95 16 77 98 100 100 100 100 100 100 100 100 100 55 97 100 100 100
26 0 1 5 6 54 82 88 97 100 93 99 100 100 100 100 100 100 100 100 100 100 97 100 100 100 100 100 100 100 100 99 97 100 100 100 100 100 100 100 100 100 74
41 7 1 0 1 5 5 5 4 5 6 6 10 71 99 96 96 47 62 88 100 69 88 100 100 100 84 100 100 100 100 96 100 100 100 99 100 100 100 100 100 100 93
68 28 31 12 1 0 3 5 5 5 10 74 19 30 32 26 99 96 93 94 99 76 100 100 100 100 100 100 98 100 100 100 100 100 100 100 100 100 100 100 100 100 100
15 20 52 8 5 1 0 4 5 5 65 82 94 99 54 6 5 25 31 79 89 53 92 100 100 100 99 82 100 100 100 100 100 100 100 100 100 100 100 100 100 100 100
5 38 54 93 84 21 22 15 99 38 92 98 70 41 100 85 76 91 100 100 100 100 100 100 100 100 100 100 100 100 100 100 100 100 100 100 100 100 100 100 100 100 100
56 17 18 44 78 62 100 63 20 66 49 24 19 7 47 83 100 100 100 100 100 100 100 100 100 100 100 100 100 100 100 100 100 100 100 100 100 100 100 100 100 100 100
42 35 51 66 35 79 100 100 86 90 98 90 94 89 96 96 100 100 100 100 100 100 100 100 100 100 100 100 100 100 100 100 100 100 100 100 100 100 100 100 100 100 100
12 98 100 100 100 100 100 100 100 100 100 100 100 100 100 100 100 100 100 100 100 100 100 100 100 100 100 100 100 100 100 100 100 100 100 100 100 100 100 100 100 100 100

GFSMA_prec_cloud_090.txt.gz
Cloud_Cover
100 100 100 100 100 91 63 91 15 29 70 100 100 49 98 100 100 100 100 100 100 100 100 100 100 100 100 100 100 100 100 36 90 77 5 58 46 16 6 95 100 100 100
100 100 100 100 100 93 100 100 66 98 76 80 100 77 94 100 100 100 100 100 100 100 100 99 99 100 100 100 100 100 100 100 97 98 37 12 92 97 96 100 99 100 100
100 100 100 100 100 100 100 99 77 75 52 100 100 100 98 100 100 100 100 100 100 100 100 100 100 33 100 100 100 100 98 7 46 72 99 100 94 100 100 100 100 100 100
100 100 100 100 100 100 100 99 87 76 99 100 100 65 100 100 100 100 100 100 100 100 100 100 100 97 95 100 99 100 43 69 100 100 100 86 100 100 100 100 100 100 100
100 100 100 100 100 100 100 100 70 100 97 100 100 100 100 97 100 100 100 100 100 100 100 100 100 69 100 100 100 100 100 100 100 100 84 68 100 100 100 100 100 100 100
100 100 100 100 100 100 100 100 100 100 99 100 100 100 100 100 100 100 100 100 100 100 100 100 100 100 100 100 100 100 100 100 100 100 94 100 100 100 100 100 100 100 100
100 100 100 100 100 100 100 100 100 100 100 90 100 100 100 100 100 100 100 100 100 100 100 100 100 100 100 100 100 100 100 100 100 100 100 100 100 100 100 100 100 100 100
100 100 100 100 100 100 100 100 100 100 100 96 100 100 100 100 100 100 100 100 100 100 100 100 100 100 96 96 100 100 100 98 87 100 100 100 100 100 100 100 100 100 100
100 100 100 100 100 100 100 100 100 100 100 100 100 100 100 100 100 100 100 100 99 100 100 100 100 100 100 100 100 100 100 100 100 100 100 100 100 100 100 100 100 100 100
100 100 100 100 100 100 100 100 100 100 100 100 100 100 100 100 100 100 100 100 100 100 100 100 100 100 100 100 100 100 100 100 100 100 100 100 100 100 100 100 100 76 100
100 100 100 100 100 100 100 100 100 100 100 100 100 100 100 100 100 100 100 100 100 100 100 100 100 100 100 100 100 100 100 100 100 100 100 100 100 100 100 100 85 50 100
100 100 100 100 100 100 100 100 100 100 100 100 100 100 100 100 100 100 100 100 100 100 100 100 100 100 100 100 100 100 100 100 100 100 100 100 100 100 100 87 5 5 86
100 100 100 100 100 100 100 100 100 100 100 100 100 100 100 100 100 100 100 100 100 100 100 100 100 100 100 100 100 100 100 100 100 100 100 100 100 100 84 22 82 49 5
100 100 100 100 100 100 100 100 100 100 100 100 81 100 73 87 97 100 100 100 100 100 100 100 100 100 100 100 100 100 100 100 100 100 100 100 99 98 100 100 48 91 59
60 100 100 100 100 100 100 100 100 100 100 76 100 100 99 100 100 100 100 100 100 100 100 100 100 100 100 100 100 100 100 100 100 100 100 100 94 70 100 100 96 100 100
67 97 99 100 100 100 100 100 100 100 100 63 82 100 97 100 100 100 100 100 100 100 100 100 100 100 100 100 100 100 100 100 100 100 100 100 100 100 100 100 100 100 100
0 2 61 100 100 100 100 100 100 100 100 100 100 100 100 100 100 100 100 100 100 100 100 100 100 100 100 100 100 100 100 100 100 91 100 100 100 100 100 100 92 87 100
0 0 0 2 21 100 100 100 100 100 100 100 100 100 100 100 100 100 86 100 100 100 100 100 100 100 100 100 100 100 100 99 36 92 89 100 100 100 100 99 91 100 100
0 5 0 0 0 2 51 98 100 100 100 100 100 100 100 100 100 100 100 100 100 100 100 100 100 100 100 100 100 100 100 100 58 100 95 100 100 62 100 100 100 100 100
5 3 2 3 1 1 0 4 2 18 27 28 26 36 80 100 99 100 100 78 94 92 86 86 94 100 98 100 100 100 97 78 86 100 100 86 98 100 100 100 100 100 100
12 28 5 5 5 4 3 2 4 5 5 5 5 5 19 46 14 26 48 53 87 94 59 84 100 100 100 100 98 27 94 100 100 100 100 100 100 100 100 100 100 100 100
54 38 84 18 5 70 84 5 5 3 4 5 47 36 6 70 5 6 8 5 79 40 51 94 100 100 100 100 100 97 80 100 100 100 100 100 100 100 100 100 100 100 100
88 100 100 100 100 100 11 30 5 43 4 5 24 99 82 58 61 93 100 100 100 94 85 56 95 100 100 100 100 100 100 100 100 100 100 100 100 100 100 100 100 100 100
100 100 100 100 100 100 84 98 58 73 36 5 13 58 68 82 96 100 100 95 96 100 100 100 100 100 100 100 100 100 100 100 100 100 100 100 100 100 100 100 100 100 100
100 100 100 100 100 100 100 100 100 100 100 100 100 100 100 100 100 97 83 100 100 100 100 100 100 100 100 100 100 100 100 100 100 100 100 100 100 100 100 100 100 100 100
100 100 100 100 100 100 100 100 100 100 100 100 100 65 85 89 99 100 100 100 100 100 100 100 100 100 100 100 100 100 100 100 100 100 100 100 100 100 100 100 99 100 100

GFSMA_prec_cloud_093.txt.gz
Cloud_Cover
100 100 100 100 100 100 100 100 100 90 100 100 100 100 100 100 93 100 100 100 100 100 100 100 100 100 100 100 100 100 94 100 100 88 100 99 27 9 76 97 53 84 94
100 100 100 100 100 100 100 100 71 100 100 98 99 100 100 95 77 99 100 100 100 98 100 100 100 100 100 100 100 100 100 100 100 97 89 9 6 69 95 92 28 75 99
100 100 100 100 100 100 100 100 100 100 100 54 100 65 100 95 100 97 100 100 100 100 100 100 100 100 100 98 100 99 100 100 100 98 18 65 75 46 74 49 92 21 100
100 100 100 100 100 100 100 100 54 100 100 100 98 98 97 100 100 100 100 100 100 100 100 100 100 100 100 10 100 97 82 100 100 28 64 95 100 100 98 91 67 72 100
100 100 100 100 100 100 100 100 99 100 100 100 100 98 99 97 84 100 100 100 92 100 100 100 100 100 100 99 100 98 100 100 100 92 86 100 100 100 92 87 100 100 100
100 100 100 100 100 100 100 100 100 100 100 100 100 100 100 99 83 100 99 100 100 100 100 100 100 100 100 100 99 100 100 100 93 93 100 82 100 99 100 100 100 100 100
100 100 100 100 100 100 100 100 92 100 100 100 100 100 89 100 100 99 100 100 100 100 100 100 100 100 100 100 100 100 100 100 100 98 100 98 100 100 100 100 100 100 100
100 100 100 100 100 100 100 100 100 100 100 100 100 100 97 100 100 100 100 100 100 100 100 100 100 100 100 100 100 100 100 100 100 100 100 100 100 100 100 100 100 100 100
100 100 100 100 100 100 100 100 100 100 100 100 100 100 100 100 100 100 100 100 100 100 100 100 100 100 99 100 100 100 100 100 92 100 100 100 100 100 100 100 100 100 100
98 100 100 100 100 100 100 100 100 100 100 100 100 100 100 100 100 100 100 100 100 100 100 100 100 100 100 100 100 100 95 100 100 100 100 100 100 100 100 100 100 100 100
100 100 100 100 100 100 100 100 100 100 100 100 100 100 100 100 100 100 100 100 100 100 100 100 100 100 100 100 100 100 100 100 100 100 100 100 100 100 100 100 100 100 100
100 100 100 100 100 100 100 100 100 100 100 100 100 100 100 100 100 100 100 100 100 100 100 100 100 100 100 100 100 100 100 100 100 100 100 100 100 100 100 100 100 100 100
100 100 100 100 100 100 100 100 100 100 100 100 100 100 100 100 100 100 100 100 100 100 100 100 100 100 100 100 100 100 100 100 100 100 100 100 100 100 100 100 100 100 88
100 100 100 100 100 100 100 100 100 100 100 100 100 100 100 100 100 100 100 100 100 100 100 100 100 99 100 100 100 100 100 100 100 100 100 100 100 100 100 100 100 100 76
100 100 86 100 100 100 100 100 100 100 100 100 100 100 100 100 100 100 100 100 100 97 100 100 100 100 100 100 100 100 100 100 100 100 100 100 100 100 100 100 100 100 100
50 29 39 80 98 100 100 100 100 100 100 100 100 100 100 100 100 100 100 100 100 100 94 100 100 100 100 100 100 100 100 100 100 100 100 100 100 100 100 100 99 100 100
3 28 35 38 33 84 100 100 100 100 100 100 100 100 100 99 100 100 100 100 100 100 100 100 100 100 100 100 100 100 100 100 100 100 100 100 100 100 100 100 100 100 100
0 0 25 63 44 13 18 87 100 100 100 100 100 100 100 99 100 100 100 100 100 100 100 100 100 100 100 100 100 100 100 100 100 100 100 100 100 100 100 100 96 100 100
0 0 1 19 11 0 0 0 0 5 39 91 97 100 100 100 100 100 100 98 100 100 100 100 100 100 100 100 100 100 100 100 100 100 100 100 100 100 100 100 99 88 100
4 5 5 5 5 5 0 1 3 0 4 5 5 5 6 25 48 67 64 63 46 46 84 100 100 100 100 87 99 97 91 90 68 94 100 100 100 100 100 100 100 100 100
100 99 44 4 5 12 21 11 5 5 4 1 5 5 5 5 5 5 5 8 100 100 100 100 100 100 100 100 76 86 84 100 99 100 100 100 100 100 100 99 100 100 100
55 90 100 100 65 21 100 100 100 93 82 5 41 5 5 5 5 5 5 5 36 94 100 100 100 100 100 100 84 100 80 99 100 100 100 100 100 100 100 100 100 100 100
100 86 63 81 99 100 100 100 100 100 98 44 13 49 30 32 5 31 30 47 30 95 100 100 100 99 15 24 99 100 100 100 100 100 100 100 100 100 100 100 100 100 100
100 100 100 100 100 100 89 82 100 66 60 76 70 100 100 98 84 52 26 14 14 66 99 100 100 99 100 100 100 100 100 100 100 100 100 100 100 100 100 100 100 100 100
100 100 100 100 100 100 100 100 100 100 100 100 100 100 100 100 90 100 100 100 100 100 100 100 100 100 100 100 100 100 100 100 100 100 100 100 100 100 100 100 100 100 100
100 100 100 100 100 100 100 100 100 100 100 100 100 100 100 100 100 100 100 100 100 100 100 100 100 100 100 100 100 100 100 100 100 100 100 100 100 100 100 100 100 100 100

GFSMA_prec_cloud_096.txt.gz
Cloud_Cover
100 100 100 100 100 100 100 100 100 90 98 84 71 99 95 96 92 96 100 100 100 100 100 100 100 100 100 100 100 100 100 100 100 100 100 99 100 78 36 8 5 93 79
100 100 100 100 100 100 100 100 100 100 100 59 95 92 79 59 100 100 100 97 100 100 100 100 100 100 100 100 100 100 100 100 100 100 100 100 100 26 5 34 5 97 84
100 100 100 100 100 100 100 100 100 100 100 99 62 100 99 100 95 100 80 100 100 100 100 100 100 100 100 100 100 100 100 100 100 100 100 100 96 86 20 61 76 99 100
100 100 100 100 100 100 100 100 100 100 100 100 85 98 100 88 100 98 70 100 100 100 100 100 100 100 100 100 99 100 100 100 99 99 100 100 100 90 100 95 82 92 100
100 100 100 100 100 100 100 100 100 100 100 100 97 48 99 100 89 99 55 100 100 100 100 100 100 100 100 100 100 100 100 100 53 100 100 100 51 34 96 98 99 100 99
100 100 100 100 100 100 100 100 100 100 100 100 68 100 100 100 100 88 80 100 100 100 100 100 100 100 100 100 100 100 100 79 100 96 96 91 100 96 100 100 100 100 100
100 100 100 100 100 100 100 100 100 100 100 100 100 83 91 91 69 100 100 99 100 100 100 100 100 100 100 100 100 100 100 100 88 100 100 100 86 84 100 100 100 100 100
100 100 100 100 100 100 100 100 100 100 100 100 100 100 100 100 97 100 100 78 97 100 99 100 100 100 100 100 100 100 100 100 100 100 100 100 100 100 100 100 100 100 100
100 100 100 100 100 100 100 100 100 100 100 100 100 98 100 100 100 100 100 96 95 100 100 100 100 100 100 100 100 100 100 100 100 100 100 100 100 100 100 100 100 100 100
96 100 100 100 100 100 100 100 100 100 100 100 100 100 100 100 100 100 100 100 100 100 100 100 100 100 100 100 100 100 100 100 100 100 100 100 100 100 100 100 100 100 100
14 100 100 100 100 100 100 100 100 100 100 100 100 100 100 100 100 100 100 100 100 100 100 100 100 100 100 100 100 100 100 100 100 100 100 100 100 100 100 100 94 99 100
100 97 100 100 100 100 100 100 100 100 100 100 100 100 100 100 100 100 100 100 100 100 100 100 100 100 100 100 100 100 100 100 100 100 100 100 100 100 100 100 100 100 100
100 100 97 100 100 100 100 100 100 100 100 100 100 100 100 100 100 100 100 100 100 100 100 100 100 100 100 100 100 100 100 100 100 100 100 100 100 100 100 100 100 100 100
100 100 100 100 100 100 100 100 100 100 100 100 100 100 100 100 100 100 100 100 100 100 100 100 100 100 100 100 100 100 100 100 100 100 100 100 100 100 100 100 100 100 100
100 100 100 100 100 100 100 100 100 100 100 100 100 100 100 100 100 100 100 100 100 100 100 100 100 100 100 94 100 100 100 100 100 100 100 100 100 100 100 100 100 100 100
100 100 100 100 100 100 100 100 100 100 100 100 100 100 100 100 100 100 100 100 100 100 100 100 100 100 100 100 100 100 100 100 100 100 100 100 100 100 100 100 100 100 100
79 96 100 100 95 96 90 100 100 99 100 100 100 100 100 100 100 100 100 100 100 100 100 100 100 100 100 100 100 100 100 100 100 100 100 100 100 100 100 100 100 100 92
33 0 30 90 100 100 97 100 100 100 100 100 100 100 100 100 100 100 100 100 100 100 100 100 100 100 100 100 100 100 100 100 100 100 100 100 100 100 100 100 98 100 100
5 11 18 50 50 98 100 100 100 60 11 45 88 100 100 100 100 100 100 100 100 100 100 100 100 100 90 100 100 100 100 98 100 100 100 100 99 85 64 100 43 19 100
16 30 40 31 32 47 100 100 100 59 7 4 5 6 86 100 100 100 47 6 42 86 98 100 100 97 82 100 100 100 100 95 69 96 99 89 7 40 90 93 80 80 100
66 16 4 5 7 99 84 90 81 76 55 100 69 34 24 22 49 31 46 27 100 100 100 100 100 100 78 77 100 100 100 100 98 99 100 100 98 99 75 42 56 98 100
5 6 9 59 50 5 5 14 73 86 94 100 100 100 100 100 5 16 39 97 100 63 72 99 100 100 100 100 100 100 100 100 100 100 74 71 97 87 74 100 100 100 94
44 26 76 41 74 70 75 96 78 84 56 29 100 100 100 85 100 100 100 100 41 48 20 14 17 59 100 100 100 100 98 100 100 100 100 100 100 100 100 100 100 100 100
100 99 98 86 96 100 100 100 100 100 96 87 70 71 21 5 48 93 88 98 92 94 85 66 68 97 100 100 100 100 85 100 100 100 100 100 100 100 100 100 100 100 100
100 100 100 100 100 100 100 100 100 100 100 100 100 100 100 100 100 100 100 100 100 100 100 100 100 100 100 100 100 100 100 100 100 100 100 100 100 100 100 100 100 100 100
100 100 100 100 100 100 100 100 100 100 100 100 100 100 100 100 100 100 100 100 100 100 100 100 100 100 100 100 100 100 100 100 100 100 100 100 100 100 100 100 100 100 100

GFSMA_prec_cloud_099.txt.gz
Cloud_Cover
100 98 100 96 100 100 100 100 100 100 100 100 100 84 99 100 44 73 99 100 44 100 100 100 100 100 96 100 100 100 100 100 100 100 100 100 100 94 100 94 99 100 58
94 100 100 100 100 100 100 100 100 100 100 100 74 94 100 100 70 70 61 100 45 100 100 100 100 100 100 100 100 100 100 100 100 98 100 100 98 100 100 100 89 100 95
77 100 100 100 100 100 100 100 100 100 100 51 84 98 40 72 72 69 97 76 100 100 95 100 100 100 100 100 100 100 100 100 100 100 100 100 100 100 100 100 100 100 100
87 100 100 100 100 100 100 100 100 100 100 100 100 100 86 90 100 99 100 99 95 100 100 100 100 100 100 100 100 100 100 100 100 100 100 100 100 100 100 100 100 100 100
83 100 100 100 100 100 100 100 100 100 100 100 100 98 95 74 91 48 99 100 90 90 99 100 100 100 100 100 100 100 100 100 100 100 100 100 100 100 100 100 100 100 100
100 100 100 100 100 100 100 100 100 100 100 100 100 94 92 100 97 94 100 96 100 84 100 100 100 100 100 100 100 100 100 100 100 100 100 100 100 100 100 100 100 100 100
100 100 100 100 100 100 100 100 100 100 100 100 100 100 100 99 100 100 100 100 100 91 97 77 100 100 100 100 100 100 100 100 100 100 100 100 100 100 100 100 100 100 100
100 100 100 100 100 100 100 100 100 100 100 100 100 97 100 100 100 100 100 98 99 86 98 100 100 100 98 100 100 100 100 100 100 100 100 100 100 100 100 100 100 100 100
100 100 100 100 100 100 100 100 100 100 100 100 100 100 100 100 100 100 100 97 92 89 91 98 86 98 100 100 100 100 100 100 100 100 100 100 100 100 100 100 100 100 100
87 100 100 100 100 100 100 100 100 100 100 100 98 100 100 100 100 100 100 100 100 100 93 92 95 100 100 100 100 100 100 100 100 100 100 100 100 100 100 100 100 100 100
21 76 100 100 100 100 100 100 100 100 100 100 100 100 100 100 100 100 100 100 100 100 99 100 99 100 100 100 100 100 100 100 100 100 100 100 100 100 100 100 100 100 100
100 57 92 100 100 100 100 100 100 100 100 100 100 100 100 100 100 100 100 100 100 100 100 100 100 100 100 100 100 100 100 100 100 100 100 100 100 100 100 100 100 100 100
82 78 100 100 100 100 100 100 100 100 100 100 100 100 100 100 100 100 100 100 100 100 100 100 100 100 100 100 100 100 100 100 100 100 100 100 100 100 100 100 100 100 100
100 100 100 100 100 98 100 100 100 100 100 100 100 100 100 100 100 100 100 100 100 100 100 100 100 100 100 100 100 100 100 100 100 100 100 100 100 100 100 100 100 100 100
100 100 100 100 100 100 100 100 100 100 100 100 100 100 100 100 100 100 100 100 100 100 100 100 100 100 100 100 100 100 100 100 100 100 100 100 100 100 100 100 100 100 100
100 100 100 92 100 100 100 100 100 100 100 100 100 100 100 100 100 100 100 100 100 100 100 100 100 100 100 100 100 100 100 100 100 100 100 100 100 100 100 100 100 100 100
100 100 100 99 100 100 100 100 100 100 100 100 100 100 100 100 100 100 93 84 100 100 100 100 100 100 100 100 100 100 100 100 100 100 100 100 100 100 100 100 100 100 100
100 100 100 100 100 100 100 100 100 100 100 100 100 100 100 100 100 100 100 96 100 100 100 100 100 100 100 100 100 100 100 100 100 100 100 100 94 100 100 100 100 100 100
90 52 63 96 100 100 100 100 100 98 100 100 100 100 100 100 100 100 100 100 100 100 100 100 97 94 100 100 100 85 100 100 96 100 100 100 100 100 100 100 100 100 100
100 76 27 25 60 85 100 100 100 100 100 100 100 99 99 100 100 100 100 100 81 100 100 100 54 5 27 13 31 14 18 49 36 60 67 83 100 100 100 100 100 95 82
100 100 60 80 24 27 55 69 89 100 100 100 100 80 15 26 76 76 100 100 100 100 100 100 100 54 11 22 38 12 32 9 33 32 14 45 86 100 100 100 100 100 100
98 100 96 22 15 7 5 6 20 34 67 100 93 14 52 81 99 98 78 78 70 82 100 100 93 48 38 68 54 83 62 100 98 100 72 23 19 26 93 100 100 100 100
80 100 100 90 23 21 81 63 28 41 53 83 86 71 89 97 98 100 93 62 87 91 100 79 100 100 100 100 100 100 94 52 31 82 94 100 100 100 100 100 100 100 100
100 100 100 100 98 100 100 96 97 100 100 100 100 100 87 98 93 84 75 88 99 100 99 100 100 100 100 100 100 100 100 100 100 100 100 100 100 100 100 100 100 100 100
100 100 100 100 100 100 100 100 100 100 100 100 100 100 100 100 100 100 100 100 100 100 100 100 100 100 100 100 100 100 100 100 100 100 100 100 100 100 100 100 100 100 100
100 100 100 100 100 100 100 100 100 100 100 100 100 100 100 100 100 100 100 100 100 100 100 100 100 100 100 100 100 100 100 100 100 100 100 100 100 100 100 100 100 100 100

GFSMA_prec_cloud_102.txt.gz
Cloud_Cover
99 40 100 100 100 100 100 100 100 100 100 100 100 90 100 100 100 98 100 77 94 89 95 99 100 100 78 100 89 100 100 100 100 100 100 100 100 100 100 100 100 100 100
100 100 100 99 99 96 100 100 100 100 100 100 100 98 100 88 100 100 100 100 100 100 100 99 96 94 99 100 100 100 100 100 100 100 100 100 100 100 100 100 100 100 100
100 76 75 86 74 89 100 100 100 100 100 100 100 100 100 100 100 100 100 94 100 99 96 76 99 90 74 100 100 100 100 100 100 100 100 100 100 100 100 100 100 100 100
72 86 60 27 100 100 100 100 100 100 100 100 100 100 99 100 100 100 83 99 100 100 86 95 100 97 72 100 100 100 100 100 100 100 100 100 100 100 100 100 99 100 100
84 94 94 100 100 100 100 100 100 100 100 100 100 100 100 92 74 100 100 97 100 86 98 99 100 100 100 100 100 100 100 100 100 100 100 100 100 100 100 100 100 100 100
98 72 100 100 100 100 100 100 100 100 100 100 100 100 100 100 100 100 100 100 85 100 100 100 83 100 100 100 100 100 100 100 100 100 100 100 100 100 100 100 100 100 100
36 55 100 100 100 100 100 100 100 100 100 100 100 100 100 100 100 100 100 100 100 100 100 100 100 89 100 100 100 100 100 100 100 100 100 100 100 100 100 100 100 100 100
59 52 100 100 100 100 100 100 100 100 100 100 100 100 100 100 100 100 100 100 95 100 100 81 90 95 97 97 99 100 100 100 100 100 100 100 100 100 100 100 100 100 100
90 88 100 100 100 100 100 100 100 100 100 100 100 100 100 100 100 100 100 100 93 100 87 96 96 100 100 96 100 99 96 100 100 100 100 100 100 100 100 100 100 100 100
88 100 100 100 100 100 100 100 100 100 100 100 100 100 100 100 100 100 100 100 100 99 89 93 100 100 80 97 88 100 100 100 100 100 100 100 100 100 100 100 100 100 100
81 99 98 100 100 100 100 100 100 100 100 100 100 100 100 100 100 100 100 100 100 94 100 99 99 100 98 100 100 100 100 100 100 100 100 100 100 100 100 100 100 100 100
98 100 97 100 100 100 100 100 100 100 100 100 100 100 100 100 100 100 100 100 100 100 93 99 100 98 100 100 100 100 100 100 100 100 100 100 100 100 100 100 100 100 100
100 94 81 96 100 100 100 100 100 100 100 100 100 100 100 100 100 100 100 100 100 95 92 99 100 100 100 100 100 100 100 100 100 100 100 100 100 100 100 100 100 100 100
99 68 56 55 100 100 100 100 100 100 100 99 100 100 100 100 100 100 100 100 100 98 100 100 100 100 100 100 100 100 100 100 100 100 100 100 100 100 100 100 100 100 100
84 100 100 100 100 100 100 100 100 100 100 100 100 100 100 100 100 100 100 100 100 100 100 100 100 100 100 100 100 100 100 100 100 100 100 100 100 100 100 100 100 100 100
60 78 100 100 100 100 98 99 100 100 100 100 100 100 100 100 100 100 100 100 100 100 100 100 100 100 100 100 100 97 100 78 100 100 100 100 100 93 100 100 100 97 100
59 88 100 100 100 100 100 100 100 100 100 100 100 100 100 100 100 100 100 100 100 100 100 100 100 100 100 100 100 100 100 100 100 100 100 100 100 100 100 100 98 100 100
42 100 100 90 100 100 100 100 100 100 100 100 100 100 100 100 100 100 100 100 100 100 100 100 100 100 100 100 100 97 91 90 95 100 100 100 100 100 100 100 100 68 90
100 97 100 100 100 100 87 83 99 85 100 100 100 100 100 100 100 100 100 100 100 100 100 100 100 99 100 94 85 64 70 31 24 67 80 93 99 94 96 98 99 94 100
100 100 100 100 100 100 79 90 92 86 70 95 82 49 61 93 97 100 100 100 100 100 100 100 97 77 99 65 87 29 49 5 46 52 6 5 38 20 40 81 56 44 36
100 100 100 100 100 96 75 73 70 66 47 48 90 74 48 5 1 18 62 48 98 98 100 100 100 38 96 100 100 80 22 33 52 62 5 7 7 22 25 64 27 9 15
100 100 100 100 100 100 100 73 84 100 100 100 100 84 100 100 100 79 12 8 34 96 100 100 100 99 100 100 94 100 94 8 70 100 100 94 38 27 100 100 100 100 100
100 100 100 100 100 100 100 82 69 100 100 100 100 81 57 100 100 100 95 52 54 58 40 67 69 78 83 92 93 73 66 77 100 100 100 100 100 100 100 100 100 100 100
100 100 100 100 100 100 100 100 100 100 100 100 100 100 100 100 100 100 100 100 100 100 100 100 100 100 100 100 100 100 100 100 100 100 100 100 100 100 100 100 100 100 100
100 100 100 100 100 100 100 100 100 100 100 100 100 100 100 100 100 100 100 100 100 100 100 100 100 100 100 100 100 100 100 100 100 100 100 100 100 100 100 100 100 100 100
100 100 100 100 100 100 100 100 100 100 100 100 100 100 100 100 100 100 100 100 100 100 100 100 100 100 100 100 100 100 100 100 100 100 100 100 100 100 100 100 100 100 100

GFSMA_prec_cloud_105.txt.gz
Cloud_Cover
69 31 29 32 46 31 37 49 100 100 100 100 100 100 100 100 100 58 81 100 86 100 100 100 97 22 9 25 97 100 100 100 100 100 100 100 100 100 100 100 100 100 100
48 74 35 82 86 87 22 88 100 100 100 100 100 100 100 100 100 100 98 100 100 96 83 87 100 91 46 100 100 100 100 100 100 100 100 100 100 100 100 100 100 100 100
55 97 74 66 100 41 29 100 97 100 100 100 100 100 100 100 100 100 100 100 92 70 100 46 100 86 58 100 100 100 100 100 100 100 100 100 100 100 100 100 100 100 100
77 62 98 71 92 18 56 89 100 100 100 100 100 100 100 100 100 100 100 100 100 96 95 100 100 100 60 100 100 100 100 100 100 100 100 100 100 100 100 100 100 100 100
44 82 34 63 100 100 92 100 100 100 100 100 100 100 100 100 100 100 100 100 99 99 99 98 100 100 98 97 95 96 100 100 100 100 100 100 100 100 100 100 100 100 100
18 99 98 97 92 91 100 100 91 100 100 100 100 100 100 100 100 100 100 100 84 100 100 100 100 100 100 100 88 100 100 100 100 100 100 100 100 100 100 100 100 100 100
72 98 73 97 94 100 100 100 100 100 100 100 100 100 100 100 100 100 100 76 100 100 100 100 100 100 100 100 86 98 100 100 100 100 100 100 100 100 100 100 100 100 100
16 96 98 94 100 100 100 100 100 100 100 100 100 100 100 100 100 100 100 65 100 100 100 100 99 100 100 98 84 97 73 100 100 100 99 100 100 100 100 100 100 100 100
69 100 97 89 100 100 100 100 100 100 100 100 100 100 100 100 100 100 100 87 100 100 100 100 100 84 100 81 100 100 98 94 100 99 93 96 100 100 100 100 100 100 100
96 74 83 32 100 100 100 100 100 100 100 100 100 100 100 100 100 100 100 100 100 100 96 100 100 100 98 100 100 100 96 100 100 90 100 100 100 100 100 100 100 100 100
100 100 48 87 82 100 100 100 100 100 100 100 100 100 100 100 100 100 100 100 100 99 98 100 100 100 100 100 100 100 99 99 100 100 100 100 100 100 100 100 100 100 100
100 100 91 98 75 100 100 100 100 100 100 100 100 100 100 100 100 100 100 100 100 100 96 100 100 100 100 100 100 97 97 100 100 100 100 100 100 100 100 100 100 100 100
100 100 47 78 95 100 100 100 100 100 100 100 100 100 100 100 100 100 100 100 100 100 100 100 100 100 100 84 100 100 100 100 100 100 100 100 100 100 100 100 100 100 100
94 87 51 81 99 100 100 100 100 100 100 100 100 100 100 100 100 100 100 100 100 100 100 100 97 99 90 100 100 100 100 100 100 100 100 100 100 100 100 100 100 88 100
82 100 43 88 67 82 100 100 100 100 100 100 100 100 100 100 100 100 100 100 100 100 100 100 100 100 100 100 100 100 100 100 100 100 100 100 100 100 100 100 100 100 100
100 99 81 50 95 100 98 100 100 100 100 100 100 100 100 100 100 100 100 100 100 100 100 100 100 100 100 100 100 100 100 100 100 100 78 96 100 100 100 100 100 100 100
100 100 83 90 90 86 100 100 100 100 100 100 100 100 100 100 100 100 100 100 100 100 100 100 100 100 100 100 100 100 100 100 100 100 100 100 100 100 100 86 39 73 95
100 100 84 42 100 100 100 100 95 100 100 100 100 100 100 100 100 100 100 100 100 100 100 100 100 100 100 100 100 100 100 100 100 100 100 100 100 92 99 100 86 52 100
100 100 92 99 100 100 85 99 100 100 100 100 100 100 100 100 100 100 100 100 100 100 100 100 100 100 100 100 100 100 100 100 100 100 91 92 77 100 100 52 66 100 100
100 100 100 100 100 100 100 100 100 100 100 100 95 97 100 84 38 82 100 100 100 100 100 100 100 100 100 100 88 75 90 78 17 27 32 66 95 94 66 98 100 96 5
100 100 91 100 97 100 100 100 100 100 100 100 100 100 100 100 100 100 100 91 74 67 77 94 96 23 14 100 59 32 47 7 92 28 54 82 89 93 100 93 87 97 100
100 100 100 100 100 100 100 100 100 100 100 100 100 100 100 38 37 6 5 5 30 67 73 99 99 99 25 51 46 62 44 56 63 83 100 100 100 100 100 100 100 100 100
100 100 100 100 100 100 100 100 100 100 100 97 100 100 100 98 100 100 100 100 100 100 100 100 100 100 100 98 98 100 100 100 100 100 100 100 100 100 100 100 100 100 100
100 100 100 100 100 100 100 100 100 99 100 100 100 100 100 100 100 100 100 100 100 100 100 100 100 100 100 98 100 100 100 100 100 100 100 100 100 100 100 100 100 100 100
100 100 100 100 100 100 100 100 100 100 100 100 100 100 100 100 100 100 100 100 100 100 100 100 100 100 100 100 100 100 100 100 100 100 100 100 100 100 100 100 100 100 100
100 100 100 100 100 100 100 100 100 100 100 100 100 100 100 100 100 99 100 100 100 100 100 100 100 100 100 100 100 100 100 100 100 100 100 100 100 100 100 100 100 100 100

GFSMA_prec_cloud_108.txt.gz
Cloud_Cover
0 0 3 4 4 33 4 2 0 21 34 100 100 100 100 100 70 100 95 100 84 100 100 100 74 100 87 14 28 56 100 100 100 100 100 100 100 100 100 100 100 100 100
0 0 3 0 2 3 0 0 7 39 80 100 100 100 100 100 59 100 96 54 27 100 100 77 28 72 97 9 51 97 100 100 100 100 100 97 100 100 100 100 100 100 100
0 0 1 0 0 0 0 5 9 36 99 97 100 100 100 100 100 100 100 68 95 94 97 100 42 95 100 54 37 40 99 80 100 100 100 100 100 100 100 100 100 100 100
16 9 51 100 10 0 16 28 4 97 99 100 100 100 100 100 100 100 100 100 100 100 55 100 100 100 100 100 71 40 89 98 100 100 100 100 100 100 100 100 100 100 100
2 32 13 9 25 43 20 23 54 64 100 100 100 100 100 100 100 100 100 100 100 100 100 100 98 100 100 100 83 98 91 94 83 100 100 100 100 100 100 100 100 100 100
2 0 10 20 60 91 100 77 88 94 100 100 100 100 100 100 100 100 100 100 100 100 100 100 100 95 100 100 100 100 100 100 95 100 100 100 100 100 100 100 100 100 100
0 0 1 86 100 79 100 100 100 100 100 100 100 100 100 100 100 100 100 100 100 100 100 100 95 98 100 100 100 100 100 100 100 100 78 90 100 100 98 83 94 100 100
0 0 3 97 46 100 100 100 100 100 100 100 100 100 100 100 100 100 100 100 100 100 100 100 100 100 89 100 100 100 100 100 100 100 90 54 65 35 37 88 97 100 100
1 0 5 93 41 100 100 100 100 100 100 100 100 100 100 100 100 100 100 100 100 100 100 100 100 100 100 100 100 100 100 100 100 81 99 80 88 79 100 100 100 100 100
0 0 6 100 80 99 71 100 100 100 100 100 100 100 100 100 100 100 100 100 100 100 100 100 100 100 99 94 100 100 100 100 100 100 99 100 100 100 100 100 100 95 95
0 0 100 92 83 100 57 98 100 100 100 100 100 100 100 100 100 100 100 100 100 100 100 100 100 100 100 100 100 100 100 100 99 100 98 100 100 100 100 100 95 100 100
76 81 36 94 100 100 68 97 100 100 100 100 100 100 100 100 100 100 100 100 100 100 100 100 100 100 100 100 100 100 100 100 100 98 100 100 100 100 100 100 100 100 100
8 97 98 75 96 100 57 76 100 100 100 100 100 100 100 100 100 100 100 100 100 100 100 100 100 100 100 100 100 99 100 94 94 100 100 100 100 100 100 100 96 85 100
0 5 7 62 100 100 99 68 100 100 100 100 100 100 100 100 100 100 100 100 100 100 100 100 100 100 90 100 100 100 100 100 100 100 100 100 100 100 100 100 100 100 100
3 5 97 69 73 83 87 87 97 100 100 100 100 100 100 100 100 100 100 100 100 100 100 100 100 100 100 100 100 100 100 100 100 100 100 100 100 100 100 100 100 100 86
4 20 8 80 71 80 100 100 100 100 100 100 100 100 100 100 100 100 100 100 100 100 100 100 100 100 100 100 100 100 100 99 100 100 100 100 100 100 100 100 96 100 100
5 33 55 48 97 100 100 100 100 100 100 100 100 100 100 100 100 100 100 100 100 100 100 100 100 100 100 100 100 100 100 100 100 100 100 100 100 100 100 100 100 100 100
71 35 100 98 87 100 100 100 100 100 100 100 100 100 100 100 100 100 100 100 100 100 100 100 100 100 100 100 95 98 100 100 100 100 100 100 100 100 100 81 89 32 99
98 100 100 100 96 93 100 100 100 100 100 100 100 100 100 100 100 100 100 100 100 100 100 100 100 100 100 100 100 100 100 100 100 100 100 100 97 100 100 100 100 100 100
100 100 100 100 100 99 88 100 100 94 100 100 100 100 100 100 100 100 100 100 100 100 100 100 100 100 100 100 100 100 100 98 98 96 100 100 100 100 100 100 100 100 100
100 100 100 100 100 100 100 100 100 100 100 100 100 100 100 100 100 69 100 100 100 100 100 100 100 100 69 99 100 100 100 99 100 99 100 100 100 100 100 100 100 100 100
100 100 100 100 100 100 100 100 100 100 100 100 100 100 100 99 100 100 100 100 100 100 100 100 72 68 95 100 99 91 48 98 100 71 90 100 92 100 100 100 100 100 100
100 100 100 100 100 100 100 100 100 100 100 100 100 100 100 100 100 100 100 100 100 100 100 100 100 100 100 100 100 99 100 100 100 100 100 100 100 100 100 100 100 100 100
100 100 100 100 100 100 100 100 100 100 100 100 100 100 100 100 100 100 100 100 100 100 100 98 100 100 100 100 100 100 100 100 100 100 100 100 100 100 100 100 100 100 100
100 100 100 100 100 100 100 100 100 100 100 100 100 100 100 100 100 100 100 100 100 100 100 100 100 100 100 100 100 100 100 100 100 100 100 100 100 100 100 100 100 100 100
100 100 100 100 100 100 100 100 100 100 100 100 100 100 100 100 100 100 100 100 100 100 100 100 100 100 100 100 100 100 100 100 100 100 100 100 100 100 100 100 100 100 100

GFSMA_prec_cloud_111.txt.gz
Cloud_Cover
1 0 9 14 6 16 11 18 7 11 28 3 1 100 100 100 100 100 100 100 95 100 100 100 100 100 100 100 96 76 66 72 100 99 100 90 16 76 100 100 100 100 100
3 2 4 3 11 5 6 3 6 24 22 10 8 46 100 100 100 100 100 93 86 100 100 100 100 100 93 94 70 68 7 96 100 99 100 100 7 48 91 76 100 100 100
1 5 7 6 1 8 11 17 38 37 43 30 3 75 100 100 100 100 100 85 100 42 99 100 95 100 100 100 99 43 70 35 100 75 100 100 100 100 100 100 100 100 100
4 5 7 3 15 21 10 29 80 100 97 90 47 98 100 100 100 100 100 81 100 100 99 99 100 100 100 76 100 78 82 100 86 41 100 100 100 100 100 100 100 100 100
38 5 0 3 90 54 33 33 82 84 100 100 98 95 100 100 100 100 100 90 100 100 100 96 77 100 100 100 100 100 100 100 100 73 79 100 100 100 100 100 100 100 100
95 7 60 30 53 80 36 86 94 99 100 82 100 100 100 100 100 100 100 100 100 100 100 100 100 100 100 100 100 100 100 99 99 100 100 100 70 85 100 100 98 100 100
30 5 24 12 13 26 100 100 100 100 100 94 100 100 100 100 100 100 100 100 100 100 100 100 100 100 100 100 100 98 100 100 97 100 100 100 98 64 53 93 96 95 100
1 5 18 15 16 37 89 100 100 100 100 92 100 100 100 100 100 100 100 100 100 100 100 100 100 100 100 100 100 100 100 100 100 100 100 100 100 96 72 79 66 93 92
2 5 5 6 52 100 46 97 100 100 100 100 88 100 100 100 100 100 100 100 100 100 100 100 100 100 100 97 100 100 100 99 100 100 100 100 100 96 98 96 100 100 97
5 5 5 12 13 18 32 100 100 83 100 100 100 100 100 100 100 100 100 100 100 100 100 100 100 100 100 100 100 100 100 100 100 100 100 100 100 100 100 100 100 100 100
31 59 23 32 37 21 76 100 100 100 100 100 100 100 100 100 100 100 100 100 100 100 100 100 100 100 100 100 100 100 100 100 100 100 100 100 100 100 100 100 100 100 100
30 47 37 28 34 70 100 100 100 100 100 100 100 100 100 100 100 100 100 100 100 100 100 100 100 100 100 100 100 100 100 100 100 100 98 100 100 100 100 100 100 100 100
5 29 56 68 100 100 100 100 100 100 100 100 100 100 100 100 100 100 100 100 100 100 100 100 100 100 100 100 100 100 100 97 94 96 96 100 100 100 100 100 100 94 100
6 74 41 50 62 85 98 100 97 78 100 100 100 100 100 100 100 100 100 100 100 100 100 100 100 100 100 100 100 100 100 100 96 100 100 98 100 100 100 100 100 100 100
10 6 26 55 74 100 100 97 100 99 100 100 100 66 100 100 100 100 100 100 100 100 100 100 99 100 100 100 100 100 100 100 100 100 100 88 100 100 100 100 100 100 100
5 5 13 46 71 76 100 100 100 100 97 100 100 100 100 100 100 100 100 100 94 100 100 100 100 100 100 100 100 100 100 100 100 98 100 100 100 99 83 100 100 100 100
14 51 6 60 95 100 84 100 100 100 100 100 100 100 100 100 100 100 100 100 100 100 100 100 100 100 100 100 100 100 100 100 100 100 100 100 100 100 100 100 100 100 100
23 12 4 1 89 100 100 100 100 100 100 100 100 100 100 100 100 100 100 100 100 100 100 100 100 100 100 100 100 100 100 100 100 100 100 100 100 100 100 100 100 100 65
71 90 26 17 100 100 100 100 100 100 100 89 100 100 100 100 100 100 100 100 100 100 100 100 100 100 100 100 100 100 100 100 100 100 100 100 100 100 100 98 100 100 100
100 100 94 100 100 100 100 100 100 100 100 100 100 100 100 84 100 100 100 100 100 100 100 100 100 100 100 100 100 100 100 100 100 100 100 100 100 81 90 100 100 100 100
100 100 100 100 100 100 100 100 100 100 100 100 100 100 100 100 100 100 100 100 100 100 100 100 100 100 100 100 96 100 66 98 100 100 100 100 100 93 99 95 100 99 100
100 100 100 100 100 100 100 100 100 100 100 100 100 100 100 100 100 100 82 100 100 100 100 100 100 100 100 100 91 84 100 100 100 61 45 96 100 100 100 100 100 100 100
100 100 100 100 100 100 100 100 100 100 100 100 100 100 100 100 100 100 94 100 100 100 100 100 100 100 96 70 92 97 100 100 97 99 100 100 100 100 100 100 100 100 100
100 100 100 100 100 100 100 100 100 100 100 100 100 100 100 100 100 94 100 100 100 100 100 100 87 98 100 100 100 100 100 100 100 100 100 100 100 100 100 100 100 100 100
100 100 100 100 100 100 100 100 100 100 100 100 100 100 100 100 100 100 100 100 100 100 100 100 100 100 100 100 100 100 100 100 100 100 100 100 100 100 100 100 100 100 100
100 100 100 100 100 100 100 100 100 100 100 100 100 100 100 100 100 100 100 100 100 100 100 100 100 100 100 100 100 100 100 100 100 100 100 100 100 100 100 100 100 100 100

GFSMA_prec_cloud_114.txt.gz
Cloud_Cover
44 17 18 15 15 19 51 100 64 27 14 13 92 82 67 26 100 100 100 100 100 100 100 100 100 100 100 98 93 95 98 100 100 100 100 100 100 96 24 34 100 100 100
10 20 26 19 18 7 28 36 38 29 16 14 6 25 10 5 100 100 100 100 100 100 100 100 100 100 100 100 99 100 90 78 100 100 98 85 100 100 96 77 100 100 100
5 8 16 39 12 18 22 34 35 35 34 17 8 10 9 5 100 100 100 100 100 100 100 100 98 100 100 100 97 100 100 86 100 100 93 100 100 100 100 100 98 100 100
5 47 59 14 22 38 25 44 83 81 42 50 29 34 27 42 97 100 100 100 100 100 100 100 100 100 100 100 100 100 97 98 100 100 99 100 100 100 100 100 100 100 100
8 100 78 13 12 40 57 72 100 100 100 100 96 66 62 66 100 100 100 100 100 100 100 100 91 100 97 100 100 100 63 91 100 100 100 100 80 100 99 100 100 100 100
33 100 91 41 17 100 97 88 100 100 100 100 100 92 78 98 98 100 100 100 100 100 100 100 100 100 100 100 100 100 99 78 100 100 100 100 100 100 85 100 99 100 100
76 58 55 20 40 100 100 100 100 100 100 100 100 100 100 100 100 100 100 100 100 100 100 100 100 100 100 100 100 100 100 100 100 100 100 100 100 100 86 100 100 100 99
10 83 42 18 45 100 100 97 100 100 100 100 100 100 100 100 100 100 100 100 100 100 100 100 100 100 100 100 100 100 100 100 100 100 100 100 100 100 100 100 100 98 96
94 72 69 20 41 36 100 100 85 100 100 100 100 100 100 100 100 100 100 100 100 100 100 100 100 100 100 100 100 100 98 100 100 100 100 100 100 100 100 100 99 91 100
100 100 84 22 32 58 82 100 67 100 100 100 100 100 91 100 100 100 100 100 100 100 100 100 100 100 100 100 100 100 100 100 100 100 100 100 100 100 99 100 100 100 100
100 83 19 27 36 36 15 44 81 100 100 100 100 98 100 100 100 100 100 100 100 100 100 100 100 100 100 100 100 100 100 100 100 100 100 100 100 100 100 100 99 100 100
97 95 44 35 30 28 13 18 87 100 100 97 97 68 100 100 100 100 100 100 100 100 100 100 100 100 100 100 100 100 100 100 100 100 100 100 100 100 100 100 100 97 100
88 64 83 78 69 34 61 48 99 100 91 92 100 100 100 100 100 100 100 100 100 100 100 100 100 100 100 100 100 100 100 100 100 100 100 100 100 100 100 100 100 100 100
77 100 99 89 100 57 85 100 100 100 84 100 100 100 100 100 100 100 100 100 100 100 100 100 100 97 100 100 100 100 100 100 100 100 100 100 100 100 100 98 100 100 100
32 100 100 100 90 97 92 100 100 100 100 100 100 100 100 100 100 100 100 100 100 100 100 100 100 100 94 100 100 100 100 100 100 100 100 100 100 100 100 100 100 100 100
98 100 100 100 100 99 100 100 100 100 100 100 90 100 100 100 100 100 100 100 100 100 100 100 100 100 100 100 100 100 100 100 100 100 100 100 100 100 100 100 100 100 100
100 100 100 100 100 100 97 100 100 93 100 100 96 100 100 100 100 100 100 100 100 100 100 100 100 100 100 100 100 100 100 100 100 100 100 100 100 100 100 100 100 100 100
100 100 100 100 100 100 100 100 100 100 100 100 100 100 100 100 100 100 100 100 100 100 100 100 100 100 100 100 100 100 100 100 100 100 100 100 100 100 100 100 100 100 100
100 100 100 100 100 100 100 100 100 100 100 100 100 100 100 100 100 100 100 100 100 100 100 100 100 100 100 100 100 100 100 100 100 100 100 100 100 100 100 100 100 100 100
100 100 100 100 100 100 100 100 100 100 100 100 100 100 100 100 100 100 100 100 100 100 100 100 100 100 100 100 100 100 100 100 100 100 100 100 100 100 100 100 100 100 85
100 100 100 100 100 100 100 100 100 100 100 100 100 100 100 100 100 99 98 100 100 100 100 100 100 100 100 100 100 100 100 100 100 100 97 100 100 100 100 100 100 100 95
100 100 100 100 100 100 100 100 100 100 100 100 100 100 100 100 100 100 100 100 100 100 100 100 100 100 100 97 100 100 100 100 100 93 98 100 100 100 100 100 100 100 100
100 100 100 100 100 100 100 100 100 100 100 100 100 100 100 100 100 100 100 100 100 100 100 100 100 100 99 100 100 100 100 64 82 86 99 100 100 100 100 100 100 100 100
100 100 100 100 100 100 100 100 96 100 100 100 100 100 100 100 100 100 100 100 100 100 100 100 100 100 100 100 100 75 57 95 100 100 100 100 100 100 100 100 100 100 100
100 100 100 100 100 100 100 100 100 100 100 100 100 100 100 100 100 100 100 100 100 100 100 100 100 100 100 100 100 100 100 100 100 100 100 100 100 100 100 100 100 100 100
100 100 100 100 100 100 100 100 100 100 100 100 100 100 100 100 100 100 100 100 100 100 100 100 100 100 100 100 100 100 100 100 100 100 100 100 100 100 100 100 100 100 100

GFSMA_prec_cloud_117.txt.gz
Cloud_Cover
99 65 33 31 27 36 82 99 100 31 16 3 2 5 66 69 5 69 97 100 100 100 100 100 100 100 100 100 100 100 100 100 100 100 100 100 100 98 100 100 99 99 100
100 100 41 40 91 23 81 100 100 34 25 18 21 65 66 28 5 10 87 100 100 100 100 100 100 100 100 100 100 100 100 100 100 100 100 99 100 100 100 100 99 94 84
100 100 87 100 100 26 30 38 45 36 36 28 14 22 92 37 5 5 46 100 100 100 100 100 100 100 100 100 100 100 100 100 97 100 100 100 100 100 100 86 100 100 66
100 100 99 94 52 80 36 44 76 100 58 34 31 28 25 15 7 14 22 52 100 100 100 100 100 100 100 100 100 100 100 100 100 100 94 100 100 99 68 66 31 96 82
100 100 87 100 100 99 83 79 98 98 100 90 76 39 40 63 20 28 59 81 100 100 100 100 100 100 100 100 100 99 100 100 100 100 100 100 99 86 100 80 78 98 84
100 55 32 95 100 98 100 100 100 100 100 100 100 100 53 83 92 54 100 100 100 100 100 100 100 100 100 100 100 100 88 100 98 100 100 100 100 100 100 87 100 19 34
100 40 46 96 81 88 100 100 100 100 100 100 100 100 100 91 100 76 100 100 100 100 100 100 100 100 100 100 100 100 100 100 95 100 100 100 100 100 100 59 97 88 100
68 55 97 100 88 100 100 100 100 100 100 100 100 100 100 100 100 100 100 100 100 100 100 100 100 100 100 100 100 100 100 100 100 100 100 100 100 100 100 98 99 100 98
100 100 100 96 99 100 100 100 100 85 100 100 100 100 100 100 100 100 100 100 100 100 100 100 100 100 100 100 100 100 100 100 100 100 100 100 100 100 100 99 88 100 100
91 100 100 100 100 100 100 94 100 99 73 100 100 100 100 100 100 100 100 100 100 100 100 100 100 100 100 100 100 100 100 100 100 100 100 100 100 100 100 100 98 100 90
92 73 100 100 100 99 100 100 100 100 96 100 100 100 100 100 98 100 100 100 100 100 100 100 100 100 100 100 100 100 100 100 100 100 92 82 99 99 100 100 100 100 99
100 100 100 100 100 99 100 100 100 99 100 100 100 100 100 100 88 99 100 100 100 100 100 100 100 100 100 100 100 100 100 100 100 100 100 100 100 100 98 100 100 98 99
100 100 100 100 100 98 80 55 99 100 100 100 100 100 96 6 33 100 100 100 100 100 100 100 100 100 100 100 100 100 100 100 100 100 100 100 100 100 99 100 100 100 100
76 100 100 100 100 97 44 76 100 100 100 100 100 100 50 83 54 100 100 100 100 100 100 100 100 100 100 100 100 100 100 100 100 100 100 100 100 100 100 100 100 100 100
100 100 100 100 100 93 87 100 100 100 100 100 98 65 100 61 100 100 100 100 100 100 100 100 100 100 100 100 100 100 100 100 100 100 100 100 100 100 100 95 100 100 100
100 91 100 100 100 93 100 100 100 68 100 100 100 99 100 100 100 100 100 100 100 100 100 100 100 100 98 99 100 100 100 100 100 100 100 100 100 95 100 100 100 100 100
90 100 99 100 100 100 100 100 100 40 100 100 100 100 100 100 100 100 100 100 100 100 100 100 100 100 100 100 100 100 100 100 100 100 100 100 100 100 100 100 100 100 100
56 78 100 100 100 100 100 99 64 88 100 100 100 100 100 97 100 100 100 100 100 100 100 100 100 100 100 100 100 100 100 100 100 100 100 100 100 100 100 100 100 100 100
65 92 100 100 100 100 100 100 59 100 100 100 100 100 100 100 100 100 100 100 100 100 100 100 100 100 100 100 100 100 100 100 100 100 100 100 100 100 100 100 100 100 100
98 100 100 100 100 100 100 100 97 100 100 100 100 100 100 100 100 100 100 100 100 100 100 100 100 100 100 100 100 100 100 100 100 100 100 100 100 100 100 100 100 100 100
100 100 100 100 100 100 100 100 100 100 100 100 100 100 100 100 100 99 93 100 100 100 100 100 100 100 100 100 100 100 100 100 100 100 100 100 100 100 100 100 100 100 100
100 100 100 100 100 100 100 100 99 100 100 100 100 100 100 100 90 100 100 95 100 100 100 100 100 100 100 100 100 100 100 100 100 100 100 100 100 100 100 100 100 100 100
100 100 100 100 100 100 100 100 100 100 100 100 100 100 100 100 100 100 100 100 100 100 100 100 100 100 100 100 98 100 100 100 100 100 100 100 100 100 100 100 100 100 100
100 100 100 100 100 100 100 100 100 100 100 100 100 100 100 100 100 100 100 100 100 100 100 100 100 100 100 93 100 100 100 100 100 100 100 100 100 100 100 100 100 100 100
100 100 100 100 100 100 100 100 100 100 100 100 100 100 100 100 100 100 100 100 100 100 100 100 100 100 100 100 100 97 100 100 100 100 100 100 100 100 100 100 100 100 100
100 100 100 100 100 100 100 100 100 100 100 100 100 100 100 100 100 100 100 100 100 100 100 100 100 100 100 100 100 100 100 100 100 100 100 100 100 100 100 100 100 100 100

GFSMA_prec_cloud_123.txt.gz
Cloud_Cover
99 68 61 98 74 70 53 100 100 100 57 5 5 5 2 0 0 0 2 5 24 16 98 100 100 100 100 100 100 100 100 100 100 100 100 100 100 100 100 100 100 100 100
100 100 85 76 100 65 81 100 100 100 82 6 5 5 99 22 0 0 1 5 26 96 79 100 100 100 100 100 100 100 100 100 100 100 100 100 100 100 100 100 100 100 91
100 100 100 96 56 95 97 95 100 100 100 41 7 32 100 15 0 0 0 13 36 100 100 100 100 100 100 100 100 100 100 100 100 100 100 100 100 100 100 100 100 100 38
100 100 100 100 77 100 100 100 100 100 100 42 24 13 6 49 21 0 0 0 11 56 100 100 96 100 100 100 100 100 100 100 100 100 100 100 100 100 100 100 100 73 95
100 100 100 100 100 93 100 100 100 100 100 99 57 50 39 49 88 20 0 0 10 5 32 92 94 100 100 100 100 100 100 100 100 100 100 100 100 100 100 100 99 28 12
100 100 100 100 100 100 100 100 100 100 96 91 76 67 96 84 89 46 58 31 26 31 9 22 55 92 100 100 100 100 100 100 100 100 100 100 100 100 100 100 43 90 9
100 100 100 100 100 100 100 100 100 100 100 90 100 100 100 100 100 100 99 41 49 73 71 100 78 74 100 100 100 100 100 100 100 100 100 100 100 100 100 100 78 48 98
74 43 94 100 100 100 100 100 100 100 100 100 100 100 100 82 100 76 70 95 88 76 82 66 64 100 94 100 100 100 100 100 100 100 100 100 100 100 100 100 100 100 66
35 6 42 66 100 100 100 100 91 100 100 100 100 57 93 71 51 90 100 100 100 100 87 56 74 100 100 100 100 100 100 100 100 100 100 100 100 100 100 100 100 100 100
75 32 52 100 100 100 100 100 100 100 88 100 100 96 49 24 9 10 91 71 99 95 46 100 64 79 100 100 100 100 100 100 100 100 100 100 100 100 100 100 100 100 100
100 100 100 100 100 100 100 100 100 100 97 100 100 100 97 89 91 37 83 66 85 52 74 100 76 100 100 100 100 100 100 100 100 100 100 100 100 100 100 100 100 98 100
100 100 100 100 100 100 100 100 100 83 100 100 100 100 97 99 98 89 56 87 61 66 80 99 100 100 100 100 100 100 100 100 100 100 100 100 100 100 100 100 100 100 100
100 100 100 100 100 100 100 100 100 100 100 100 100 100 100 81 94 16 29 65 97 97 84 100 100 100 100 100 100 100 100 100 100 100 100 100 100 100 100 100 100 100 100
100 100 100 100 100 100 100 100 100 100 100 100 100 100 100 100 99 4 42 100 97 100 100 100 100 100 100 100 100 100 100 100 100 100 100 100 100 100 100 100 100 100 100
100 100 100 100 100 100 100 100 100 100 100 100 100 100 100 100 66 100 100 100 100 100 100 100 100 100 100 100 100 100 100 100 100 100 100 100 100 100 100 100 100 100 100
100 100 100 100 100 100 100 100 100 100 100 100 100 100 100 100 100 100 100 100 99 89 100 100 100 100 100 100 100 100 100 100 100 100 100 100 100 100 100 100 100 100 100
100 100 100 100 100 100 100 100 100 100 100 100 100 100 100 100 100 100 100 100 100 100 100 97 100 100 100 100 100 100 100 100 100 100 100 100 100 100 100 100 100 100 100
100 100 100 100 100 100 100 100 100 100 100 100 100 100 100 100 74 95 98 100 100 99 100 100 100 100 100 100 100 100 100 100 100 100 100 100 100 100 100 100 100 100 100
100 100 100 100 100 100 100 100 100 100 100 100 100 100 100 100 95 84 100 100 100 100 100 100 100 100 100 100 100 100 100 100 100 100 100 100 94 100 98 100 100 100 100
100 100 100 100 100 100 100 100 100 100 100 100 100 100 100 100 98 82 100 100 100 100 100 100 100 100 100 100 100 100 100 100 100 100 100 100 100 100 100 100 100 100 100
100 100 100 100 100 100 100 100 100 100 100 100 100 100 100 100 99 60 89 100 100 100 100 100 100 100 100 100 100 100 100 100 100 100 100 100 100 100 100 100 100 100 100
100 100 100 100 100 100 100 100 100 100 100 100 100 100 100 100 100 100 100 99 99 100 100 100 100 100 100 100 100 100 100 100 100 100 100 100 100 100 100 100 100 100 100
100 100 100 100 100 100 100 100 100 100 100 100 100 100 100 100 100 100 100 100 100 100 100 93 100 100 100 99 100 100 100 100 100 100 100 100 100 100 100 100 100 100 100
98 100 100 100 100 100 100 100 100 100 100 100 100 100 100 100 100 100 100 100 100 100 100 100 100 100 97 93 99 100 100 100 100 100 100 100 100 100 100 100 100 100 100
100 100 100 100 100 100 100 100 100 100 100 100 100 100 100 100 100 100 100 100 100 100 100 100 100 100 100 100 100 100 100 100 100 100 100 100 100 100 100 100 100 100 100
100 100 100 100 100 100 100 100 100 100 100 100 100 100 100 100 100 100 100 100 100 100 100 100 100 100 100 100 100 100 100 100 100 100 100 100 100 100 100 100 100 100 100

GFSMA_prec_cloud_126.txt.gz
Cloud_Cover
53 68 93 98 100 96 94 96 99 100 100 100 100 6 3 7 6 20 92 3 0 0 86 100 100 100 100 100 100 100 62 73 100 100 100 100 90 100 99 100 100 100 87
36 18 84 95 100 72 100 99 70 100 100 100 100 69 5 12 12 23 58 62 0 0 4 100 100 100 100 100 100 100 100 98 100 100 100 100 100 100 100 100 100 100 73
37 99 56 100 100 100 99 93 98 90 100 100 100 100 11 5 1 68 12 58 66 99 66 11 100 100 100 100 100 100 100 100 100 100 100 100 100 100 100 100 100 100 99
37 100 100 100 100 100 100 100 93 100 100 100 100 100 62 54 59 43 56 62 84 30 68 12 99 100 100 100 100 100 100 100 100 100 100 100 100 100 100 100 100 100 100
93 71 100 100 91 98 100 100 100 100 100 100 99 100 98 90 54 40 99 100 85 19 71 41 95 100 100 100 100 100 100 100 100 100 100 100 100 100 100 100 100 100 77
100 100 100 100 100 100 100 100 97 100 100 100 100 100 100 98 88 91 96 100 100 100 66 57 43 84 100 100 100 100 100 100 100 100 100 100 100 100 100 100 100 100 75
100 100 60 88 100 100 100 100 98 100 100 100 100 70 60 69 97 56 59 56 60 50 46 76 81 74 67 100 100 100 100 100 100 100 100 100 100 100 100 100 100 100 92
76 100 85 100 100 100 100 100 100 100 100 100 99 91 100 99 84 67 83 43 18 43 88 98 82 98 91 100 63 100 100 100 100 100 100 100 100 100 100 100 100 100 68
44 92 91 61 54 22 91 100 100 100 100 98 97 100 100 100 11 40 96 90 41 100 99 100 100 97 75 71 99 100 100 100 100 100 100 100 100 100 100 100 100 100 97
5 64 92 48 42 100 31 100 100 100 100 100 100 100 81 72 19 92 49 80 100 100 100 100 67 100 78 80 91 94 100 100 100 100 100 100 100 100 100 100 100 100 93
75 97 100 42 55 100 98 100 100 100 100 100 100 100 100 92 100 100 92 45 50 55 52 91 100 100 87 50 32 100 100 100 100 100 100 100 100 100 100 100 100 100 99
100 100 100 100 100 100 100 100 100 100 100 100 100 100 94 100 100 97 100 97 37 73 87 89 100 83 99 97 32 100 100 100 100 100 100 100 100 100 100 100 100 100 100
100 100 100 100 100 100 100 100 100 100 98 100 100 100 100 96 74 100 100 100 67 90 99 77 86 86 84 41 89 100 100 100 100 100 100 99 100 100 100 100 100 100 100
100 100 100 100 100 100 100 100 100 100 100 100 100 100 100 72 84 69 92 100 93 88 93 57 75 78 69 58 100 100 100 100 100 100 100 99 100 100 100 100 100 100 100
100 100 100 100 100 100 100 100 100 100 100 100 100 100 82 86 72 100 100 64 98 51 58 12 48 34 67 99 100 100 100 100 100 100 100 100 100 100 100 100 100 100 100
100 100 100 100 100 100 100 100 100 100 100 100 100 100 100 100 100 100 99 94 77 74 97 100 96 57 87 100 100 100 100 100 100 100 100 100 100 100 100 100 100 100 100
100 100 100 100 100 100 100 100 100 100 100 100 100 100 100 100 100 100 100 100 100 100 100 100 57 54 100 100 100 100 100 100 100 100 100 100 100 100 100 100 100 100 100
100 100 100 100 100 100 100 100 100 100 100 100 100 100 100 100 100 100 93 100 100 21 100 79 100 88 98 100 100 100 100 100 100 100 100 100 100 100 100 100 100 100 100
100 100 100 100 100 100 100 100 100 100 100 100 100 100 100 100 100 100 100 100 99 38 100 75 100 99 100 100 100 100 100 100 100 100 100 100 100 100 100 100 100 100 100
100 100 100 100 100 100 100 100 100 100 100 100 100 100 100 100 100 100 100 100 98 67 98 100 100 100 100 100 100 100 100 100 100 100 100 100 100 100 100 100 100 100 100
100 100 100 100 100 100 100 100 100 100 100 100 100 100 100 100 100 100 100 100 91 100 100 100 100 100 100 100 100 100 100 100 100 100 100 100 100 100 100 100 100 100 100
100 100 100 100 100 100 100 100 100 100 100 100 100 100 100 100 100 100 100 100 100 100 100 100 100 100 100 100 100 100 100 100 100 100 100 100 100 100 100 100 100 100 100
100 100 100 100 100 100 100 100 100 100 100 100 100 100 100 100 100 100 100 100 100 100 100 100 100 100 100 69 92 100 100 100 100 100 100 100 100 100 100 100 100 100 100
100 100 100 100 100 100 100 100 100 100 100 100 100 100 100 100 100 100 100 100 100 100 100 100 100 100 94 98 93 100 83 100 100 100 100 100 100 100 100 100 100 100 100
100 100 100 100 100 100 100 100 100 100 100 100 100 100 100 100 100 100 100 100 100 100 100 100 100 100 100 100 100 100 100 100 100 100 100 100 100 100 100 100 100 100 100
100 100 100 100 99 100 100 100 99 100 100 100 100 100 100 100 100 100 100 100 100 100 100 100 100 100 100 100 100 100 100 100 100 100 100 100 100 100 100 100 100 100 100

GFSMA_prec_cloud_129.txt.gz
Cloud_Cover
9 12 34 54 86 100 95 100 92 50 92 100 98 100 100 100 39 100 92 32 0 0 0 0 88 100 100 100 100 100 100 100 100 100 100 100 100 100 100 100 100 100 100
16 18 45 13 83 39 67 100 100 100 100 86 86 100 100 100 100 100 100 98 25 0 0 0 13 100 100 100 100 100 100 100 100 100 100 100 100 100 100 100 100 100 100
0 0 24 75 20 10 71 99 100 100 100 100 100 100 100 100 100 96 100 86 100 85 0 0 0 85 100 100 100 100 100 100 100 100 100 100 100 100 100 100 74 100 100
4 0 2 5 47 24 38 100 100 90 95 100 100 100 100 100 100 97 100 100 100 100 90 1 3 5 96 100 100 100 100 100 100 100 100 99 100 100 100 100 99 100 100
12 36 32 33 94 34 22 99 100 100 24 71 100 100 100 64 95 99 100 100 100 100 95 38 0 5 5 98 100 100 100 100 100 100 100 100 100 100 100 100 100 100 100
80 17 84 100 80 31 79 58 99 95 93 42 100 100 100 100 100 100 100 93 100 96 100 59 5 5 5 5 100 100 100 100 100 100 81 100 100 100 100 100 100 100 100
89 82 48 96 100 100 100 100 100 100 92 89 100 100 100 52 80 75 100 100 100 100 93 79 5 55 29 5 5 90 100 100 100 100 100 100 100 100 100 100 100 100 100
4 99 95 2 100 100 100 100 100 100 98 73 100 69 100 98 48 79 64 27 36 91 97 100 33 10 24 89 13 2 66 100 100 100 100 100 100 100 100 100 100 100 100
93 67 96 0 87 99 62 69 100 100 98 34 100 44 99 100 100 100 100 20 6 14 68 96 88 66 45 33 32 28 27 35 100 100 100 100 100 100 100 100 100 100 100
100 100 72 20 33 20 98 98 53 100 100 99 100 100 100 100 100 100 24 68 84 98 7 81 100 51 57 44 49 94 40 10 100 99 100 100 100 100 100 100 100 100 100
100 100 92 46 6 1 100 30 12 100 100 81 100 100 100 100 100 100 100 100 100 86 99 93 97 67 83 21 28 52 40 71 13 97 100 100 100 100 100 98 100 100 100
100 100 100 100 88 39 36 12 50 98 100 100 100 100 100 100 100 100 97 100 88 74 68 91 100 26 28 21 7 38 25 58 88 100 100 100 100 100 100 100 100 100 100
100 100 100 99 99 100 51 83 66 70 100 100 100 100 100 100 100 93 100 100 9 6 60 100 100 96 6 25 5 32 54 59 100 100 100 100 100 100 100 100 100 100 100
100 100 100 100 87 100 100 100 100 98 100 100 100 100 100 100 100 100 100 42 5 6 100 14 91 100 34 21 99 99 52 84 100 100 100 100 100 100 100 100 100 100 100
100 100 100 100 100 100 100 100 100 100 100 100 100 100 100 100 100 100 100 99 16 95 100 20 64 88 100 35 100 61 67 53 100 100 100 100 100 100 100 99 100 100 100
100 100 100 100 98 56 100 100 100 100 100 100 100 100 100 100 100 100 100 100 100 100 92 100 45 92 79 62 95 47 60 94 59 100 100 100 100 100 100 100 100 100 100
100 100 100 100 100 87 99 89 100 100 100 100 100 100 100 100 100 100 100 100 100 88 42 100 46 5 32 86 40 62 86 90 100 100 100 100 100 100 100 100 100 100 100
100 100 100 100 100 100 100 100 100 100 100 100 100 100 100 100 100 100 100 100 56 69 86 96 100 99 55 48 49 93 100 100 100 100 100 100 100 100 100 100 100 100 100
100 100 100 100 100 100 100 100 100 100 100 100 100 100 100 100 100 100 100 100 100 100 100 99 100 92 44 58 88 100 100 100 100 100 100 100 100 100 100 100 100 100 100
100 94 85 100 100 100 100 100 100 100 100 100 100 100 100 100 100 100 100 100 100 100 100 100 100 99 100 100 96 100 100 100 100 100 100 100 100 100 100 100 100 100 100
100 100 100 100 100 100 100 100 100 100 100 100 100 100 100 100 100 100 100 100 100 100 100 100 100 100 100 100 100 100 100 100 100 100 100 100 100 100 100 100 100 100 100
100 100 100 100 100 100 100 100 100 100 100 100 100 100 100 100 100 100 100 100 100 100 100 100 100 100 100 100 100 100 100 100 100 100 100 100 100 100 100 100 100 100 100
100 100 100 100 100 100 100 100 98 100 100 100 100 100 100 100 100 100 100 100 100 100 100 100 100 100 100 100 92 100 100 100 100 93 100 100 100 100 100 100 100 100 100
100 100 100 100 100 100 100 100 100 97 100 92 100 100 100 100 100 100 100 100 100 100 100 100 100 100 100 100 100 100 87 98 100 100 100 100 100 100 100 100 100 100 100
100 100 100 100 100 100 100 100 100 86 91 67 100 100 100 100 100 100 100 100 100 100 100 100 100 100 100 100 100 100 100 100 100 100 100 100 100 100 100 100 100 100 100
100 100 100 100 100 100 100 100 100 100 100 100 100 100 100 100 100 100 100 100 100 100 100 100 100 100 100 100 100 100 100 100 100 100 100 100 100 100 100 100 100 100 100